<?xml version="1.0" encoding="UTF-8" standalone="no" ?>
<gpx xmlns="http://www.topografix.com/GPX/1/1" xmlns:xsi="http://www.w3.org/2001/XMLSchema-instance" xsi:schemaLocation="http://www.topografix.com/GPX/1/1 http://www.topografix.com/GPX/1/1/gpx.xsd" version="1.1" creator="VisuGPX - https://www.visugpx.com">
  <metadata>
    <name>MN Arrayes</name>
  </metadata>
  <trk>
    <name><![CDATA[Velleron Course]]></name>
    <trkseg>
      <trkpt lat="43.96297" lon="5.051">
        <ele>96</ele>
        <time>2021-05-08T07:12:33.000Z</time>
      </trkpt>
      <trkpt lat="43.96292" lon="5.05106">
        <ele>95</ele>
        <time>2021-05-08T07:12:43.000Z</time>
      </trkpt>
      <trkpt lat="43.96291" lon="5.05107">
        <ele>94.800003051758</ele>
        <time>2021-05-08T07:12:44.000Z</time>
      </trkpt>
      <trkpt lat="43.96281" lon="5.05116">
        <ele>94.800003051758</ele>
        <time>2021-05-08T07:12:54.000Z</time>
      </trkpt>
      <trkpt lat="43.96281" lon="5.05128">
        <ele>95.800003051758</ele>
        <time>2021-05-08T07:13:01.000Z</time>
      </trkpt>
      <trkpt lat="43.9628" lon="5.05131">
        <ele>96.199996948242</ele>
        <time>2021-05-08T07:13:03.000Z</time>
      </trkpt>
      <trkpt lat="43.96277" lon="5.05141">
        <ele>97</ele>
        <time>2021-05-08T07:13:09.000Z</time>
      </trkpt>
      <trkpt lat="43.96269" lon="5.05165">
        <ele>97.800003051758</ele>
        <time>2021-05-08T07:13:22.000Z</time>
      </trkpt>
      <trkpt lat="43.96267" lon="5.05169">
        <ele>98</ele>
        <time>2021-05-08T07:13:24.000Z</time>
      </trkpt>
      <trkpt lat="43.96266" lon="5.0517">
        <ele>98</ele>
        <time>2021-05-08T07:13:25.000Z</time>
      </trkpt>
      <trkpt lat="43.96265" lon="5.05173">
        <ele>98</ele>
        <time>2021-05-08T07:13:28.000Z</time>
      </trkpt>
      <trkpt lat="43.96263" lon="5.05177">
        <ele>98.199996948242</ele>
        <time>2021-05-08T07:13:30.000Z</time>
      </trkpt>
      <trkpt lat="43.96257" lon="5.05202">
        <ele>98.199996948242</ele>
        <time>2021-05-08T07:13:42.000Z</time>
      </trkpt>
      <trkpt lat="43.96251" lon="5.05226">
        <ele>97.400001525879</ele>
        <time>2021-05-08T07:13:55.000Z</time>
      </trkpt>
      <trkpt lat="43.96249" lon="5.05235">
        <ele>97.199996948242</ele>
        <time>2021-05-08T07:14:00.000Z</time>
      </trkpt>
      <trkpt lat="43.9625" lon="5.0524">
        <ele>96.800003051758</ele>
        <time>2021-05-08T07:14:03.000Z</time>
      </trkpt>
      <trkpt lat="43.96253" lon="5.05253">
        <ele>95.800003051758</ele>
        <time>2021-05-08T07:14:10.000Z</time>
      </trkpt>
      <trkpt lat="43.96255" lon="5.05262">
        <ele>95.400001525879</ele>
        <time>2021-05-08T07:14:15.000Z</time>
      </trkpt>
      <trkpt lat="43.96246" lon="5.05284">
        <ele>95.599998474121</ele>
        <time>2021-05-08T07:14:28.000Z</time>
      </trkpt>
      <trkpt lat="43.96238" lon="5.05308">
        <ele>95.599998474121</ele>
        <time>2021-05-08T07:14:41.000Z</time>
      </trkpt>
      <trkpt lat="43.96236" lon="5.05316">
        <ele>95.599998474121</ele>
        <time>2021-05-08T07:14:45.000Z</time>
      </trkpt>
      <trkpt lat="43.96238" lon="5.05333">
        <ele>95.599998474121</ele>
        <time>2021-05-08T07:14:54.000Z</time>
      </trkpt>
      <trkpt lat="43.96239" lon="5.0536">
        <ele>95.400001525879</ele>
        <time>2021-05-08T07:15:07.000Z</time>
      </trkpt>
      <trkpt lat="43.96241" lon="5.05363">
        <ele>95.199996948242</ele>
        <time>2021-05-08T07:15:09.000Z</time>
      </trkpt>
      <trkpt lat="43.9624" lon="5.05389">
        <ele>95</ele>
        <time>2021-05-08T07:15:21.000Z</time>
      </trkpt>
      <trkpt lat="43.9624" lon="5.05393">
        <ele>95</ele>
        <time>2021-05-08T07:15:23.000Z</time>
      </trkpt>
      <trkpt lat="43.96238" lon="5.054">
        <ele>95.199996948242</ele>
        <time>2021-05-08T07:15:26.000Z</time>
      </trkpt>
      <trkpt lat="43.96236" lon="5.05407">
        <ele>95</ele>
        <time>2021-05-08T07:15:29.000Z</time>
      </trkpt>
      <trkpt lat="43.96237" lon="5.05408">
        <ele>94.800003051758</ele>
        <time>2021-05-08T07:15:31.000Z</time>
      </trkpt>
      <trkpt lat="43.96238" lon="5.05412">
        <ele>94.800003051758</ele>
        <time>2021-05-08T07:15:33.000Z</time>
      </trkpt>
      <trkpt lat="43.96238" lon="5.05419">
        <ele>94.800003051758</ele>
        <time>2021-05-08T07:15:36.000Z</time>
      </trkpt>
      <trkpt lat="43.96233" lon="5.05432">
        <ele>95</ele>
        <time>2021-05-08T07:15:41.000Z</time>
      </trkpt>
      <trkpt lat="43.96232" lon="5.05436">
        <ele>94.800003051758</ele>
        <time>2021-05-08T07:15:44.000Z</time>
      </trkpt>
      <trkpt lat="43.96227" lon="5.0544">
        <ele>94.800003051758</ele>
        <time>2021-05-08T07:15:48.000Z</time>
      </trkpt>
      <trkpt lat="43.96222" lon="5.05451">
        <ele>94</ele>
        <time>2021-05-08T07:15:54.000Z</time>
      </trkpt>
      <trkpt lat="43.96221" lon="5.05452">
        <ele>93.599998474121</ele>
        <time>2021-05-08T07:15:55.000Z</time>
      </trkpt>
      <trkpt lat="43.96219" lon="5.05454">
        <ele>92.400001525879</ele>
        <time>2021-05-08T07:15:58.000Z</time>
      </trkpt>
      <trkpt lat="43.96212" lon="5.05459">
        <ele>91.199996948242</ele>
        <time>2021-05-08T07:16:03.000Z</time>
      </trkpt>
      <trkpt lat="43.96209" lon="5.05462">
        <ele>89.800003051758</ele>
        <time>2021-05-08T07:16:06.000Z</time>
      </trkpt>
      <trkpt lat="43.96206" lon="5.05465">
        <ele>89.199996948242</ele>
        <time>2021-05-08T07:16:08.000Z</time>
      </trkpt>
      <trkpt lat="43.96205" lon="5.05467">
        <ele>88.599998474121</ele>
        <time>2021-05-08T07:16:10.000Z</time>
      </trkpt>
      <trkpt lat="43.96191" lon="5.05475">
        <ele>87.599998474121</ele>
        <time>2021-05-08T07:16:20.000Z</time>
      </trkpt>
      <trkpt lat="43.96186" lon="5.05475">
        <ele>87.199996948242</ele>
        <time>2021-05-08T07:16:23.000Z</time>
      </trkpt>
      <trkpt lat="43.96172" lon="5.05476">
        <ele>86.599998474121</ele>
        <time>2021-05-08T07:16:30.000Z</time>
      </trkpt>
      <trkpt lat="43.96171" lon="5.05477">
        <ele>86.199996948242</ele>
        <time>2021-05-08T07:16:31.000Z</time>
      </trkpt>
      <trkpt lat="43.96168" lon="5.05477">
        <ele>86</ele>
        <time>2021-05-08T07:16:33.000Z</time>
      </trkpt>
      <trkpt lat="43.96157" lon="5.05473">
        <ele>85.400001525879</ele>
        <time>2021-05-08T07:16:38.000Z</time>
      </trkpt>
      <trkpt lat="43.96144" lon="5.05469">
        <ele>85</ele>
        <time>2021-05-08T07:16:47.000Z</time>
      </trkpt>
      <trkpt lat="43.96141" lon="5.05468">
        <ele>84.599998474121</ele>
        <time>2021-05-08T07:16:50.000Z</time>
      </trkpt>
      <trkpt lat="43.96135" lon="5.05466">
        <ele>84.400001525879</ele>
        <time>2021-05-08T07:16:55.000Z</time>
      </trkpt>
      <trkpt lat="43.96134" lon="5.05465">
        <ele>84.400001525879</ele>
        <time>2021-05-08T07:16:56.000Z</time>
      </trkpt>
      <trkpt lat="43.96131" lon="5.05464">
        <ele>84</ele>
        <time>2021-05-08T07:16:59.000Z</time>
      </trkpt>
      <trkpt lat="43.96127" lon="5.05465">
        <ele>83.800003051758</ele>
        <time>2021-05-08T07:17:03.000Z</time>
      </trkpt>
      <trkpt lat="43.96128" lon="5.05468">
        <ele>83.800003051758</ele>
        <time>2021-05-08T07:17:06.000Z</time>
      </trkpt>
      <trkpt lat="43.96126" lon="5.05471">
        <ele>84.599998474121</ele>
        <time>2021-05-08T07:17:09.000Z</time>
      </trkpt>
      <trkpt lat="43.96123" lon="5.05471">
        <ele>85</ele>
        <time>2021-05-08T07:17:11.000Z</time>
      </trkpt>
      <trkpt lat="43.96121" lon="5.05471">
        <ele>85.400001525879</ele>
        <time>2021-05-08T07:17:13.000Z</time>
      </trkpt>
      <trkpt lat="43.96115" lon="5.05475">
        <ele>85.199996948242</ele>
        <time>2021-05-08T07:17:19.000Z</time>
      </trkpt>
      <trkpt lat="43.96113" lon="5.05478">
        <ele>85</ele>
        <time>2021-05-08T07:17:21.000Z</time>
      </trkpt>
      <trkpt lat="43.96107" lon="5.05489">
        <ele>85.400001525879</ele>
        <time>2021-05-08T07:17:30.000Z</time>
      </trkpt>
      <trkpt lat="43.96106" lon="5.05491">
        <ele>85.599998474121</ele>
        <time>2021-05-08T07:17:31.000Z</time>
      </trkpt>
      <trkpt lat="43.96104" lon="5.05495">
        <ele>85.599998474121</ele>
        <time>2021-05-08T07:17:33.000Z</time>
      </trkpt>
      <trkpt lat="43.96102" lon="5.0551">
        <ele>86.199996948242</ele>
        <time>2021-05-08T07:17:43.000Z</time>
      </trkpt>
      <trkpt lat="43.96102" lon="5.05514">
        <ele>86.800003051758</ele>
        <time>2021-05-08T07:17:45.000Z</time>
      </trkpt>
      <trkpt lat="43.96103" lon="5.05518">
        <ele>87.199996948242</ele>
        <time>2021-05-08T07:17:47.000Z</time>
      </trkpt>
      <trkpt lat="43.96106" lon="5.05521">
        <ele>87.800003051758</ele>
        <time>2021-05-08T07:17:50.000Z</time>
      </trkpt>
      <trkpt lat="43.96108" lon="5.05535">
        <ele>88.800003051758</ele>
        <time>2021-05-08T07:17:58.000Z</time>
      </trkpt>
      <trkpt lat="43.96116" lon="5.05551">
        <ele>90</ele>
        <time>2021-05-08T07:18:08.000Z</time>
      </trkpt>
      <trkpt lat="43.96116" lon="5.05557">
        <ele>90.199996948242</ele>
        <time>2021-05-08T07:18:11.000Z</time>
      </trkpt>
      <trkpt lat="43.96118" lon="5.0556">
        <ele>90.599998474121</ele>
        <time>2021-05-08T07:18:14.000Z</time>
      </trkpt>
      <trkpt lat="43.96121" lon="5.05562">
        <ele>91</ele>
        <time>2021-05-08T07:18:18.000Z</time>
      </trkpt>
      <trkpt lat="43.96123" lon="5.05563">
        <ele>91.199996948242</ele>
        <time>2021-05-08T07:18:20.000Z</time>
      </trkpt>
      <trkpt lat="43.96126" lon="5.05564">
        <ele>91.599998474121</ele>
        <time>2021-05-08T07:18:22.000Z</time>
      </trkpt>
      <trkpt lat="43.96128" lon="5.05565">
        <ele>92.199996948242</ele>
        <time>2021-05-08T07:18:24.000Z</time>
      </trkpt>
      <trkpt lat="43.96132" lon="5.0557">
        <ele>92.800003051758</ele>
        <time>2021-05-08T07:18:28.000Z</time>
      </trkpt>
      <trkpt lat="43.96134" lon="5.05574">
        <ele>93.199996948242</ele>
        <time>2021-05-08T07:18:30.000Z</time>
      </trkpt>
      <trkpt lat="43.96134" lon="5.0557">
        <ele>93.599998474121</ele>
        <time>2021-05-08T07:18:35.000Z</time>
      </trkpt>
      <trkpt lat="43.96121" lon="5.05569">
        <ele>92</ele>
        <time>2021-05-08T07:18:45.000Z</time>
      </trkpt>
      <trkpt lat="43.96116" lon="5.05569">
        <ele>91</ele>
        <time>2021-05-08T07:18:48.000Z</time>
      </trkpt>
      <trkpt lat="43.96115" lon="5.05568">
        <ele>90.800003051758</ele>
        <time>2021-05-08T07:18:49.000Z</time>
      </trkpt>
      <trkpt lat="43.96113" lon="5.05566">
        <ele>90.400001525879</ele>
        <time>2021-05-08T07:18:51.000Z</time>
      </trkpt>
      <trkpt lat="43.96111" lon="5.05561">
        <ele>89.800003051758</ele>
        <time>2021-05-08T07:18:54.000Z</time>
      </trkpt>
      <trkpt lat="43.96102" lon="5.05554">
        <ele>88.800003051758</ele>
        <time>2021-05-08T07:19:02.000Z</time>
      </trkpt>
      <trkpt lat="43.961" lon="5.05555">
        <ele>88.400001525879</ele>
        <time>2021-05-08T07:19:03.000Z</time>
      </trkpt>
      <trkpt lat="43.96097" lon="5.0556">
        <ele>87.599998474121</ele>
        <time>2021-05-08T07:19:06.000Z</time>
      </trkpt>
      <trkpt lat="43.96097" lon="5.05561">
        <ele>87.599998474121</ele>
        <time>2021-05-08T07:19:07.000Z</time>
      </trkpt>
      <trkpt lat="43.96094" lon="5.05563">
        <ele>87.199996948242</ele>
        <time>2021-05-08T07:19:10.000Z</time>
      </trkpt>
      <trkpt lat="43.96091" lon="5.05565">
        <ele>86.800003051758</ele>
        <time>2021-05-08T07:19:13.000Z</time>
      </trkpt>
      <trkpt lat="43.96091" lon="5.05567">
        <ele>86.599998474121</ele>
        <time>2021-05-08T07:19:14.000Z</time>
      </trkpt>
      <trkpt lat="43.9609" lon="5.05568">
        <ele>86.599998474121</ele>
        <time>2021-05-08T07:19:15.000Z</time>
      </trkpt>
      <trkpt lat="43.96088" lon="5.05571">
        <ele>86.599998474121</ele>
        <time>2021-05-08T07:19:17.000Z</time>
      </trkpt>
      <trkpt lat="43.96079" lon="5.05583">
        <ele>85.599998474121</ele>
        <time>2021-05-08T07:19:27.000Z</time>
      </trkpt>
      <trkpt lat="43.96078" lon="5.05584">
        <ele>85.599998474121</ele>
        <time>2021-05-08T07:19:28.000Z</time>
      </trkpt>
      <trkpt lat="43.96075" lon="5.05586">
        <ele>85.599998474121</ele>
        <time>2021-05-08T07:19:31.000Z</time>
      </trkpt>
      <trkpt lat="43.96072" lon="5.0559">
        <ele>85.199996948242</ele>
        <time>2021-05-08T07:19:34.000Z</time>
      </trkpt>
      <trkpt lat="43.96069" lon="5.05596">
        <ele>84.199996948242</ele>
        <time>2021-05-08T07:19:36.000Z</time>
      </trkpt>
      <trkpt lat="43.96064" lon="5.05605">
        <ele>83.199996948242</ele>
        <time>2021-05-08T07:19:40.000Z</time>
      </trkpt>
      <trkpt lat="43.96059" lon="5.05613">
        <ele>82.800003051758</ele>
        <time>2021-05-08T07:19:46.000Z</time>
      </trkpt>
      <trkpt lat="43.96059" lon="5.05616">
        <ele>82.800003051758</ele>
        <time>2021-05-08T07:19:48.000Z</time>
      </trkpt>
      <trkpt lat="43.96052" lon="5.05638">
        <ele>81.800003051758</ele>
        <time>2021-05-08T07:20:02.000Z</time>
      </trkpt>
      <trkpt lat="43.9605" lon="5.05646">
        <ele>80.599998474121</ele>
        <time>2021-05-08T07:20:06.000Z</time>
      </trkpt>
      <trkpt lat="43.96049" lon="5.05659">
        <ele>80.400001525879</ele>
        <time>2021-05-08T07:20:12.000Z</time>
      </trkpt>
      <trkpt lat="43.96049" lon="5.05662">
        <ele>80.400001525879</ele>
        <time>2021-05-08T07:20:14.000Z</time>
      </trkpt>
      <trkpt lat="43.96049" lon="5.05664">
        <ele>80.800003051758</ele>
        <time>2021-05-08T07:20:16.000Z</time>
      </trkpt>
      <trkpt lat="43.96049" lon="5.05666">
        <ele>81.199996948242</ele>
        <time>2021-05-08T07:20:18.000Z</time>
      </trkpt>
      <trkpt lat="43.96049" lon="5.05668">
        <ele>81.400001525879</ele>
        <time>2021-05-08T07:20:21.000Z</time>
      </trkpt>
      <trkpt lat="43.9605" lon="5.05672">
        <ele>81.599998474121</ele>
        <time>2021-05-08T07:20:26.000Z</time>
      </trkpt>
      <trkpt lat="43.9605" lon="5.05674">
        <ele>81.800003051758</ele>
        <time>2021-05-08T07:20:27.000Z</time>
      </trkpt>
      <trkpt lat="43.96052" lon="5.0568">
        <ele>82.800003051758</ele>
        <time>2021-05-08T07:20:31.000Z</time>
      </trkpt>
      <trkpt lat="43.96053" lon="5.05683">
        <ele>83.199996948242</ele>
        <time>2021-05-08T07:20:33.000Z</time>
      </trkpt>
      <trkpt lat="43.96054" lon="5.05687">
        <ele>84.199996948242</ele>
        <time>2021-05-08T07:20:36.000Z</time>
      </trkpt>
      <trkpt lat="43.96054" lon="5.05688">
        <ele>84.400001525879</ele>
        <time>2021-05-08T07:20:37.000Z</time>
      </trkpt>
      <trkpt lat="43.96056" lon="5.05689">
        <ele>85</ele>
        <time>2021-05-08T07:20:39.000Z</time>
      </trkpt>
      <trkpt lat="43.96056" lon="5.05688">
        <ele>85.199996948242</ele>
        <time>2021-05-08T07:20:40.000Z</time>
      </trkpt>
      <trkpt lat="43.96051" lon="5.05687">
        <ele>85.400001525879</ele>
        <time>2021-05-08T07:20:48.000Z</time>
      </trkpt>
      <trkpt lat="43.96049" lon="5.05692">
        <ele>85</ele>
        <time>2021-05-08T07:20:52.000Z</time>
      </trkpt>
      <trkpt lat="43.9605" lon="5.05695">
        <ele>84.599998474121</ele>
        <time>2021-05-08T07:20:54.000Z</time>
      </trkpt>
      <trkpt lat="43.9605" lon="5.05699">
        <ele>84.199996948242</ele>
        <time>2021-05-08T07:20:56.000Z</time>
      </trkpt>
      <trkpt lat="43.96051" lon="5.05707">
        <ele>84</ele>
        <time>2021-05-08T07:21:00.000Z</time>
      </trkpt>
      <trkpt lat="43.96048" lon="5.05733">
        <ele>83.599998474121</ele>
        <time>2021-05-08T07:21:13.000Z</time>
      </trkpt>
      <trkpt lat="43.96049" lon="5.0574">
        <ele>83.400001525879</ele>
        <time>2021-05-08T07:21:17.000Z</time>
      </trkpt>
      <trkpt lat="43.96051" lon="5.05743">
        <ele>83.199996948242</ele>
        <time>2021-05-08T07:21:19.000Z</time>
      </trkpt>
      <trkpt lat="43.96051" lon="5.05746">
        <ele>83</ele>
        <time>2021-05-08T07:21:21.000Z</time>
      </trkpt>
      <trkpt lat="43.96051" lon="5.05748">
        <ele>83</ele>
        <time>2021-05-08T07:21:22.000Z</time>
      </trkpt>
      <trkpt lat="43.96051" lon="5.05765">
        <ele>83.199996948242</ele>
        <time>2021-05-08T07:21:29.000Z</time>
      </trkpt>
      <trkpt lat="43.96052" lon="5.05772">
        <ele>83.199996948242</ele>
        <time>2021-05-08T07:21:32.000Z</time>
      </trkpt>
      <trkpt lat="43.96067" lon="5.05786">
        <ele>83.599998474121</ele>
        <time>2021-05-08T07:21:43.000Z</time>
      </trkpt>
      <trkpt lat="43.96069" lon="5.05788">
        <ele>83.599998474121</ele>
        <time>2021-05-08T07:21:45.000Z</time>
      </trkpt>
      <trkpt lat="43.9607" lon="5.05791">
        <ele>83.800003051758</ele>
        <time>2021-05-08T07:21:47.000Z</time>
      </trkpt>
      <trkpt lat="43.96061" lon="5.058">
        <ele>83.199996948242</ele>
        <time>2021-05-08T07:21:57.000Z</time>
      </trkpt>
      <trkpt lat="43.96058" lon="5.058">
        <ele>83.199996948242</ele>
        <time>2021-05-08T07:21:59.000Z</time>
      </trkpt>
      <trkpt lat="43.96053" lon="5.05801">
        <ele>83</ele>
        <time>2021-05-08T07:22:03.000Z</time>
      </trkpt>
      <trkpt lat="43.96057" lon="5.05802">
        <ele>82.599998474121</ele>
        <time>2021-05-08T07:22:20.000Z</time>
      </trkpt>
      <trkpt lat="43.96062" lon="5.05813">
        <ele>84.199996948242</ele>
        <time>2021-05-08T07:22:28.000Z</time>
      </trkpt>
      <trkpt lat="43.96062" lon="5.05815">
        <ele>84.400001525879</ele>
        <time>2021-05-08T07:22:29.000Z</time>
      </trkpt>
      <trkpt lat="43.96064" lon="5.05825">
        <ele>85.400001525879</ele>
        <time>2021-05-08T07:22:34.000Z</time>
      </trkpt>
      <trkpt lat="43.96064" lon="5.05827">
        <ele>85.800003051758</ele>
        <time>2021-05-08T07:22:35.000Z</time>
      </trkpt>
      <trkpt lat="43.96066" lon="5.0583">
        <ele>86.400001525879</ele>
        <time>2021-05-08T07:22:37.000Z</time>
      </trkpt>
      <trkpt lat="43.96065" lon="5.05838">
        <ele>87.199996948242</ele>
        <time>2021-05-08T07:22:41.000Z</time>
      </trkpt>
      <trkpt lat="43.96065" lon="5.05841">
        <ele>87.400001525879</ele>
        <time>2021-05-08T07:22:43.000Z</time>
      </trkpt>
      <trkpt lat="43.96065" lon="5.05845">
        <ele>87.800003051758</ele>
        <time>2021-05-08T07:22:45.000Z</time>
      </trkpt>
      <trkpt lat="43.96062" lon="5.05847">
        <ele>87.800003051758</ele>
        <time>2021-05-08T07:22:47.000Z</time>
      </trkpt>
      <trkpt lat="43.96059" lon="5.0585">
        <ele>87.800003051758</ele>
        <time>2021-05-08T07:22:59.000Z</time>
      </trkpt>
      <trkpt lat="43.9606" lon="5.05854">
        <ele>88</ele>
        <time>2021-05-08T07:23:01.000Z</time>
      </trkpt>
      <trkpt lat="43.96059" lon="5.0586">
        <ele>88.599998474121</ele>
        <time>2021-05-08T07:23:04.000Z</time>
      </trkpt>
      <trkpt lat="43.9606" lon="5.05862">
        <ele>88.800003051758</ele>
        <time>2021-05-08T07:23:05.000Z</time>
      </trkpt>
      <trkpt lat="43.9606" lon="5.05872">
        <ele>89.599998474121</ele>
        <time>2021-05-08T07:23:10.000Z</time>
      </trkpt>
      <trkpt lat="43.96062" lon="5.05893">
        <ele>90.800003051758</ele>
        <time>2021-05-08T07:23:20.000Z</time>
      </trkpt>
      <trkpt lat="43.9606" lon="5.05903">
        <ele>91.400001525879</ele>
        <time>2021-05-08T07:23:25.000Z</time>
      </trkpt>
      <trkpt lat="43.96061" lon="5.05909">
        <ele>91.800003051758</ele>
        <time>2021-05-08T07:23:28.000Z</time>
      </trkpt>
      <trkpt lat="43.9606" lon="5.05918">
        <ele>92.400001525879</ele>
        <time>2021-05-08T07:23:32.000Z</time>
      </trkpt>
      <trkpt lat="43.96061" lon="5.05923">
        <ele>92.800003051758</ele>
        <time>2021-05-08T07:23:35.000Z</time>
      </trkpt>
      <trkpt lat="43.96062" lon="5.05932">
        <ele>94</ele>
        <time>2021-05-08T07:23:40.000Z</time>
      </trkpt>
      <trkpt lat="43.96067" lon="5.05945">
        <ele>95.199996948242</ele>
        <time>2021-05-08T07:23:47.000Z</time>
      </trkpt>
      <trkpt lat="43.96073" lon="5.05957">
        <ele>96.199996948242</ele>
        <time>2021-05-08T07:23:54.000Z</time>
      </trkpt>
      <trkpt lat="43.96078" lon="5.05966">
        <ele>97.400001525879</ele>
        <time>2021-05-08T07:24:00.000Z</time>
      </trkpt>
      <trkpt lat="43.96082" lon="5.05974">
        <ele>98.599998474121</ele>
        <time>2021-05-08T07:24:07.000Z</time>
      </trkpt>
      <trkpt lat="43.96083" lon="5.05976">
        <ele>99</ele>
        <time>2021-05-08T07:24:09.000Z</time>
      </trkpt>
      <trkpt lat="43.96085" lon="5.05981">
        <ele>99.800003051758</ele>
        <time>2021-05-08T07:24:12.000Z</time>
      </trkpt>
      <trkpt lat="43.96087" lon="5.05986">
        <ele>100.80000305176</ele>
        <time>2021-05-08T07:24:16.000Z</time>
      </trkpt>
      <trkpt lat="43.9609" lon="5.05992">
        <ele>102</ele>
        <time>2021-05-08T07:24:20.000Z</time>
      </trkpt>
      <trkpt lat="43.96092" lon="5.06004">
        <ele>103</ele>
        <time>2021-05-08T07:24:26.000Z</time>
      </trkpt>
      <trkpt lat="43.96092" lon="5.06006">
        <ele>103.19999694824</ele>
        <time>2021-05-08T07:24:27.000Z</time>
      </trkpt>
      <trkpt lat="43.96093" lon="5.06014">
        <ele>103.80000305176</ele>
        <time>2021-05-08T07:24:31.000Z</time>
      </trkpt>
      <trkpt lat="43.96092" lon="5.06016">
        <ele>104.19999694824</ele>
        <time>2021-05-08T07:24:32.000Z</time>
      </trkpt>
      <trkpt lat="43.96092" lon="5.0602">
        <ele>104.59999847412</ele>
        <time>2021-05-08T07:24:34.000Z</time>
      </trkpt>
      <trkpt lat="43.96093" lon="5.06024">
        <ele>105.19999694824</ele>
        <time>2021-05-08T07:24:37.000Z</time>
      </trkpt>
      <trkpt lat="43.96094" lon="5.06029">
        <ele>105.80000305176</ele>
        <time>2021-05-08T07:24:39.000Z</time>
      </trkpt>
      <trkpt lat="43.96096" lon="5.06035">
        <ele>106.40000152588</ele>
        <time>2021-05-08T07:24:42.000Z</time>
      </trkpt>
      <trkpt lat="43.96096" lon="5.0604">
        <ele>106.80000305176</ele>
        <time>2021-05-08T07:24:45.000Z</time>
      </trkpt>
      <trkpt lat="43.96097" lon="5.06045">
        <ele>107.40000152588</ele>
        <time>2021-05-08T07:24:48.000Z</time>
      </trkpt>
      <trkpt lat="43.96099" lon="5.06055">
        <ele>108.59999847412</ele>
        <time>2021-05-08T07:24:53.000Z</time>
      </trkpt>
      <trkpt lat="43.96102" lon="5.0606">
        <ele>109.19999694824</ele>
        <time>2021-05-08T07:24:57.000Z</time>
      </trkpt>
      <trkpt lat="43.96105" lon="5.06066">
        <ele>109.59999847412</ele>
        <time>2021-05-08T07:25:01.000Z</time>
      </trkpt>
      <trkpt lat="43.96109" lon="5.06072">
        <ele>110.80000305176</ele>
        <time>2021-05-08T07:25:06.000Z</time>
      </trkpt>
      <trkpt lat="43.96115" lon="5.06076">
        <ele>111.80000305176</ele>
        <time>2021-05-08T07:25:11.000Z</time>
      </trkpt>
      <trkpt lat="43.96118" lon="5.06079">
        <ele>112.40000152588</ele>
        <time>2021-05-08T07:25:14.000Z</time>
      </trkpt>
      <trkpt lat="43.96119" lon="5.06082">
        <ele>112.80000305176</ele>
        <time>2021-05-08T07:25:16.000Z</time>
      </trkpt>
      <trkpt lat="43.96124" lon="5.06088">
        <ele>113.80000305176</ele>
        <time>2021-05-08T07:25:21.000Z</time>
      </trkpt>
      <trkpt lat="43.96133" lon="5.06096">
        <ele>114.80000305176</ele>
        <time>2021-05-08T07:25:28.000Z</time>
      </trkpt>
      <trkpt lat="43.96141" lon="5.06095">
        <ele>116</ele>
        <time>2021-05-08T07:25:34.000Z</time>
      </trkpt>
      <trkpt lat="43.9615" lon="5.06094">
        <ele>116.59999847412</ele>
        <time>2021-05-08T07:25:40.000Z</time>
      </trkpt>
      <trkpt lat="43.96162" lon="5.06085">
        <ele>117</ele>
        <time>2021-05-08T07:25:51.000Z</time>
      </trkpt>
      <trkpt lat="43.96173" lon="5.06079">
        <ele>117.19999694824</ele>
        <time>2021-05-08T07:26:01.000Z</time>
      </trkpt>
      <trkpt lat="43.96174" lon="5.0608">
        <ele>117.19999694824</ele>
        <time>2021-05-08T07:26:03.000Z</time>
      </trkpt>
      <trkpt lat="43.96184" lon="5.06087">
        <ele>118</ele>
        <time>2021-05-08T07:26:10.000Z</time>
      </trkpt>
      <trkpt lat="43.96191" lon="5.06098">
        <ele>119.19999694824</ele>
        <time>2021-05-08T07:26:17.000Z</time>
      </trkpt>
      <trkpt lat="43.96197" lon="5.06109">
        <ele>120.40000152588</ele>
        <time>2021-05-08T07:26:24.000Z</time>
      </trkpt>
      <trkpt lat="43.962" lon="5.06115">
        <ele>121.19999694824</ele>
        <time>2021-05-08T07:26:27.000Z</time>
      </trkpt>
      <trkpt lat="43.962" lon="5.06116">
        <ele>121.59999847412</ele>
        <time>2021-05-08T07:26:28.000Z</time>
      </trkpt>
      <trkpt lat="43.96205" lon="5.06118">
        <ele>122.59999847412</ele>
        <time>2021-05-08T07:26:33.000Z</time>
      </trkpt>
      <trkpt lat="43.96207" lon="5.06119">
        <ele>122.80000305176</ele>
        <time>2021-05-08T07:26:35.000Z</time>
      </trkpt>
      <trkpt lat="43.96209" lon="5.06124">
        <ele>123.40000152588</ele>
        <time>2021-05-08T07:26:38.000Z</time>
      </trkpt>
      <trkpt lat="43.9621" lon="5.06126">
        <ele>123.59999847412</ele>
        <time>2021-05-08T07:26:39.000Z</time>
      </trkpt>
      <trkpt lat="43.96214" lon="5.06132">
        <ele>124.59999847412</ele>
        <time>2021-05-08T07:26:43.000Z</time>
      </trkpt>
      <trkpt lat="43.96216" lon="5.06136">
        <ele>125.19999694824</ele>
        <time>2021-05-08T07:26:47.000Z</time>
      </trkpt>
      <trkpt lat="43.96219" lon="5.06136">
        <ele>125.59999847412</ele>
        <time>2021-05-08T07:26:50.000Z</time>
      </trkpt>
      <trkpt lat="43.96221" lon="5.06137">
        <ele>126</ele>
        <time>2021-05-08T07:26:51.000Z</time>
      </trkpt>
      <trkpt lat="43.96224" lon="5.06138">
        <ele>126.19999694824</ele>
        <time>2021-05-08T07:26:53.000Z</time>
      </trkpt>
      <trkpt lat="43.96227" lon="5.06139">
        <ele>126.80000305176</ele>
        <time>2021-05-08T07:26:56.000Z</time>
      </trkpt>
      <trkpt lat="43.9623" lon="5.06141">
        <ele>127</ele>
        <time>2021-05-08T07:26:59.000Z</time>
      </trkpt>
      <trkpt lat="43.96233" lon="5.06146">
        <ele>128</ele>
        <time>2021-05-08T07:27:03.000Z</time>
      </trkpt>
      <trkpt lat="43.96234" lon="5.06156">
        <ele>129</ele>
        <time>2021-05-08T07:27:08.000Z</time>
      </trkpt>
      <trkpt lat="43.96233" lon="5.0616">
        <ele>129.19999694824</ele>
        <time>2021-05-08T07:27:11.000Z</time>
      </trkpt>
      <trkpt lat="43.96232" lon="5.06164">
        <ele>129.39999389648</ele>
        <time>2021-05-08T07:27:13.000Z</time>
      </trkpt>
      <trkpt lat="43.96232" lon="5.06172">
        <ele>129.60000610352</ele>
        <time>2021-05-08T07:27:17.000Z</time>
      </trkpt>
      <trkpt lat="43.96238" lon="5.06182">
        <ele>130</ele>
        <time>2021-05-08T07:27:22.000Z</time>
      </trkpt>
      <trkpt lat="43.96245" lon="5.06189">
        <ele>131</ele>
        <time>2021-05-08T07:27:28.000Z</time>
      </trkpt>
      <trkpt lat="43.96251" lon="5.06193">
        <ele>132</ele>
        <time>2021-05-08T07:27:36.000Z</time>
      </trkpt>
      <trkpt lat="43.96249" lon="5.06194">
        <ele>132.19999694824</ele>
        <time>2021-05-08T07:27:41.000Z</time>
      </trkpt>
      <trkpt lat="43.96252" lon="5.06204">
        <ele>132.60000610352</ele>
        <time>2021-05-08T07:28:16.000Z</time>
      </trkpt>
      <trkpt lat="43.96256" lon="5.06208">
        <ele>133.19999694824</ele>
        <time>2021-05-08T07:28:19.000Z</time>
      </trkpt>
      <trkpt lat="43.96266" lon="5.06217">
        <ele>134.60000610352</ele>
        <time>2021-05-08T07:28:27.000Z</time>
      </trkpt>
      <trkpt lat="43.96267" lon="5.06218">
        <ele>134.80000305176</ele>
        <time>2021-05-08T07:28:28.000Z</time>
      </trkpt>
      <trkpt lat="43.96272" lon="5.06228">
        <ele>135.60000610352</ele>
        <time>2021-05-08T07:28:34.000Z</time>
      </trkpt>
      <trkpt lat="43.96273" lon="5.06229">
        <ele>135.60000610352</ele>
        <time>2021-05-08T07:28:35.000Z</time>
      </trkpt>
      <trkpt lat="43.96279" lon="5.0624">
        <ele>136.60000610352</ele>
        <time>2021-05-08T07:28:42.000Z</time>
      </trkpt>
      <trkpt lat="43.96284" lon="5.06246">
        <ele>137</ele>
        <time>2021-05-08T07:28:46.000Z</time>
      </trkpt>
      <trkpt lat="43.9629" lon="5.06252">
        <ele>137.60000610352</ele>
        <time>2021-05-08T07:28:51.000Z</time>
      </trkpt>
      <trkpt lat="43.96303" lon="5.06262">
        <ele>138.39999389648</ele>
        <time>2021-05-08T07:29:02.000Z</time>
      </trkpt>
      <trkpt lat="43.96305" lon="5.06263">
        <ele>138.60000610352</ele>
        <time>2021-05-08T07:29:04.000Z</time>
      </trkpt>
      <trkpt lat="43.96306" lon="5.06265">
        <ele>138.80000305176</ele>
        <time>2021-05-08T07:29:05.000Z</time>
      </trkpt>
      <trkpt lat="43.96316" lon="5.06276">
        <ele>139.80000305176</ele>
        <time>2021-05-08T07:29:13.000Z</time>
      </trkpt>
      <trkpt lat="43.96317" lon="5.06277">
        <ele>140</ele>
        <time>2021-05-08T07:29:14.000Z</time>
      </trkpt>
      <trkpt lat="43.9632" lon="5.06281">
        <ele>140.19999694824</ele>
        <time>2021-05-08T07:29:17.000Z</time>
      </trkpt>
      <trkpt lat="43.96323" lon="5.06282">
        <ele>140.80000305176</ele>
        <time>2021-05-08T07:29:20.000Z</time>
      </trkpt>
      <trkpt lat="43.9633" lon="5.06295">
        <ele>142</ele>
        <time>2021-05-08T07:29:28.000Z</time>
      </trkpt>
      <trkpt lat="43.96337" lon="5.06304">
        <ele>143.19999694824</ele>
        <time>2021-05-08T07:29:36.000Z</time>
      </trkpt>
      <trkpt lat="43.96347" lon="5.06311">
        <ele>144.19999694824</ele>
        <time>2021-05-08T07:29:41.000Z</time>
      </trkpt>
      <trkpt lat="43.96351" lon="5.06312">
        <ele>144.60000610352</ele>
        <time>2021-05-08T07:29:43.000Z</time>
      </trkpt>
      <trkpt lat="43.96358" lon="5.06314">
        <ele>145.39999389648</ele>
        <time>2021-05-08T07:29:47.000Z</time>
      </trkpt>
      <trkpt lat="43.96372" lon="5.06314">
        <ele>146.39999389648</ele>
        <time>2021-05-08T07:29:55.000Z</time>
      </trkpt>
      <trkpt lat="43.96388" lon="5.06319">
        <ele>147.39999389648</ele>
        <time>2021-05-08T07:30:02.000Z</time>
      </trkpt>
      <trkpt lat="43.96394" lon="5.06331">
        <ele>148.60000610352</ele>
        <time>2021-05-08T07:30:09.000Z</time>
      </trkpt>
      <trkpt lat="43.96397" lon="5.06339">
        <ele>149.19999694824</ele>
        <time>2021-05-08T07:30:14.000Z</time>
      </trkpt>
      <trkpt lat="43.96396" lon="5.06341">
        <ele>149.60000610352</ele>
        <time>2021-05-08T07:30:15.000Z</time>
      </trkpt>
      <trkpt lat="43.96397" lon="5.06355">
        <ele>150.80000305176</ele>
        <time>2021-05-08T07:30:21.000Z</time>
      </trkpt>
      <trkpt lat="43.96397" lon="5.06363">
        <ele>151.60000610352</ele>
        <time>2021-05-08T07:30:25.000Z</time>
      </trkpt>
      <trkpt lat="43.96398" lon="5.06366">
        <ele>151.80000305176</ele>
        <time>2021-05-08T07:30:27.000Z</time>
      </trkpt>
      <trkpt lat="43.964" lon="5.06385">
        <ele>152.80000305176</ele>
        <time>2021-05-08T07:30:36.000Z</time>
      </trkpt>
      <trkpt lat="43.96401" lon="5.06389">
        <ele>153.19999694824</ele>
        <time>2021-05-08T07:30:39.000Z</time>
      </trkpt>
      <trkpt lat="43.96402" lon="5.06392">
        <ele>153.39999389648</ele>
        <time>2021-05-08T07:30:41.000Z</time>
      </trkpt>
      <trkpt lat="43.96403" lon="5.06395">
        <ele>153.60000610352</ele>
        <time>2021-05-08T07:30:43.000Z</time>
      </trkpt>
      <trkpt lat="43.96403" lon="5.06399">
        <ele>154</ele>
        <time>2021-05-08T07:30:45.000Z</time>
      </trkpt>
      <trkpt lat="43.96404" lon="5.0641">
        <ele>154.80000305176</ele>
        <time>2021-05-08T07:30:51.000Z</time>
      </trkpt>
      <trkpt lat="43.96402" lon="5.06419">
        <ele>155</ele>
        <time>2021-05-08T07:30:55.000Z</time>
      </trkpt>
      <trkpt lat="43.96394" lon="5.06439">
        <ele>155</ele>
        <time>2021-05-08T07:31:07.000Z</time>
      </trkpt>
      <trkpt lat="43.96397" lon="5.06446">
        <ele>155.19999694824</ele>
        <time>2021-05-08T07:31:11.000Z</time>
      </trkpt>
      <trkpt lat="43.96403" lon="5.06457">
        <ele>156.19999694824</ele>
        <time>2021-05-08T07:31:19.000Z</time>
      </trkpt>
      <trkpt lat="43.96412" lon="5.0647">
        <ele>157</ele>
        <time>2021-05-08T07:31:29.000Z</time>
      </trkpt>
      <trkpt lat="43.96416" lon="5.06478">
        <ele>156.80000305176</ele>
        <time>2021-05-08T07:31:34.000Z</time>
      </trkpt>
      <trkpt lat="43.96416" lon="5.0648">
        <ele>156.60000610352</ele>
        <time>2021-05-08T07:31:36.000Z</time>
      </trkpt>
      <trkpt lat="43.96418" lon="5.0648">
        <ele>156.60000610352</ele>
        <time>2021-05-08T07:31:40.000Z</time>
      </trkpt>
      <trkpt lat="43.9642" lon="5.06479">
        <ele>156.80000305176</ele>
        <time>2021-05-08T07:31:42.000Z</time>
      </trkpt>
      <trkpt lat="43.96419" lon="5.0648">
        <ele>156.80000305176</ele>
        <time>2021-05-08T07:31:44.000Z</time>
      </trkpt>
      <trkpt lat="43.96422" lon="5.0648">
        <ele>156.80000305176</ele>
        <time>2021-05-08T07:31:50.000Z</time>
      </trkpt>
      <trkpt lat="43.96426" lon="5.06485">
        <ele>156.60000610352</ele>
        <time>2021-05-08T07:31:59.000Z</time>
      </trkpt>
      <trkpt lat="43.96427" lon="5.06488">
        <ele>156.60000610352</ele>
        <time>2021-05-08T07:32:02.000Z</time>
      </trkpt>
      <trkpt lat="43.96424" lon="5.06516">
        <ele>155.80000305176</ele>
        <time>2021-05-08T07:32:17.000Z</time>
      </trkpt>
      <trkpt lat="43.96424" lon="5.06518">
        <ele>155.60000610352</ele>
        <time>2021-05-08T07:32:18.000Z</time>
      </trkpt>
      <trkpt lat="43.96424" lon="5.0652">
        <ele>155.60000610352</ele>
        <time>2021-05-08T07:32:19.000Z</time>
      </trkpt>
      <trkpt lat="43.96424" lon="5.06534">
        <ele>155</ele>
        <time>2021-05-08T07:32:25.000Z</time>
      </trkpt>
      <trkpt lat="43.96423" lon="5.06544">
        <ele>154</ele>
        <time>2021-05-08T07:32:30.000Z</time>
      </trkpt>
      <trkpt lat="43.96414" lon="5.06563">
        <ele>154.39999389648</ele>
        <time>2021-05-08T07:32:41.000Z</time>
      </trkpt>
      <trkpt lat="43.96414" lon="5.06567">
        <ele>154.60000610352</ele>
        <time>2021-05-08T07:32:43.000Z</time>
      </trkpt>
      <trkpt lat="43.96414" lon="5.06572">
        <ele>154.60000610352</ele>
        <time>2021-05-08T07:32:45.000Z</time>
      </trkpt>
      <trkpt lat="43.9641" lon="5.06586">
        <ele>155</ele>
        <time>2021-05-08T07:32:50.000Z</time>
      </trkpt>
      <trkpt lat="43.96407" lon="5.06596">
        <ele>155.39999389648</ele>
        <time>2021-05-08T07:32:54.000Z</time>
      </trkpt>
      <trkpt lat="43.96408" lon="5.06599">
        <ele>155.19999694824</ele>
        <time>2021-05-08T07:32:56.000Z</time>
      </trkpt>
      <trkpt lat="43.96413" lon="5.06607">
        <ele>155.19999694824</ele>
        <time>2021-05-08T07:33:01.000Z</time>
      </trkpt>
      <trkpt lat="43.96416" lon="5.06632">
        <ele>155.80000305176</ele>
        <time>2021-05-08T07:33:13.000Z</time>
      </trkpt>
      <trkpt lat="43.96416" lon="5.06639">
        <ele>156.19999694824</ele>
        <time>2021-05-08T07:33:16.000Z</time>
      </trkpt>
      <trkpt lat="43.96428" lon="5.06659">
        <ele>157</ele>
        <time>2021-05-08T07:33:27.000Z</time>
      </trkpt>
      <trkpt lat="43.96444" lon="5.06673">
        <ele>157.19999694824</ele>
        <time>2021-05-08T07:33:36.000Z</time>
      </trkpt>
      <trkpt lat="43.96449" lon="5.06691">
        <ele>158</ele>
        <time>2021-05-08T07:33:45.000Z</time>
      </trkpt>
      <trkpt lat="43.9645" lon="5.06693">
        <ele>158.19999694824</ele>
        <time>2021-05-08T07:33:46.000Z</time>
      </trkpt>
      <trkpt lat="43.96451" lon="5.06709">
        <ele>159.39999389648</ele>
        <time>2021-05-08T07:33:54.000Z</time>
      </trkpt>
      <trkpt lat="43.96455" lon="5.06717">
        <ele>160.39999389648</ele>
        <time>2021-05-08T07:33:59.000Z</time>
      </trkpt>
      <trkpt lat="43.96458" lon="5.06728">
        <ele>161.39999389648</ele>
        <time>2021-05-08T07:34:05.000Z</time>
      </trkpt>
      <trkpt lat="43.96463" lon="5.06737">
        <ele>162.60000610352</ele>
        <time>2021-05-08T07:34:11.000Z</time>
      </trkpt>
      <trkpt lat="43.96465" lon="5.06745">
        <ele>163.60000610352</ele>
        <time>2021-05-08T07:34:15.000Z</time>
      </trkpt>
      <trkpt lat="43.96473" lon="5.06757">
        <ele>164.60000610352</ele>
        <time>2021-05-08T07:34:22.000Z</time>
      </trkpt>
      <trkpt lat="43.96479" lon="5.06772">
        <ele>165.60000610352</ele>
        <time>2021-05-08T07:34:30.000Z</time>
      </trkpt>
      <trkpt lat="43.96481" lon="5.06782">
        <ele>166.39999389648</ele>
        <time>2021-05-08T07:34:36.000Z</time>
      </trkpt>
      <trkpt lat="43.96483" lon="5.06785">
        <ele>166.60000610352</ele>
        <time>2021-05-08T07:34:38.000Z</time>
      </trkpt>
      <trkpt lat="43.96484" lon="5.06788">
        <ele>166.80000305176</ele>
        <time>2021-05-08T07:34:39.000Z</time>
      </trkpt>
      <trkpt lat="43.96482" lon="5.06797">
        <ele>167.80000305176</ele>
        <time>2021-05-08T07:34:44.000Z</time>
      </trkpt>
      <trkpt lat="43.96476" lon="5.0681">
        <ele>168.80000305176</ele>
        <time>2021-05-08T07:34:52.000Z</time>
      </trkpt>
      <trkpt lat="43.96469" lon="5.06823">
        <ele>169.39999389648</ele>
        <time>2021-05-08T07:34:59.000Z</time>
      </trkpt>
      <trkpt lat="43.96468" lon="5.06833">
        <ele>169.19999694824</ele>
        <time>2021-05-08T07:35:04.000Z</time>
      </trkpt>
      <trkpt lat="43.96473" lon="5.06857">
        <ele>168.19999694824</ele>
        <time>2021-05-08T07:35:16.000Z</time>
      </trkpt>
      <trkpt lat="43.96489" lon="5.0687">
        <ele>168.39999389648</ele>
        <time>2021-05-08T07:35:28.000Z</time>
      </trkpt>
      <trkpt lat="43.96507" lon="5.06875">
        <ele>169.39999389648</ele>
        <time>2021-05-08T07:35:42.000Z</time>
      </trkpt>
      <trkpt lat="43.96527" lon="5.06873">
        <ele>168.80000305176</ele>
        <time>2021-05-08T07:35:57.000Z</time>
      </trkpt>
      <trkpt lat="43.96545" lon="5.06872">
        <ele>168.39999389648</ele>
        <time>2021-05-08T07:36:10.000Z</time>
      </trkpt>
      <trkpt lat="43.96563" lon="5.06874">
        <ele>168.80000305176</ele>
        <time>2021-05-08T07:36:22.000Z</time>
      </trkpt>
      <trkpt lat="43.96583" lon="5.06874">
        <ele>169.39999389648</ele>
        <time>2021-05-08T07:36:36.000Z</time>
      </trkpt>
      <trkpt lat="43.96601" lon="5.06883">
        <ele>168.80000305176</ele>
        <time>2021-05-08T07:36:49.000Z</time>
      </trkpt>
      <trkpt lat="43.96605" lon="5.06885">
        <ele>168</ele>
        <time>2021-05-08T07:36:53.000Z</time>
      </trkpt>
      <trkpt lat="43.96606" lon="5.06886">
        <ele>167.80000305176</ele>
        <time>2021-05-08T07:36:55.000Z</time>
      </trkpt>
      <trkpt lat="43.96611" lon="5.06887">
        <ele>166.60000610352</ele>
        <time>2021-05-08T07:36:59.000Z</time>
      </trkpt>
      <trkpt lat="43.96617" lon="5.06891">
        <ele>165.60000610352</ele>
        <time>2021-05-08T07:37:04.000Z</time>
      </trkpt>
      <trkpt lat="43.96629" lon="5.06895">
        <ele>164.60000610352</ele>
        <time>2021-05-08T07:37:10.000Z</time>
      </trkpt>
      <trkpt lat="43.96635" lon="5.06894">
        <ele>163.19999694824</ele>
        <time>2021-05-08T07:37:14.000Z</time>
      </trkpt>
      <trkpt lat="43.96638" lon="5.06896">
        <ele>162.19999694824</ele>
        <time>2021-05-08T07:37:17.000Z</time>
      </trkpt>
      <trkpt lat="43.96648" lon="5.06904">
        <ele>161</ele>
        <time>2021-05-08T07:37:24.000Z</time>
      </trkpt>
      <trkpt lat="43.96661" lon="5.06913">
        <ele>159.80000305176</ele>
        <time>2021-05-08T07:37:31.000Z</time>
      </trkpt>
      <trkpt lat="43.96663" lon="5.06916">
        <ele>158.80000305176</ele>
        <time>2021-05-08T07:37:34.000Z</time>
      </trkpt>
      <trkpt lat="43.9667" lon="5.06922">
        <ele>157.80000305176</ele>
        <time>2021-05-08T07:37:39.000Z</time>
      </trkpt>
      <trkpt lat="43.96681" lon="5.06928">
        <ele>156.60000610352</ele>
        <time>2021-05-08T07:37:46.000Z</time>
      </trkpt>
      <trkpt lat="43.96688" lon="5.06934">
        <ele>155.80000305176</ele>
        <time>2021-05-08T07:37:51.000Z</time>
      </trkpt>
      <trkpt lat="43.9669" lon="5.06937">
        <ele>155.39999389648</ele>
        <time>2021-05-08T07:37:53.000Z</time>
      </trkpt>
      <trkpt lat="43.96696" lon="5.06943">
        <ele>154.39999389648</ele>
        <time>2021-05-08T07:37:58.000Z</time>
      </trkpt>
      <trkpt lat="43.96701" lon="5.06945">
        <ele>154.19999694824</ele>
        <time>2021-05-08T07:38:00.000Z</time>
      </trkpt>
      <trkpt lat="43.96707" lon="5.06948">
        <ele>153.60000610352</ele>
        <time>2021-05-08T07:38:05.000Z</time>
      </trkpt>
      <trkpt lat="43.96709" lon="5.06947">
        <ele>153.19999694824</ele>
        <time>2021-05-08T07:38:07.000Z</time>
      </trkpt>
      <trkpt lat="43.96712" lon="5.06944">
        <ele>152</ele>
        <time>2021-05-08T07:38:11.000Z</time>
      </trkpt>
      <trkpt lat="43.96713" lon="5.06942">
        <ele>151.39999389648</ele>
        <time>2021-05-08T07:38:13.000Z</time>
      </trkpt>
      <trkpt lat="43.96714" lon="5.06941">
        <ele>151</ele>
        <time>2021-05-08T07:38:14.000Z</time>
      </trkpt>
      <trkpt lat="43.96715" lon="5.06939">
        <ele>149.60000610352</ele>
        <time>2021-05-08T07:38:17.000Z</time>
      </trkpt>
      <trkpt lat="43.96718" lon="5.06935">
        <ele>148.39999389648</ele>
        <time>2021-05-08T07:38:20.000Z</time>
      </trkpt>
      <trkpt lat="43.96721" lon="5.0693">
        <ele>147.19999694824</ele>
        <time>2021-05-08T07:38:24.000Z</time>
      </trkpt>
      <trkpt lat="43.96722" lon="5.06925">
        <ele>146.60000610352</ele>
        <time>2021-05-08T07:38:27.000Z</time>
      </trkpt>
      <trkpt lat="43.96723" lon="5.06921">
        <ele>146</ele>
        <time>2021-05-08T07:38:29.000Z</time>
      </trkpt>
      <trkpt lat="43.96732" lon="5.069">
        <ele>145.19999694824</ele>
        <time>2021-05-08T07:38:40.000Z</time>
      </trkpt>
      <trkpt lat="43.96737" lon="5.0689">
        <ele>145</ele>
        <time>2021-05-08T07:38:45.000Z</time>
      </trkpt>
      <trkpt lat="43.96741" lon="5.06875">
        <ele>145</ele>
        <time>2021-05-08T07:38:53.000Z</time>
      </trkpt>
      <trkpt lat="43.96744" lon="5.06866">
        <ele>145.19999694824</ele>
        <time>2021-05-08T07:38:58.000Z</time>
      </trkpt>
      <trkpt lat="43.96755" lon="5.06849">
        <ele>146</ele>
        <time>2021-05-08T07:39:07.000Z</time>
      </trkpt>
      <trkpt lat="43.96756" lon="5.06847">
        <ele>146</ele>
        <time>2021-05-08T07:39:08.000Z</time>
      </trkpt>
      <trkpt lat="43.96763" lon="5.06843">
        <ele>147</ele>
        <time>2021-05-08T07:39:15.000Z</time>
      </trkpt>
      <trkpt lat="43.96764" lon="5.06843">
        <ele>147.19999694824</ele>
        <time>2021-05-08T07:39:16.000Z</time>
      </trkpt>
      <trkpt lat="43.96767" lon="5.06843">
        <ele>147.19999694824</ele>
        <time>2021-05-08T07:39:18.000Z</time>
      </trkpt>
      <trkpt lat="43.96769" lon="5.06844">
        <ele>146.80000305176</ele>
        <time>2021-05-08T07:39:20.000Z</time>
      </trkpt>
      <trkpt lat="43.96772" lon="5.06847">
        <ele>146.60000610352</ele>
        <time>2021-05-08T07:39:23.000Z</time>
      </trkpt>
      <trkpt lat="43.96784" lon="5.06849">
        <ele>146</ele>
        <time>2021-05-08T07:39:30.000Z</time>
      </trkpt>
      <trkpt lat="43.9679" lon="5.0685">
        <ele>146</ele>
        <time>2021-05-08T07:39:33.000Z</time>
      </trkpt>
      <trkpt lat="43.96796" lon="5.0685">
        <ele>146.39999389648</ele>
        <time>2021-05-08T07:39:38.000Z</time>
      </trkpt>
      <trkpt lat="43.96802" lon="5.06857">
        <ele>146.39999389648</ele>
        <time>2021-05-08T07:39:43.000Z</time>
      </trkpt>
      <trkpt lat="43.96818" lon="5.06867">
        <ele>145.19999694824</ele>
        <time>2021-05-08T07:39:53.000Z</time>
      </trkpt>
      <trkpt lat="43.96819" lon="5.06868">
        <ele>145</ele>
        <time>2021-05-08T07:39:54.000Z</time>
      </trkpt>
      <trkpt lat="43.96835" lon="5.0688">
        <ele>144</ele>
        <time>2021-05-08T07:40:07.000Z</time>
      </trkpt>
      <trkpt lat="43.9684" lon="5.0688">
        <ele>143.39999389648</ele>
        <time>2021-05-08T07:40:10.000Z</time>
      </trkpt>
      <trkpt lat="43.96853" lon="5.0689">
        <ele>143</ele>
        <time>2021-05-08T07:40:21.000Z</time>
      </trkpt>
      <trkpt lat="43.96865" lon="5.06901">
        <ele>141.80000305176</ele>
        <time>2021-05-08T07:40:28.000Z</time>
      </trkpt>
      <trkpt lat="43.96881" lon="5.06916">
        <ele>141.19999694824</ele>
        <time>2021-05-08T07:40:42.000Z</time>
      </trkpt>
      <trkpt lat="43.96885" lon="5.06918">
        <ele>141.19999694824</ele>
        <time>2021-05-08T07:40:47.000Z</time>
      </trkpt>
      <trkpt lat="43.96891" lon="5.06922">
        <ele>141.39999389648</ele>
        <time>2021-05-08T07:40:52.000Z</time>
      </trkpt>
      <trkpt lat="43.969" lon="5.06929">
        <ele>142.19999694824</ele>
        <time>2021-05-08T07:40:58.000Z</time>
      </trkpt>
      <trkpt lat="43.96904" lon="5.0693">
        <ele>142.80000305176</ele>
        <time>2021-05-08T07:41:01.000Z</time>
      </trkpt>
      <trkpt lat="43.9692" lon="5.06928">
        <ele>143.39999389648</ele>
        <time>2021-05-08T07:41:14.000Z</time>
      </trkpt>
      <trkpt lat="43.96923" lon="5.06928">
        <ele>143.39999389648</ele>
        <time>2021-05-08T07:41:16.000Z</time>
      </trkpt>
      <trkpt lat="43.96925" lon="5.06928">
        <ele>143.60000610352</ele>
        <time>2021-05-08T07:41:18.000Z</time>
      </trkpt>
      <trkpt lat="43.96933" lon="5.06925">
        <ele>143.80000305176</ele>
        <time>2021-05-08T07:41:25.000Z</time>
      </trkpt>
      <trkpt lat="43.96935" lon="5.06924">
        <ele>144.60000610352</ele>
        <time>2021-05-08T07:41:28.000Z</time>
      </trkpt>
      <trkpt lat="43.96936" lon="5.06922">
        <ele>144.80000305176</ele>
        <time>2021-05-08T07:41:30.000Z</time>
      </trkpt>
      <trkpt lat="43.96937" lon="5.0692">
        <ele>145</ele>
        <time>2021-05-08T07:41:31.000Z</time>
      </trkpt>
      <trkpt lat="43.96939" lon="5.06918">
        <ele>145</ele>
        <time>2021-05-08T07:41:32.000Z</time>
      </trkpt>
      <trkpt lat="43.96943" lon="5.06912">
        <ele>145</ele>
        <time>2021-05-08T07:41:34.000Z</time>
      </trkpt>
      <trkpt lat="43.96962" lon="5.06908">
        <ele>145</ele>
        <time>2021-05-08T07:41:46.000Z</time>
      </trkpt>
      <trkpt lat="43.96964" lon="5.06907">
        <ele>145.19999694824</ele>
        <time>2021-05-08T07:41:48.000Z</time>
      </trkpt>
      <trkpt lat="43.96966" lon="5.06904">
        <ele>145.19999694824</ele>
        <time>2021-05-08T07:41:50.000Z</time>
      </trkpt>
      <trkpt lat="43.96971" lon="5.06901">
        <ele>145.60000610352</ele>
        <time>2021-05-08T07:41:54.000Z</time>
      </trkpt>
      <trkpt lat="43.96973" lon="5.069">
        <ele>145.60000610352</ele>
        <time>2021-05-08T07:41:55.000Z</time>
      </trkpt>
      <trkpt lat="43.96975" lon="5.06899">
        <ele>146</ele>
        <time>2021-05-08T07:41:57.000Z</time>
      </trkpt>
      <trkpt lat="43.96994" lon="5.06902">
        <ele>146.19999694824</ele>
        <time>2021-05-08T07:42:09.000Z</time>
      </trkpt>
      <trkpt lat="43.96997" lon="5.06904">
        <ele>146.19999694824</ele>
        <time>2021-05-08T07:42:11.000Z</time>
      </trkpt>
      <trkpt lat="43.97" lon="5.06906">
        <ele>145.60000610352</ele>
        <time>2021-05-08T07:42:17.000Z</time>
      </trkpt>
      <trkpt lat="43.97004" lon="5.06909">
        <ele>145.60000610352</ele>
        <time>2021-05-08T07:42:19.000Z</time>
      </trkpt>
      <trkpt lat="43.97009" lon="5.06912">
        <ele>145.39999389648</ele>
        <time>2021-05-08T07:42:22.000Z</time>
      </trkpt>
      <trkpt lat="43.97015" lon="5.06912">
        <ele>145.39999389648</ele>
        <time>2021-05-08T07:42:28.000Z</time>
      </trkpt>
      <trkpt lat="43.97016" lon="5.06914">
        <ele>145.19999694824</ele>
        <time>2021-05-08T07:42:31.000Z</time>
      </trkpt>
      <trkpt lat="43.97018" lon="5.06915">
        <ele>144.80000305176</ele>
        <time>2021-05-08T07:42:33.000Z</time>
      </trkpt>
      <trkpt lat="43.97022" lon="5.06918">
        <ele>144.39999389648</ele>
        <time>2021-05-08T07:42:36.000Z</time>
      </trkpt>
      <trkpt lat="43.97028" lon="5.0692">
        <ele>144.19999694824</ele>
        <time>2021-05-08T07:42:40.000Z</time>
      </trkpt>
      <trkpt lat="43.9704" lon="5.06927">
        <ele>144</ele>
        <time>2021-05-08T07:42:47.000Z</time>
      </trkpt>
      <trkpt lat="43.97054" lon="5.06928">
        <ele>144.39999389648</ele>
        <time>2021-05-08T07:42:58.000Z</time>
      </trkpt>
      <trkpt lat="43.97059" lon="5.06929">
        <ele>144.19999694824</ele>
        <time>2021-05-08T07:43:01.000Z</time>
      </trkpt>
      <trkpt lat="43.97064" lon="5.06932">
        <ele>143.80000305176</ele>
        <time>2021-05-08T07:43:06.000Z</time>
      </trkpt>
      <trkpt lat="43.97068" lon="5.06933">
        <ele>143.60000610352</ele>
        <time>2021-05-08T07:43:08.000Z</time>
      </trkpt>
      <trkpt lat="43.97075" lon="5.06934">
        <ele>143.39999389648</ele>
        <time>2021-05-08T07:43:11.000Z</time>
      </trkpt>
      <trkpt lat="43.97087" lon="5.06934">
        <ele>142.60000610352</ele>
        <time>2021-05-08T07:43:16.000Z</time>
      </trkpt>
      <trkpt lat="43.97105" lon="5.06936">
        <ele>141.60000610352</ele>
        <time>2021-05-08T07:43:26.000Z</time>
      </trkpt>
      <trkpt lat="43.97107" lon="5.06936">
        <ele>141.39999389648</ele>
        <time>2021-05-08T07:43:27.000Z</time>
      </trkpt>
      <trkpt lat="43.97108" lon="5.06936">
        <ele>140.80000305176</ele>
        <time>2021-05-08T07:43:28.000Z</time>
      </trkpt>
      <trkpt lat="43.97109" lon="5.06936">
        <ele>140</ele>
        <time>2021-05-08T07:43:30.000Z</time>
      </trkpt>
      <trkpt lat="43.97111" lon="5.06937">
        <ele>139.60000610352</ele>
        <time>2021-05-08T07:43:33.000Z</time>
      </trkpt>
      <trkpt lat="43.97115" lon="5.06942">
        <ele>139</ele>
        <time>2021-05-08T07:43:36.000Z</time>
      </trkpt>
      <trkpt lat="43.9712" lon="5.06946">
        <ele>137.80000305176</ele>
        <time>2021-05-08T07:43:39.000Z</time>
      </trkpt>
      <trkpt lat="43.97123" lon="5.06945">
        <ele>136.80000305176</ele>
        <time>2021-05-08T07:43:42.000Z</time>
      </trkpt>
      <trkpt lat="43.97124" lon="5.06945">
        <ele>136.60000610352</ele>
        <time>2021-05-08T07:43:43.000Z</time>
      </trkpt>
      <trkpt lat="43.97126" lon="5.06944">
        <ele>136.39999389648</ele>
        <time>2021-05-08T07:43:45.000Z</time>
      </trkpt>
      <trkpt lat="43.9713" lon="5.06943">
        <ele>136.39999389648</ele>
        <time>2021-05-08T07:43:48.000Z</time>
      </trkpt>
      <trkpt lat="43.97132" lon="5.06942">
        <ele>136.19999694824</ele>
        <time>2021-05-08T07:43:50.000Z</time>
      </trkpt>
      <trkpt lat="43.97136" lon="5.0694">
        <ele>135.19999694824</ele>
        <time>2021-05-08T07:43:54.000Z</time>
      </trkpt>
      <trkpt lat="43.9714" lon="5.06939">
        <ele>133.80000305176</ele>
        <time>2021-05-08T07:43:57.000Z</time>
      </trkpt>
      <trkpt lat="43.97146" lon="5.06936">
        <ele>133</ele>
        <time>2021-05-08T07:44:01.000Z</time>
      </trkpt>
      <trkpt lat="43.97147" lon="5.06934">
        <ele>132.80000305176</ele>
        <time>2021-05-08T07:44:02.000Z</time>
      </trkpt>
      <trkpt lat="43.97148" lon="5.06933">
        <ele>132.60000610352</ele>
        <time>2021-05-08T07:44:03.000Z</time>
      </trkpt>
      <trkpt lat="43.97155" lon="5.06928">
        <ele>132.39999389648</ele>
        <time>2021-05-08T07:44:09.000Z</time>
      </trkpt>
      <trkpt lat="43.97168" lon="5.0694">
        <ele>132.19999694824</ele>
        <time>2021-05-08T07:45:15.000Z</time>
      </trkpt>
      <trkpt lat="43.97162" lon="5.06923">
        <ele>132.19999694824</ele>
        <time>2021-05-08T07:46:09.000Z</time>
      </trkpt>
      <trkpt lat="43.97162" lon="5.06922">
        <ele>132.19999694824</ele>
        <time>2021-05-08T07:46:12.000Z</time>
      </trkpt>
      <trkpt lat="43.97161" lon="5.06921">
        <ele>132.19999694824</ele>
        <time>2021-05-08T07:46:14.000Z</time>
      </trkpt>
      <trkpt lat="43.9716" lon="5.06919">
        <ele>134</ele>
        <time>2021-05-08T07:46:16.000Z</time>
      </trkpt>
      <trkpt lat="43.9716" lon="5.06917">
        <ele>134.60000610352</ele>
        <time>2021-05-08T07:46:17.000Z</time>
      </trkpt>
      <trkpt lat="43.9716" lon="5.06912">
        <ele>134.80000305176</ele>
        <time>2021-05-08T07:46:19.000Z</time>
      </trkpt>
      <trkpt lat="43.97162" lon="5.06907">
        <ele>135</ele>
        <time>2021-05-08T07:46:21.000Z</time>
      </trkpt>
      <trkpt lat="43.97162" lon="5.06904">
        <ele>135.19999694824</ele>
        <time>2021-05-08T07:46:23.000Z</time>
      </trkpt>
      <trkpt lat="43.9716" lon="5.06902">
        <ele>135.19999694824</ele>
        <time>2021-05-08T07:46:25.000Z</time>
      </trkpt>
      <trkpt lat="43.9716" lon="5.06899">
        <ele>136.19999694824</ele>
        <time>2021-05-08T07:46:28.000Z</time>
      </trkpt>
      <trkpt lat="43.97161" lon="5.06895">
        <ele>137.19999694824</ele>
        <time>2021-05-08T07:46:30.000Z</time>
      </trkpt>
      <trkpt lat="43.97161" lon="5.06893">
        <ele>137.60000610352</ele>
        <time>2021-05-08T07:46:31.000Z</time>
      </trkpt>
      <trkpt lat="43.97161" lon="5.06892">
        <ele>137.80000305176</ele>
        <time>2021-05-08T07:46:32.000Z</time>
      </trkpt>
      <trkpt lat="43.97162" lon="5.06887">
        <ele>138.39999389648</ele>
        <time>2021-05-08T07:46:35.000Z</time>
      </trkpt>
      <trkpt lat="43.97163" lon="5.06882">
        <ele>138.60000610352</ele>
        <time>2021-05-08T07:46:38.000Z</time>
      </trkpt>
      <trkpt lat="43.97162" lon="5.06877">
        <ele>139.60000610352</ele>
        <time>2021-05-08T07:46:41.000Z</time>
      </trkpt>
      <trkpt lat="43.97159" lon="5.06874">
        <ele>141</ele>
        <time>2021-05-08T07:46:44.000Z</time>
      </trkpt>
      <trkpt lat="43.97158" lon="5.06873">
        <ele>141.39999389648</ele>
        <time>2021-05-08T07:46:45.000Z</time>
      </trkpt>
      <trkpt lat="43.97156" lon="5.06874">
        <ele>142.19999694824</ele>
        <time>2021-05-08T07:46:47.000Z</time>
      </trkpt>
      <trkpt lat="43.97156" lon="5.06875">
        <ele>142.60000610352</ele>
        <time>2021-05-08T07:46:49.000Z</time>
      </trkpt>
      <trkpt lat="43.97154" lon="5.06876">
        <ele>143</ele>
        <time>2021-05-08T07:46:51.000Z</time>
      </trkpt>
      <trkpt lat="43.97152" lon="5.06874">
        <ele>143</ele>
        <time>2021-05-08T07:46:53.000Z</time>
      </trkpt>
      <trkpt lat="43.97151" lon="5.06873">
        <ele>143.19999694824</ele>
        <time>2021-05-08T07:46:54.000Z</time>
      </trkpt>
      <trkpt lat="43.97149" lon="5.06872">
        <ele>143.39999389648</ele>
        <time>2021-05-08T07:46:56.000Z</time>
      </trkpt>
      <trkpt lat="43.97147" lon="5.0687">
        <ele>143.60000610352</ele>
        <time>2021-05-08T07:46:58.000Z</time>
      </trkpt>
      <trkpt lat="43.97146" lon="5.0687">
        <ele>143.80000305176</ele>
        <time>2021-05-08T07:47:00.000Z</time>
      </trkpt>
      <trkpt lat="43.97144" lon="5.06869">
        <ele>144.19999694824</ele>
        <time>2021-05-08T07:47:02.000Z</time>
      </trkpt>
      <trkpt lat="43.97141" lon="5.06868">
        <ele>144.80000305176</ele>
        <time>2021-05-08T07:47:04.000Z</time>
      </trkpt>
      <trkpt lat="43.97138" lon="5.06868">
        <ele>145.39999389648</ele>
        <time>2021-05-08T07:47:07.000Z</time>
      </trkpt>
      <trkpt lat="43.97135" lon="5.06868">
        <ele>145.80000305176</ele>
        <time>2021-05-08T07:47:11.000Z</time>
      </trkpt>
      <trkpt lat="43.97133" lon="5.06867">
        <ele>146</ele>
        <time>2021-05-08T07:47:13.000Z</time>
      </trkpt>
      <trkpt lat="43.97131" lon="5.06866">
        <ele>146.60000610352</ele>
        <time>2021-05-08T07:47:15.000Z</time>
      </trkpt>
      <trkpt lat="43.97126" lon="5.06864">
        <ele>147.39999389648</ele>
        <time>2021-05-08T07:47:18.000Z</time>
      </trkpt>
      <trkpt lat="43.97125" lon="5.06865">
        <ele>147.80000305176</ele>
        <time>2021-05-08T07:47:19.000Z</time>
      </trkpt>
      <trkpt lat="43.97125" lon="5.06862">
        <ele>148.60000610352</ele>
        <time>2021-05-08T07:47:22.000Z</time>
      </trkpt>
      <trkpt lat="43.97125" lon="5.06862">
        <ele>148.80000305176</ele>
        <time>2021-05-08T07:47:23.000Z</time>
      </trkpt>
      <trkpt lat="43.97124" lon="5.06861">
        <ele>149.19999694824</ele>
        <time>2021-05-08T07:47:24.000Z</time>
      </trkpt>
      <trkpt lat="43.97124" lon="5.06859">
        <ele>149.80000305176</ele>
        <time>2021-05-08T07:47:26.000Z</time>
      </trkpt>
      <trkpt lat="43.97123" lon="5.06855">
        <ele>151.19999694824</ele>
        <time>2021-05-08T07:47:29.000Z</time>
      </trkpt>
      <trkpt lat="43.97123" lon="5.06852">
        <ele>152</ele>
        <time>2021-05-08T07:47:31.000Z</time>
      </trkpt>
      <trkpt lat="43.97124" lon="5.06851">
        <ele>152.19999694824</ele>
        <time>2021-05-08T07:47:32.000Z</time>
      </trkpt>
      <trkpt lat="43.97124" lon="5.06845">
        <ele>153.60000610352</ele>
        <time>2021-05-08T07:47:36.000Z</time>
      </trkpt>
      <trkpt lat="43.97122" lon="5.06838">
        <ele>154.60000610352</ele>
        <time>2021-05-08T07:47:40.000Z</time>
      </trkpt>
      <trkpt lat="43.9712" lon="5.06837">
        <ele>155.19999694824</ele>
        <time>2021-05-08T07:47:42.000Z</time>
      </trkpt>
      <trkpt lat="43.97118" lon="5.06836">
        <ele>155.60000610352</ele>
        <time>2021-05-08T07:47:44.000Z</time>
      </trkpt>
      <trkpt lat="43.97118" lon="5.06836">
        <ele>155.80000305176</ele>
        <time>2021-05-08T07:47:45.000Z</time>
      </trkpt>
      <trkpt lat="43.97113" lon="5.06836">
        <ele>156.80000305176</ele>
        <time>2021-05-08T07:47:48.000Z</time>
      </trkpt>
      <trkpt lat="43.97112" lon="5.06836">
        <ele>157.19999694824</ele>
        <time>2021-05-08T07:47:49.000Z</time>
      </trkpt>
      <trkpt lat="43.97108" lon="5.06836">
        <ele>157.80000305176</ele>
        <time>2021-05-08T07:47:52.000Z</time>
      </trkpt>
      <trkpt lat="43.97106" lon="5.06836">
        <ele>157.80000305176</ele>
        <time>2021-05-08T07:47:57.000Z</time>
      </trkpt>
      <trkpt lat="43.97103" lon="5.06835">
        <ele>158</ele>
        <time>2021-05-08T07:48:00.000Z</time>
      </trkpt>
      <trkpt lat="43.97102" lon="5.06833">
        <ele>158.19999694824</ele>
        <time>2021-05-08T07:48:02.000Z</time>
      </trkpt>
      <trkpt lat="43.97105" lon="5.06833">
        <ele>158.19999694824</ele>
        <time>2021-05-08T07:48:06.000Z</time>
      </trkpt>
      <trkpt lat="43.97107" lon="5.06832">
        <ele>158</ele>
        <time>2021-05-08T07:48:08.000Z</time>
      </trkpt>
      <trkpt lat="43.97107" lon="5.06831">
        <ele>158</ele>
        <time>2021-05-08T07:48:13.000Z</time>
      </trkpt>
      <trkpt lat="43.97107" lon="5.06832">
        <ele>158</ele>
        <time>2021-05-08T07:48:14.000Z</time>
      </trkpt>
      <trkpt lat="43.97099" lon="5.0683">
        <ele>159</ele>
        <time>2021-05-08T07:48:23.000Z</time>
      </trkpt>
      <trkpt lat="43.97098" lon="5.0683">
        <ele>159.19999694824</ele>
        <time>2021-05-08T07:48:24.000Z</time>
      </trkpt>
      <trkpt lat="43.97095" lon="5.0683">
        <ele>159.60000610352</ele>
        <time>2021-05-08T07:48:27.000Z</time>
      </trkpt>
      <trkpt lat="43.97091" lon="5.06829">
        <ele>159.80000305176</ele>
        <time>2021-05-08T07:48:29.000Z</time>
      </trkpt>
      <trkpt lat="43.97091" lon="5.06825">
        <ele>160.19999694824</ele>
        <time>2021-05-08T07:48:33.000Z</time>
      </trkpt>
      <trkpt lat="43.9709" lon="5.06823">
        <ele>160.19999694824</ele>
        <time>2021-05-08T07:48:34.000Z</time>
      </trkpt>
      <trkpt lat="43.97087" lon="5.06815">
        <ele>161.39999389648</ele>
        <time>2021-05-08T07:48:39.000Z</time>
      </trkpt>
      <trkpt lat="43.97088" lon="5.06808">
        <ele>162.39999389648</ele>
        <time>2021-05-08T07:48:42.000Z</time>
      </trkpt>
      <trkpt lat="43.97088" lon="5.06803">
        <ele>163.19999694824</ele>
        <time>2021-05-08T07:48:45.000Z</time>
      </trkpt>
      <trkpt lat="43.97088" lon="5.06799">
        <ele>163.60000610352</ele>
        <time>2021-05-08T07:48:47.000Z</time>
      </trkpt>
      <trkpt lat="43.97088" lon="5.06792">
        <ele>164.80000305176</ele>
        <time>2021-05-08T07:48:51.000Z</time>
      </trkpt>
      <trkpt lat="43.97086" lon="5.06785">
        <ele>166</ele>
        <time>2021-05-08T07:48:56.000Z</time>
      </trkpt>
      <trkpt lat="43.97089" lon="5.06778">
        <ele>167</ele>
        <time>2021-05-08T07:49:00.000Z</time>
      </trkpt>
      <trkpt lat="43.97093" lon="5.06769">
        <ele>168.39999389648</ele>
        <time>2021-05-08T07:49:07.000Z</time>
      </trkpt>
      <trkpt lat="43.97094" lon="5.06765">
        <ele>168.80000305176</ele>
        <time>2021-05-08T07:49:09.000Z</time>
      </trkpt>
      <trkpt lat="43.97096" lon="5.06759">
        <ele>169.19999694824</ele>
        <time>2021-05-08T07:49:12.000Z</time>
      </trkpt>
      <trkpt lat="43.97098" lon="5.06754">
        <ele>169.39999389648</ele>
        <time>2021-05-08T07:49:15.000Z</time>
      </trkpt>
      <trkpt lat="43.97098" lon="5.06752">
        <ele>169.39999389648</ele>
        <time>2021-05-08T07:49:16.000Z</time>
      </trkpt>
      <trkpt lat="43.97099" lon="5.06745">
        <ele>170.60000610352</ele>
        <time>2021-05-08T07:49:20.000Z</time>
      </trkpt>
      <trkpt lat="43.97098" lon="5.06742">
        <ele>171.80000305176</ele>
        <time>2021-05-08T07:49:23.000Z</time>
      </trkpt>
      <trkpt lat="43.97097" lon="5.0674">
        <ele>172.19999694824</ele>
        <time>2021-05-08T07:49:25.000Z</time>
      </trkpt>
      <trkpt lat="43.97096" lon="5.06736">
        <ele>173</ele>
        <time>2021-05-08T07:49:28.000Z</time>
      </trkpt>
      <trkpt lat="43.971" lon="5.0673">
        <ele>174</ele>
        <time>2021-05-08T07:49:32.000Z</time>
      </trkpt>
      <trkpt lat="43.971" lon="5.06729">
        <ele>174.39999389648</ele>
        <time>2021-05-08T07:49:33.000Z</time>
      </trkpt>
      <trkpt lat="43.97101" lon="5.06725">
        <ele>175</ele>
        <time>2021-05-08T07:49:36.000Z</time>
      </trkpt>
      <trkpt lat="43.97101" lon="5.06723">
        <ele>175.39999389648</ele>
        <time>2021-05-08T07:49:37.000Z</time>
      </trkpt>
      <trkpt lat="43.97101" lon="5.06721">
        <ele>175.80000305176</ele>
        <time>2021-05-08T07:49:38.000Z</time>
      </trkpt>
      <trkpt lat="43.971" lon="5.06718">
        <ele>176.39999389648</ele>
        <time>2021-05-08T07:49:40.000Z</time>
      </trkpt>
      <trkpt lat="43.971" lon="5.06717">
        <ele>176.80000305176</ele>
        <time>2021-05-08T07:49:41.000Z</time>
      </trkpt>
      <trkpt lat="43.971" lon="5.0671">
        <ele>177.60000610352</ele>
        <time>2021-05-08T07:49:45.000Z</time>
      </trkpt>
      <trkpt lat="43.97101" lon="5.06708">
        <ele>177.80000305176</ele>
        <time>2021-05-08T07:49:46.000Z</time>
      </trkpt>
      <trkpt lat="43.97099" lon="5.06702">
        <ele>178.39999389648</ele>
        <time>2021-05-08T07:49:50.000Z</time>
      </trkpt>
      <trkpt lat="43.97099" lon="5.06701">
        <ele>178.80000305176</ele>
        <time>2021-05-08T07:49:51.000Z</time>
      </trkpt>
      <trkpt lat="43.97098" lon="5.067">
        <ele>179.39999389648</ele>
        <time>2021-05-08T07:49:54.000Z</time>
      </trkpt>
      <trkpt lat="43.97098" lon="5.067">
        <ele>179.80000305176</ele>
        <time>2021-05-08T07:49:55.000Z</time>
      </trkpt>
      <trkpt lat="43.97098" lon="5.06699">
        <ele>180.19999694824</ele>
        <time>2021-05-08T07:49:56.000Z</time>
      </trkpt>
      <trkpt lat="43.97099" lon="5.06698">
        <ele>180.80000305176</ele>
        <time>2021-05-08T07:49:58.000Z</time>
      </trkpt>
      <trkpt lat="43.97099" lon="5.06697">
        <ele>181.19999694824</ele>
        <time>2021-05-08T07:49:59.000Z</time>
      </trkpt>
      <trkpt lat="43.971" lon="5.06694">
        <ele>182.19999694824</ele>
        <time>2021-05-08T07:50:02.000Z</time>
      </trkpt>
      <trkpt lat="43.971" lon="5.06688">
        <ele>183.19999694824</ele>
        <time>2021-05-08T07:50:06.000Z</time>
      </trkpt>
      <trkpt lat="43.97099" lon="5.06683">
        <ele>184.39999389648</ele>
        <time>2021-05-08T07:50:09.000Z</time>
      </trkpt>
      <trkpt lat="43.971" lon="5.06682">
        <ele>185</ele>
        <time>2021-05-08T07:50:10.000Z</time>
      </trkpt>
      <trkpt lat="43.97099" lon="5.06679">
        <ele>185.60000610352</ele>
        <time>2021-05-08T07:50:12.000Z</time>
      </trkpt>
      <trkpt lat="43.97098" lon="5.06676">
        <ele>186.39999389648</ele>
        <time>2021-05-08T07:50:14.000Z</time>
      </trkpt>
      <trkpt lat="43.97098" lon="5.06674">
        <ele>186.80000305176</ele>
        <time>2021-05-08T07:50:15.000Z</time>
      </trkpt>
      <trkpt lat="43.97096" lon="5.06672">
        <ele>187.19999694824</ele>
        <time>2021-05-08T07:50:16.000Z</time>
      </trkpt>
      <trkpt lat="43.97095" lon="5.06667">
        <ele>188</ele>
        <time>2021-05-08T07:50:19.000Z</time>
      </trkpt>
      <trkpt lat="43.97093" lon="5.06662">
        <ele>189.19999694824</ele>
        <time>2021-05-08T07:50:23.000Z</time>
      </trkpt>
      <trkpt lat="43.97094" lon="5.06659">
        <ele>189.80000305176</ele>
        <time>2021-05-08T07:50:25.000Z</time>
      </trkpt>
      <trkpt lat="43.97094" lon="5.06656">
        <ele>190.39999389648</ele>
        <time>2021-05-08T07:50:27.000Z</time>
      </trkpt>
      <trkpt lat="43.97096" lon="5.0665">
        <ele>191.19999694824</ele>
        <time>2021-05-08T07:50:31.000Z</time>
      </trkpt>
      <trkpt lat="43.97109" lon="5.06642">
        <ele>190.60000610352</ele>
        <time>2021-05-08T07:50:40.000Z</time>
      </trkpt>
      <trkpt lat="43.97109" lon="5.06639">
        <ele>190.60000610352</ele>
        <time>2021-05-08T07:50:42.000Z</time>
      </trkpt>
      <trkpt lat="43.97109" lon="5.06634">
        <ele>190.80000305176</ele>
        <time>2021-05-08T07:50:45.000Z</time>
      </trkpt>
      <trkpt lat="43.9711" lon="5.06631">
        <ele>191</ele>
        <time>2021-05-08T07:50:47.000Z</time>
      </trkpt>
      <trkpt lat="43.97111" lon="5.06627">
        <ele>191.39999389648</ele>
        <time>2021-05-08T07:50:49.000Z</time>
      </trkpt>
      <trkpt lat="43.97112" lon="5.06625">
        <ele>191.60000610352</ele>
        <time>2021-05-08T07:50:50.000Z</time>
      </trkpt>
      <trkpt lat="43.97112" lon="5.06622">
        <ele>191.80000305176</ele>
        <time>2021-05-08T07:50:52.000Z</time>
      </trkpt>
      <trkpt lat="43.97113" lon="5.0662">
        <ele>192.19999694824</ele>
        <time>2021-05-08T07:50:54.000Z</time>
      </trkpt>
      <trkpt lat="43.97113" lon="5.06617">
        <ele>192.60000610352</ele>
        <time>2021-05-08T07:50:56.000Z</time>
      </trkpt>
      <trkpt lat="43.97112" lon="5.06614">
        <ele>193.19999694824</ele>
        <time>2021-05-08T07:50:58.000Z</time>
      </trkpt>
      <trkpt lat="43.97111" lon="5.06612">
        <ele>193.80000305176</ele>
        <time>2021-05-08T07:51:00.000Z</time>
      </trkpt>
      <trkpt lat="43.97109" lon="5.06611">
        <ele>195</ele>
        <time>2021-05-08T07:51:03.000Z</time>
      </trkpt>
      <trkpt lat="43.9711" lon="5.0661">
        <ele>196.19999694824</ele>
        <time>2021-05-08T07:51:07.000Z</time>
      </trkpt>
      <trkpt lat="43.9711" lon="5.06611">
        <ele>197.39999389648</ele>
        <time>2021-05-08T07:51:19.000Z</time>
      </trkpt>
      <trkpt lat="43.97109" lon="5.06612">
        <ele>198.60000610352</ele>
        <time>2021-05-08T07:51:23.000Z</time>
      </trkpt>
      <trkpt lat="43.97107" lon="5.06611">
        <ele>199.60000610352</ele>
        <time>2021-05-08T07:51:26.000Z</time>
      </trkpt>
      <trkpt lat="43.97105" lon="5.06613">
        <ele>201</ele>
        <time>2021-05-08T07:51:30.000Z</time>
      </trkpt>
      <trkpt lat="43.97103" lon="5.06612">
        <ele>202.19999694824</ele>
        <time>2021-05-08T07:51:32.000Z</time>
      </trkpt>
      <trkpt lat="43.971" lon="5.06606">
        <ele>203.39999389648</ele>
        <time>2021-05-08T07:51:36.000Z</time>
      </trkpt>
      <trkpt lat="43.97099" lon="5.06601">
        <ele>204.39999389648</ele>
        <time>2021-05-08T07:51:40.000Z</time>
      </trkpt>
      <trkpt lat="43.971" lon="5.06598">
        <ele>205.19999694824</ele>
        <time>2021-05-08T07:51:42.000Z</time>
      </trkpt>
      <trkpt lat="43.971" lon="5.06596">
        <ele>205.60000610352</ele>
        <time>2021-05-08T07:51:43.000Z</time>
      </trkpt>
      <trkpt lat="43.97099" lon="5.06595">
        <ele>206</ele>
        <time>2021-05-08T07:51:44.000Z</time>
      </trkpt>
      <trkpt lat="43.97097" lon="5.06593">
        <ele>206.80000305176</ele>
        <time>2021-05-08T07:51:47.000Z</time>
      </trkpt>
      <trkpt lat="43.97095" lon="5.06593">
        <ele>207.39999389648</ele>
        <time>2021-05-08T07:51:49.000Z</time>
      </trkpt>
      <trkpt lat="43.97094" lon="5.06592">
        <ele>207.80000305176</ele>
        <time>2021-05-08T07:51:51.000Z</time>
      </trkpt>
      <trkpt lat="43.97094" lon="5.06588">
        <ele>208.60000610352</ele>
        <time>2021-05-08T07:51:54.000Z</time>
      </trkpt>
      <trkpt lat="43.97094" lon="5.06587">
        <ele>209</ele>
        <time>2021-05-08T07:51:55.000Z</time>
      </trkpt>
      <trkpt lat="43.97094" lon="5.06583">
        <ele>210.19999694824</ele>
        <time>2021-05-08T07:51:58.000Z</time>
      </trkpt>
      <trkpt lat="43.97095" lon="5.06577">
        <ele>211.39999389648</ele>
        <time>2021-05-08T07:52:02.000Z</time>
      </trkpt>
      <trkpt lat="43.97093" lon="5.06569">
        <ele>212.39999389648</ele>
        <time>2021-05-08T07:52:07.000Z</time>
      </trkpt>
      <trkpt lat="43.97094" lon="5.06566">
        <ele>212.80000305176</ele>
        <time>2021-05-08T07:52:09.000Z</time>
      </trkpt>
      <trkpt lat="43.97095" lon="5.06563">
        <ele>213.60000610352</ele>
        <time>2021-05-08T07:52:11.000Z</time>
      </trkpt>
      <trkpt lat="43.97094" lon="5.06556">
        <ele>214.60000610352</ele>
        <time>2021-05-08T07:52:15.000Z</time>
      </trkpt>
      <trkpt lat="43.97094" lon="5.06555">
        <ele>214.80000305176</ele>
        <time>2021-05-08T07:52:16.000Z</time>
      </trkpt>
      <trkpt lat="43.97093" lon="5.06555">
        <ele>215.19999694824</ele>
        <time>2021-05-08T07:52:17.000Z</time>
      </trkpt>
      <trkpt lat="43.9709" lon="5.06553">
        <ele>215.80000305176</ele>
        <time>2021-05-08T07:52:20.000Z</time>
      </trkpt>
      <trkpt lat="43.97088" lon="5.06552">
        <ele>217</ele>
        <time>2021-05-08T07:52:24.000Z</time>
      </trkpt>
      <trkpt lat="43.97087" lon="5.06551">
        <ele>217.39999389648</ele>
        <time>2021-05-08T07:52:26.000Z</time>
      </trkpt>
      <trkpt lat="43.97085" lon="5.0655">
        <ele>218</ele>
        <time>2021-05-08T07:52:28.000Z</time>
      </trkpt>
      <trkpt lat="43.97083" lon="5.06548">
        <ele>219.39999389648</ele>
        <time>2021-05-08T07:52:31.000Z</time>
      </trkpt>
      <trkpt lat="43.9708" lon="5.06547">
        <ele>220.60000610352</ele>
        <time>2021-05-08T07:52:35.000Z</time>
      </trkpt>
      <trkpt lat="43.97079" lon="5.06546">
        <ele>221.80000305176</ele>
        <time>2021-05-08T07:52:38.000Z</time>
      </trkpt>
      <trkpt lat="43.97077" lon="5.06547">
        <ele>222.60000610352</ele>
        <time>2021-05-08T07:52:40.000Z</time>
      </trkpt>
      <trkpt lat="43.97075" lon="5.06548">
        <ele>223.19999694824</ele>
        <time>2021-05-08T07:52:42.000Z</time>
      </trkpt>
      <trkpt lat="43.97074" lon="5.06548">
        <ele>223.39999389648</ele>
        <time>2021-05-08T07:52:43.000Z</time>
      </trkpt>
      <trkpt lat="43.97072" lon="5.0655">
        <ele>224.39999389648</ele>
        <time>2021-05-08T07:52:46.000Z</time>
      </trkpt>
      <trkpt lat="43.97069" lon="5.06551">
        <ele>225.60000610352</ele>
        <time>2021-05-08T07:52:50.000Z</time>
      </trkpt>
      <trkpt lat="43.97065" lon="5.0655">
        <ele>226.80000305176</ele>
        <time>2021-05-08T07:52:53.000Z</time>
      </trkpt>
      <trkpt lat="43.97062" lon="5.06552">
        <ele>227.80000305176</ele>
        <time>2021-05-08T07:52:57.000Z</time>
      </trkpt>
      <trkpt lat="43.97061" lon="5.06553">
        <ele>228.19999694824</ele>
        <time>2021-05-08T07:52:58.000Z</time>
      </trkpt>
      <trkpt lat="43.97059" lon="5.06554">
        <ele>228.80000305176</ele>
        <time>2021-05-08T07:53:00.000Z</time>
      </trkpt>
      <trkpt lat="43.97058" lon="5.06554">
        <ele>229.19999694824</ele>
        <time>2021-05-08T07:53:01.000Z</time>
      </trkpt>
      <trkpt lat="43.97055" lon="5.06555">
        <ele>230</ele>
        <time>2021-05-08T07:53:05.000Z</time>
      </trkpt>
      <trkpt lat="43.97056" lon="5.06554">
        <ele>230.19999694824</ele>
        <time>2021-05-08T07:53:06.000Z</time>
      </trkpt>
      <trkpt lat="43.97056" lon="5.06553">
        <ele>230.60000610352</ele>
        <time>2021-05-08T07:53:07.000Z</time>
      </trkpt>
      <trkpt lat="43.97057" lon="5.0655">
        <ele>231</ele>
        <time>2021-05-08T07:53:10.000Z</time>
      </trkpt>
      <trkpt lat="43.97058" lon="5.06548">
        <ele>231.19999694824</ele>
        <time>2021-05-08T07:53:12.000Z</time>
      </trkpt>
      <trkpt lat="43.97059" lon="5.06546">
        <ele>231.19999694824</ele>
        <time>2021-05-08T07:53:14.000Z</time>
      </trkpt>
      <trkpt lat="43.97057" lon="5.06541">
        <ele>231</ele>
        <time>2021-05-08T07:53:19.000Z</time>
      </trkpt>
      <trkpt lat="43.97056" lon="5.06546">
        <ele>231.19999694824</ele>
        <time>2021-05-08T07:53:23.000Z</time>
      </trkpt>
      <trkpt lat="43.9705" lon="5.06552">
        <ele>231.39999389648</ele>
        <time>2021-05-08T07:53:31.000Z</time>
      </trkpt>
      <trkpt lat="43.97049" lon="5.06552">
        <ele>231.60000610352</ele>
        <time>2021-05-08T07:53:33.000Z</time>
      </trkpt>
      <trkpt lat="43.9706" lon="5.06549">
        <ele>231.39999389648</ele>
        <time>2021-05-08T07:54:32.000Z</time>
      </trkpt>
      <trkpt lat="43.97056" lon="5.06539">
        <ele>231.39999389648</ele>
        <time>2021-05-08T07:55:22.000Z</time>
      </trkpt>
      <trkpt lat="43.97056" lon="5.06532">
        <ele>230.60000610352</ele>
        <time>2021-05-08T07:55:26.000Z</time>
      </trkpt>
      <trkpt lat="43.97057" lon="5.06528">
        <ele>230.19999694824</ele>
        <time>2021-05-08T07:55:28.000Z</time>
      </trkpt>
      <trkpt lat="43.97056" lon="5.06513">
        <ele>229.19999694824</ele>
        <time>2021-05-08T07:55:37.000Z</time>
      </trkpt>
      <trkpt lat="43.97055" lon="5.06512">
        <ele>229</ele>
        <time>2021-05-08T07:55:38.000Z</time>
      </trkpt>
      <trkpt lat="43.97055" lon="5.06512">
        <ele>228.80000305176</ele>
        <time>2021-05-08T07:55:39.000Z</time>
      </trkpt>
      <trkpt lat="43.97053" lon="5.06507">
        <ele>228</ele>
        <time>2021-05-08T07:55:42.000Z</time>
      </trkpt>
      <trkpt lat="43.97052" lon="5.06506">
        <ele>227.80000305176</ele>
        <time>2021-05-08T07:55:43.000Z</time>
      </trkpt>
      <trkpt lat="43.9705" lon="5.06487">
        <ele>226.60000610352</ele>
        <time>2021-05-08T07:55:50.000Z</time>
      </trkpt>
      <trkpt lat="43.97049" lon="5.06481">
        <ele>225.80000305176</ele>
        <time>2021-05-08T07:55:53.000Z</time>
      </trkpt>
      <trkpt lat="43.97047" lon="5.06479">
        <ele>225.60000610352</ele>
        <time>2021-05-08T07:55:54.000Z</time>
      </trkpt>
      <trkpt lat="43.97044" lon="5.06463">
        <ele>224.60000610352</ele>
        <time>2021-05-08T07:56:02.000Z</time>
      </trkpt>
      <trkpt lat="43.97043" lon="5.06454">
        <ele>223.60000610352</ele>
        <time>2021-05-08T07:56:07.000Z</time>
      </trkpt>
      <trkpt lat="43.97042" lon="5.06452">
        <ele>223.39999389648</ele>
        <time>2021-05-08T07:56:08.000Z</time>
      </trkpt>
      <trkpt lat="43.9704" lon="5.06441">
        <ele>222.19999694824</ele>
        <time>2021-05-08T07:56:13.000Z</time>
      </trkpt>
      <trkpt lat="43.97038" lon="5.06433">
        <ele>221</ele>
        <time>2021-05-08T07:56:19.000Z</time>
      </trkpt>
      <trkpt lat="43.97037" lon="5.06425">
        <ele>219.80000305176</ele>
        <time>2021-05-08T07:56:23.000Z</time>
      </trkpt>
      <trkpt lat="43.97044" lon="5.06404">
        <ele>218.80000305176</ele>
        <time>2021-05-08T07:56:33.000Z</time>
      </trkpt>
      <trkpt lat="43.97051" lon="5.0639">
        <ele>218.60000610352</ele>
        <time>2021-05-08T07:56:42.000Z</time>
      </trkpt>
      <trkpt lat="43.97053" lon="5.06385">
        <ele>219</ele>
        <time>2021-05-08T07:56:45.000Z</time>
      </trkpt>
      <trkpt lat="43.97055" lon="5.06383">
        <ele>219</ele>
        <time>2021-05-08T07:56:47.000Z</time>
      </trkpt>
      <trkpt lat="43.97057" lon="5.06381">
        <ele>219</ele>
        <time>2021-05-08T07:56:49.000Z</time>
      </trkpt>
      <trkpt lat="43.97059" lon="5.06377">
        <ele>218.80000305176</ele>
        <time>2021-05-08T07:56:51.000Z</time>
      </trkpt>
      <trkpt lat="43.97065" lon="5.06365">
        <ele>219.80000305176</ele>
        <time>2021-05-08T07:56:58.000Z</time>
      </trkpt>
      <trkpt lat="43.97069" lon="5.06341">
        <ele>218.80000305176</ele>
        <time>2021-05-08T07:57:09.000Z</time>
      </trkpt>
      <trkpt lat="43.97068" lon="5.06339">
        <ele>218.80000305176</ele>
        <time>2021-05-08T07:57:10.000Z</time>
      </trkpt>
      <trkpt lat="43.97066" lon="5.06333">
        <ele>218.60000610352</ele>
        <time>2021-05-08T07:57:13.000Z</time>
      </trkpt>
      <trkpt lat="43.97067" lon="5.06324">
        <ele>217.60000610352</ele>
        <time>2021-05-08T07:57:18.000Z</time>
      </trkpt>
      <trkpt lat="43.97069" lon="5.06321">
        <ele>217</ele>
        <time>2021-05-08T07:57:21.000Z</time>
      </trkpt>
      <trkpt lat="43.97069" lon="5.06321">
        <ele>216.60000610352</ele>
        <time>2021-05-08T07:57:23.000Z</time>
      </trkpt>
      <trkpt lat="43.97072" lon="5.06316">
        <ele>216.19999694824</ele>
        <time>2021-05-08T07:57:37.000Z</time>
      </trkpt>
      <trkpt lat="43.97073" lon="5.06308">
        <ele>215.60000610352</ele>
        <time>2021-05-08T07:57:41.000Z</time>
      </trkpt>
      <trkpt lat="43.97073" lon="5.06289">
        <ele>215</ele>
        <time>2021-05-08T07:57:52.000Z</time>
      </trkpt>
      <trkpt lat="43.97072" lon="5.06287">
        <ele>215</ele>
        <time>2021-05-08T07:57:54.000Z</time>
      </trkpt>
      <trkpt lat="43.97072" lon="5.06278">
        <ele>214.39999389648</ele>
        <time>2021-05-08T07:57:58.000Z</time>
      </trkpt>
      <trkpt lat="43.97072" lon="5.06272">
        <ele>213.80000305176</ele>
        <time>2021-05-08T07:58:01.000Z</time>
      </trkpt>
      <trkpt lat="43.97073" lon="5.06267">
        <ele>213.19999694824</ele>
        <time>2021-05-08T07:58:05.000Z</time>
      </trkpt>
      <trkpt lat="43.97077" lon="5.0624">
        <ele>212.39999389648</ele>
        <time>2021-05-08T07:58:18.000Z</time>
      </trkpt>
      <trkpt lat="43.97077" lon="5.06235">
        <ele>212.19999694824</ele>
        <time>2021-05-08T07:58:21.000Z</time>
      </trkpt>
      <trkpt lat="43.97078" lon="5.06231">
        <ele>212.19999694824</ele>
        <time>2021-05-08T07:58:23.000Z</time>
      </trkpt>
      <trkpt lat="43.97078" lon="5.06226">
        <ele>212</ele>
        <time>2021-05-08T07:58:26.000Z</time>
      </trkpt>
      <trkpt lat="43.97078" lon="5.06221">
        <ele>211.60000610352</ele>
        <time>2021-05-08T07:58:40.000Z</time>
      </trkpt>
      <trkpt lat="43.97076" lon="5.06214">
        <ele>211.39999389648</ele>
        <time>2021-05-08T07:58:46.000Z</time>
      </trkpt>
      <trkpt lat="43.97075" lon="5.06213">
        <ele>211.19999694824</ele>
        <time>2021-05-08T07:58:47.000Z</time>
      </trkpt>
      <trkpt lat="43.97071" lon="5.06189">
        <ele>210.19999694824</ele>
        <time>2021-05-08T07:58:58.000Z</time>
      </trkpt>
      <trkpt lat="43.9707" lon="5.06187">
        <ele>210</ele>
        <time>2021-05-08T07:58:59.000Z</time>
      </trkpt>
      <trkpt lat="43.97067" lon="5.06182">
        <ele>209.60000610352</ele>
        <time>2021-05-08T07:59:03.000Z</time>
      </trkpt>
      <trkpt lat="43.97068" lon="5.06179">
        <ele>209.39999389648</ele>
        <time>2021-05-08T07:59:05.000Z</time>
      </trkpt>
      <trkpt lat="43.97068" lon="5.06178">
        <ele>209.39999389648</ele>
        <time>2021-05-08T07:59:06.000Z</time>
      </trkpt>
      <trkpt lat="43.97069" lon="5.06173">
        <ele>209</ele>
        <time>2021-05-08T07:59:08.000Z</time>
      </trkpt>
      <trkpt lat="43.97068" lon="5.0617">
        <ele>208.80000305176</ele>
        <time>2021-05-08T07:59:10.000Z</time>
      </trkpt>
      <trkpt lat="43.97064" lon="5.0616">
        <ele>208</ele>
        <time>2021-05-08T07:59:17.000Z</time>
      </trkpt>
      <trkpt lat="43.97049" lon="5.06143">
        <ele>207.80000305176</ele>
        <time>2021-05-08T07:59:28.000Z</time>
      </trkpt>
      <trkpt lat="43.9704" lon="5.06122">
        <ele>207</ele>
        <time>2021-05-08T07:59:38.000Z</time>
      </trkpt>
      <trkpt lat="43.97028" lon="5.06102">
        <ele>207.60000610352</ele>
        <time>2021-05-08T07:59:50.000Z</time>
      </trkpt>
      <trkpt lat="43.97022" lon="5.06089">
        <ele>209</ele>
        <time>2021-05-08T07:59:58.000Z</time>
      </trkpt>
      <trkpt lat="43.9701" lon="5.06081">
        <ele>210.19999694824</ele>
        <time>2021-05-08T08:00:08.000Z</time>
      </trkpt>
      <trkpt lat="43.96999" lon="5.06064">
        <ele>210.39999389648</ele>
        <time>2021-05-08T08:00:21.000Z</time>
      </trkpt>
      <trkpt lat="43.96996" lon="5.06059">
        <ele>211.39999389648</ele>
        <time>2021-05-08T08:00:24.000Z</time>
      </trkpt>
      <trkpt lat="43.9699" lon="5.06043">
        <ele>212</ele>
        <time>2021-05-08T08:00:33.000Z</time>
      </trkpt>
      <trkpt lat="43.96992" lon="5.06039">
        <ele>212.60000610352</ele>
        <time>2021-05-08T08:00:36.000Z</time>
      </trkpt>
      <trkpt lat="43.96993" lon="5.06037">
        <ele>213</ele>
        <time>2021-05-08T08:00:38.000Z</time>
      </trkpt>
      <trkpt lat="43.96992" lon="5.06031">
        <ele>213.60000610352</ele>
        <time>2021-05-08T08:00:42.000Z</time>
      </trkpt>
      <trkpt lat="43.96991" lon="5.06028">
        <ele>213.80000305176</ele>
        <time>2021-05-08T08:00:44.000Z</time>
      </trkpt>
      <trkpt lat="43.9699" lon="5.06011">
        <ele>213.80000305176</ele>
        <time>2021-05-08T08:00:52.000Z</time>
      </trkpt>
      <trkpt lat="43.96995" lon="5.06002">
        <ele>214.19999694824</ele>
        <time>2021-05-08T08:00:58.000Z</time>
      </trkpt>
      <trkpt lat="43.96996" lon="5.06">
        <ele>214.19999694824</ele>
        <time>2021-05-08T08:01:00.000Z</time>
      </trkpt>
      <trkpt lat="43.97002" lon="5.05992">
        <ele>214.60000610352</ele>
        <time>2021-05-08T08:01:06.000Z</time>
      </trkpt>
      <trkpt lat="43.97003" lon="5.0599">
        <ele>214.60000610352</ele>
        <time>2021-05-08T08:01:07.000Z</time>
      </trkpt>
      <trkpt lat="43.97005" lon="5.05965">
        <ele>214.60000610352</ele>
        <time>2021-05-08T08:01:21.000Z</time>
      </trkpt>
      <trkpt lat="43.97003" lon="5.05953">
        <ele>214.39999389648</ele>
        <time>2021-05-08T08:01:28.000Z</time>
      </trkpt>
      <trkpt lat="43.97008" lon="5.05944">
        <ele>213.60000610352</ele>
        <time>2021-05-08T08:01:35.000Z</time>
      </trkpt>
      <trkpt lat="43.97015" lon="5.05934">
        <ele>213.19999694824</ele>
        <time>2021-05-08T08:01:42.000Z</time>
      </trkpt>
      <trkpt lat="43.97015" lon="5.05921">
        <ele>213</ele>
        <time>2021-05-08T08:01:48.000Z</time>
      </trkpt>
      <trkpt lat="43.97018" lon="5.0592">
        <ele>212.80000305176</ele>
        <time>2021-05-08T08:01:50.000Z</time>
      </trkpt>
      <trkpt lat="43.97027" lon="5.05914">
        <ele>212.80000305176</ele>
        <time>2021-05-08T08:01:55.000Z</time>
      </trkpt>
      <trkpt lat="43.97029" lon="5.0591">
        <ele>212.39999389648</ele>
        <time>2021-05-08T08:01:57.000Z</time>
      </trkpt>
      <trkpt lat="43.97028" lon="5.05907">
        <ele>212.19999694824</ele>
        <time>2021-05-08T08:01:59.000Z</time>
      </trkpt>
      <trkpt lat="43.97028" lon="5.05906">
        <ele>212.19999694824</ele>
        <time>2021-05-08T08:02:01.000Z</time>
      </trkpt>
      <trkpt lat="43.97024" lon="5.05903">
        <ele>212.19999694824</ele>
        <time>2021-05-08T08:02:06.000Z</time>
      </trkpt>
      <trkpt lat="43.97024" lon="5.05901">
        <ele>212</ele>
        <time>2021-05-08T08:02:08.000Z</time>
      </trkpt>
      <trkpt lat="43.97022" lon="5.05896">
        <ele>211.80000305176</ele>
        <time>2021-05-08T08:02:11.000Z</time>
      </trkpt>
      <trkpt lat="43.97022" lon="5.05892">
        <ele>211.39999389648</ele>
        <time>2021-05-08T08:02:13.000Z</time>
      </trkpt>
      <trkpt lat="43.97021" lon="5.05884">
        <ele>210.80000305176</ele>
        <time>2021-05-08T08:02:17.000Z</time>
      </trkpt>
      <trkpt lat="43.97024" lon="5.05879">
        <ele>210.39999389648</ele>
        <time>2021-05-08T08:02:21.000Z</time>
      </trkpt>
      <trkpt lat="43.97025" lon="5.05878">
        <ele>210.39999389648</ele>
        <time>2021-05-08T08:02:22.000Z</time>
      </trkpt>
      <trkpt lat="43.97027" lon="5.05864">
        <ele>209.19999694824</ele>
        <time>2021-05-08T08:02:30.000Z</time>
      </trkpt>
      <trkpt lat="43.97025" lon="5.05856">
        <ele>208</ele>
        <time>2021-05-08T08:02:34.000Z</time>
      </trkpt>
      <trkpt lat="43.97025" lon="5.05855">
        <ele>207.60000610352</ele>
        <time>2021-05-08T08:02:35.000Z</time>
      </trkpt>
      <trkpt lat="43.97026" lon="5.0585">
        <ele>206.80000305176</ele>
        <time>2021-05-08T08:02:38.000Z</time>
      </trkpt>
      <trkpt lat="43.97028" lon="5.05845">
        <ele>205.60000610352</ele>
        <time>2021-05-08T08:02:41.000Z</time>
      </trkpt>
      <trkpt lat="43.9703" lon="5.05843">
        <ele>205</ele>
        <time>2021-05-08T08:02:43.000Z</time>
      </trkpt>
      <trkpt lat="43.97032" lon="5.0584">
        <ele>204.60000610352</ele>
        <time>2021-05-08T08:02:45.000Z</time>
      </trkpt>
      <trkpt lat="43.97033" lon="5.05835">
        <ele>203.60000610352</ele>
        <time>2021-05-08T08:02:48.000Z</time>
      </trkpt>
      <trkpt lat="43.97034" lon="5.05832">
        <ele>203.19999694824</ele>
        <time>2021-05-08T08:02:49.000Z</time>
      </trkpt>
      <trkpt lat="43.97035" lon="5.05826">
        <ele>202</ele>
        <time>2021-05-08T08:02:52.000Z</time>
      </trkpt>
      <trkpt lat="43.97032" lon="5.05819">
        <ele>201</ele>
        <time>2021-05-08T08:02:56.000Z</time>
      </trkpt>
      <trkpt lat="43.97031" lon="5.05818">
        <ele>200.60000610352</ele>
        <time>2021-05-08T08:02:57.000Z</time>
      </trkpt>
      <trkpt lat="43.97028" lon="5.05814">
        <ele>199.80000305176</ele>
        <time>2021-05-08T08:03:00.000Z</time>
      </trkpt>
      <trkpt lat="43.97027" lon="5.05812">
        <ele>199.39999389648</ele>
        <time>2021-05-08T08:03:01.000Z</time>
      </trkpt>
      <trkpt lat="43.97025" lon="5.05809">
        <ele>198.60000610352</ele>
        <time>2021-05-08T08:03:03.000Z</time>
      </trkpt>
      <trkpt lat="43.97024" lon="5.05804">
        <ele>197.39999389648</ele>
        <time>2021-05-08T08:03:06.000Z</time>
      </trkpt>
      <trkpt lat="43.97024" lon="5.058">
        <ele>196.19999694824</ele>
        <time>2021-05-08T08:03:09.000Z</time>
      </trkpt>
      <trkpt lat="43.97023" lon="5.05796">
        <ele>195.60000610352</ele>
        <time>2021-05-08T08:03:11.000Z</time>
      </trkpt>
      <trkpt lat="43.97021" lon="5.05793">
        <ele>195.19999694824</ele>
        <time>2021-05-08T08:03:13.000Z</time>
      </trkpt>
      <trkpt lat="43.97017" lon="5.0579">
        <ele>194</ele>
        <time>2021-05-08T08:03:18.000Z</time>
      </trkpt>
      <trkpt lat="43.97015" lon="5.05788">
        <ele>193.19999694824</ele>
        <time>2021-05-08T08:03:21.000Z</time>
      </trkpt>
      <trkpt lat="43.97014" lon="5.05786">
        <ele>193</ele>
        <time>2021-05-08T08:03:23.000Z</time>
      </trkpt>
      <trkpt lat="43.97009" lon="5.05783">
        <ele>191.80000305176</ele>
        <time>2021-05-08T08:03:28.000Z</time>
      </trkpt>
      <trkpt lat="43.97009" lon="5.05782">
        <ele>191.60000610352</ele>
        <time>2021-05-08T08:03:29.000Z</time>
      </trkpt>
      <trkpt lat="43.97007" lon="5.05779">
        <ele>190.80000305176</ele>
        <time>2021-05-08T08:03:31.000Z</time>
      </trkpt>
      <trkpt lat="43.97005" lon="5.05777">
        <ele>189.80000305176</ele>
        <time>2021-05-08T08:03:33.000Z</time>
      </trkpt>
      <trkpt lat="43.97005" lon="5.05776">
        <ele>189.39999389648</ele>
        <time>2021-05-08T08:03:34.000Z</time>
      </trkpt>
      <trkpt lat="43.97002" lon="5.05768">
        <ele>188.19999694824</ele>
        <time>2021-05-08T08:03:38.000Z</time>
      </trkpt>
      <trkpt lat="43.96999" lon="5.05763">
        <ele>187</ele>
        <time>2021-05-08T08:03:41.000Z</time>
      </trkpt>
      <trkpt lat="43.96996" lon="5.05756">
        <ele>186</ele>
        <time>2021-05-08T08:03:44.000Z</time>
      </trkpt>
      <trkpt lat="43.96994" lon="5.05748">
        <ele>184.80000305176</ele>
        <time>2021-05-08T08:03:48.000Z</time>
      </trkpt>
      <trkpt lat="43.96991" lon="5.0574">
        <ele>183.60000610352</ele>
        <time>2021-05-08T08:03:52.000Z</time>
      </trkpt>
      <trkpt lat="43.9699" lon="5.05731">
        <ele>182.39999389648</ele>
        <time>2021-05-08T08:03:57.000Z</time>
      </trkpt>
      <trkpt lat="43.96989" lon="5.05724">
        <ele>181.39999389648</ele>
        <time>2021-05-08T08:04:00.000Z</time>
      </trkpt>
      <trkpt lat="43.96986" lon="5.05715">
        <ele>180.39999389648</ele>
        <time>2021-05-08T08:04:04.000Z</time>
      </trkpt>
      <trkpt lat="43.96979" lon="5.05705">
        <ele>179.19999694824</ele>
        <time>2021-05-08T08:04:11.000Z</time>
      </trkpt>
      <trkpt lat="43.96973" lon="5.057">
        <ele>178.19999694824</ele>
        <time>2021-05-08T08:04:20.000Z</time>
      </trkpt>
      <trkpt lat="43.96969" lon="5.05702">
        <ele>178</ele>
        <time>2021-05-08T08:04:24.000Z</time>
      </trkpt>
      <trkpt lat="43.96966" lon="5.05693">
        <ele>177.19999694824</ele>
        <time>2021-05-08T08:05:20.000Z</time>
      </trkpt>
      <trkpt lat="43.96964" lon="5.05689">
        <ele>176.80000305176</ele>
        <time>2021-05-08T08:05:22.000Z</time>
      </trkpt>
      <trkpt lat="43.9696" lon="5.0568">
        <ele>176</ele>
        <time>2021-05-08T08:05:27.000Z</time>
      </trkpt>
      <trkpt lat="43.96958" lon="5.05675">
        <ele>175.19999694824</ele>
        <time>2021-05-08T08:05:31.000Z</time>
      </trkpt>
      <trkpt lat="43.96957" lon="5.05674">
        <ele>175</ele>
        <time>2021-05-08T08:05:32.000Z</time>
      </trkpt>
      <trkpt lat="43.9695" lon="5.05659">
        <ele>173.80000305176</ele>
        <time>2021-05-08T08:05:40.000Z</time>
      </trkpt>
      <trkpt lat="43.96948" lon="5.05651">
        <ele>172.60000610352</ele>
        <time>2021-05-08T08:05:44.000Z</time>
      </trkpt>
      <trkpt lat="43.96946" lon="5.05639">
        <ele>171.60000610352</ele>
        <time>2021-05-08T08:05:50.000Z</time>
      </trkpt>
      <trkpt lat="43.96941" lon="5.05631">
        <ele>170.39999389648</ele>
        <time>2021-05-08T08:05:54.000Z</time>
      </trkpt>
      <trkpt lat="43.96931" lon="5.05621">
        <ele>170</ele>
        <time>2021-05-08T08:06:02.000Z</time>
      </trkpt>
      <trkpt lat="43.96929" lon="5.05624">
        <ele>169.39999389648</ele>
        <time>2021-05-08T08:06:05.000Z</time>
      </trkpt>
      <trkpt lat="43.96929" lon="5.05625">
        <ele>169</ele>
        <time>2021-05-08T08:06:07.000Z</time>
      </trkpt>
      <trkpt lat="43.96931" lon="5.05616">
        <ele>169</ele>
        <time>2021-05-08T08:06:18.000Z</time>
      </trkpt>
      <trkpt lat="43.9693" lon="5.05614">
        <ele>168.80000305176</ele>
        <time>2021-05-08T08:06:20.000Z</time>
      </trkpt>
      <trkpt lat="43.96933" lon="5.05617">
        <ele>169</ele>
        <time>2021-05-08T08:06:26.000Z</time>
      </trkpt>
      <trkpt lat="43.96934" lon="5.05616">
        <ele>169.39999389648</ele>
        <time>2021-05-08T08:06:28.000Z</time>
      </trkpt>
      <trkpt lat="43.9694" lon="5.05609">
        <ele>168.19999694824</ele>
        <time>2021-05-08T08:07:00.000Z</time>
      </trkpt>
      <trkpt lat="43.96942" lon="5.05606">
        <ele>167</ele>
        <time>2021-05-08T08:07:07.000Z</time>
      </trkpt>
      <trkpt lat="43.96944" lon="5.05597">
        <ele>166.39999389648</ele>
        <time>2021-05-08T08:07:14.000Z</time>
      </trkpt>
      <trkpt lat="43.96946" lon="5.05593">
        <ele>166</ele>
        <time>2021-05-08T08:07:17.000Z</time>
      </trkpt>
      <trkpt lat="43.96947" lon="5.05592">
        <ele>165.80000305176</ele>
        <time>2021-05-08T08:07:19.000Z</time>
      </trkpt>
      <trkpt lat="43.96948" lon="5.05589">
        <ele>165.39999389648</ele>
        <time>2021-05-08T08:07:21.000Z</time>
      </trkpt>
      <trkpt lat="43.96948" lon="5.05586">
        <ele>164.80000305176</ele>
        <time>2021-05-08T08:07:23.000Z</time>
      </trkpt>
      <trkpt lat="43.96949" lon="5.05585">
        <ele>164</ele>
        <time>2021-05-08T08:07:35.000Z</time>
      </trkpt>
      <trkpt lat="43.96948" lon="5.05584">
        <ele>163.60000610352</ele>
        <time>2021-05-08T08:07:39.000Z</time>
      </trkpt>
      <trkpt lat="43.96944" lon="5.05579">
        <ele>163.60000610352</ele>
        <time>2021-05-08T08:07:45.000Z</time>
      </trkpt>
      <trkpt lat="43.9694" lon="5.05574">
        <ele>163.19999694824</ele>
        <time>2021-05-08T08:07:48.000Z</time>
      </trkpt>
      <trkpt lat="43.96937" lon="5.0557">
        <ele>162.60000610352</ele>
        <time>2021-05-08T08:07:50.000Z</time>
      </trkpt>
      <trkpt lat="43.96935" lon="5.05553">
        <ele>161.60000610352</ele>
        <time>2021-05-08T08:07:57.000Z</time>
      </trkpt>
      <trkpt lat="43.96935" lon="5.05549">
        <ele>161</ele>
        <time>2021-05-08T08:07:59.000Z</time>
      </trkpt>
      <trkpt lat="43.96935" lon="5.05547">
        <ele>160.39999389648</ele>
        <time>2021-05-08T08:08:00.000Z</time>
      </trkpt>
      <trkpt lat="43.96934" lon="5.05543">
        <ele>159.19999694824</ele>
        <time>2021-05-08T08:08:03.000Z</time>
      </trkpt>
      <trkpt lat="43.96931" lon="5.05533">
        <ele>158.19999694824</ele>
        <time>2021-05-08T08:08:08.000Z</time>
      </trkpt>
      <trkpt lat="43.96928" lon="5.05526">
        <ele>157</ele>
        <time>2021-05-08T08:08:12.000Z</time>
      </trkpt>
      <trkpt lat="43.96927" lon="5.05518">
        <ele>156</ele>
        <time>2021-05-08T08:08:17.000Z</time>
      </trkpt>
      <trkpt lat="43.96927" lon="5.05509">
        <ele>155</ele>
        <time>2021-05-08T08:08:21.000Z</time>
      </trkpt>
      <trkpt lat="43.96926" lon="5.05499">
        <ele>154</ele>
        <time>2021-05-08T08:08:26.000Z</time>
      </trkpt>
      <trkpt lat="43.96922" lon="5.05494">
        <ele>153.80000305176</ele>
        <time>2021-05-08T08:08:30.000Z</time>
      </trkpt>
      <trkpt lat="43.9692" lon="5.05494">
        <ele>153.80000305176</ele>
        <time>2021-05-08T08:08:32.000Z</time>
      </trkpt>
      <trkpt lat="43.96917" lon="5.05494">
        <ele>152.80000305176</ele>
        <time>2021-05-08T08:08:36.000Z</time>
      </trkpt>
      <trkpt lat="43.96916" lon="5.05494">
        <ele>152.80000305176</ele>
        <time>2021-05-08T08:08:37.000Z</time>
      </trkpt>
      <trkpt lat="43.96904" lon="5.05492">
        <ele>151.80000305176</ele>
        <time>2021-05-08T08:08:45.000Z</time>
      </trkpt>
      <trkpt lat="43.96897" lon="5.05493">
        <ele>151.60000610352</ele>
        <time>2021-05-08T08:08:49.000Z</time>
      </trkpt>
      <trkpt lat="43.96892" lon="5.055">
        <ele>151.80000305176</ele>
        <time>2021-05-08T08:08:53.000Z</time>
      </trkpt>
      <trkpt lat="43.96891" lon="5.05508">
        <ele>151.60000610352</ele>
        <time>2021-05-08T08:08:56.000Z</time>
      </trkpt>
      <trkpt lat="43.96888" lon="5.0551">
        <ele>151.80000305176</ele>
        <time>2021-05-08T08:08:58.000Z</time>
      </trkpt>
      <trkpt lat="43.96887" lon="5.05512">
        <ele>151.80000305176</ele>
        <time>2021-05-08T08:09:00.000Z</time>
      </trkpt>
      <trkpt lat="43.96882" lon="5.05513">
        <ele>152.19999694824</ele>
        <time>2021-05-08T08:09:03.000Z</time>
      </trkpt>
      <trkpt lat="43.96879" lon="5.05512">
        <ele>152.19999694824</ele>
        <time>2021-05-08T08:09:05.000Z</time>
      </trkpt>
      <trkpt lat="43.96875" lon="5.0551">
        <ele>152.39999389648</ele>
        <time>2021-05-08T08:09:09.000Z</time>
      </trkpt>
      <trkpt lat="43.9687" lon="5.05515">
        <ele>152.60000610352</ele>
        <time>2021-05-08T08:09:13.000Z</time>
      </trkpt>
      <trkpt lat="43.96859" lon="5.05533">
        <ele>152.80000305176</ele>
        <time>2021-05-08T08:09:24.000Z</time>
      </trkpt>
      <trkpt lat="43.96852" lon="5.05541">
        <ele>152.80000305176</ele>
        <time>2021-05-08T08:09:30.000Z</time>
      </trkpt>
      <trkpt lat="43.96852" lon="5.05546">
        <ele>152.39999389648</ele>
        <time>2021-05-08T08:09:32.000Z</time>
      </trkpt>
      <trkpt lat="43.96853" lon="5.05551">
        <ele>152.19999694824</ele>
        <time>2021-05-08T08:09:34.000Z</time>
      </trkpt>
      <trkpt lat="43.96847" lon="5.05555">
        <ele>152</ele>
        <time>2021-05-08T08:09:39.000Z</time>
      </trkpt>
      <trkpt lat="43.96846" lon="5.05557">
        <ele>152</ele>
        <time>2021-05-08T08:09:41.000Z</time>
      </trkpt>
      <trkpt lat="43.96843" lon="5.0555">
        <ele>152</ele>
        <time>2021-05-08T08:09:47.000Z</time>
      </trkpt>
      <trkpt lat="43.96842" lon="5.05549">
        <ele>151.80000305176</ele>
        <time>2021-05-08T08:09:48.000Z</time>
      </trkpt>
      <trkpt lat="43.96842" lon="5.05548">
        <ele>151.60000610352</ele>
        <time>2021-05-08T08:09:49.000Z</time>
      </trkpt>
      <trkpt lat="43.9684" lon="5.05547">
        <ele>151.19999694824</ele>
        <time>2021-05-08T08:09:51.000Z</time>
      </trkpt>
      <trkpt lat="43.96838" lon="5.05545">
        <ele>151</ele>
        <time>2021-05-08T08:09:54.000Z</time>
      </trkpt>
      <trkpt lat="43.96836" lon="5.05544">
        <ele>151</ele>
        <time>2021-05-08T08:09:56.000Z</time>
      </trkpt>
      <trkpt lat="43.96832" lon="5.0554">
        <ele>150.80000305176</ele>
        <time>2021-05-08T08:09:59.000Z</time>
      </trkpt>
      <trkpt lat="43.96832" lon="5.0554">
        <ele>150.80000305176</ele>
        <time>2021-05-08T08:10:00.000Z</time>
      </trkpt>
      <trkpt lat="43.96819" lon="5.05534">
        <ele>151.60000610352</ele>
        <time>2021-05-08T08:10:07.000Z</time>
      </trkpt>
      <trkpt lat="43.96815" lon="5.05531">
        <ele>151.60000610352</ele>
        <time>2021-05-08T08:10:10.000Z</time>
      </trkpt>
      <trkpt lat="43.96812" lon="5.05526">
        <ele>151.39999389648</ele>
        <time>2021-05-08T08:10:13.000Z</time>
      </trkpt>
      <trkpt lat="43.9681" lon="5.05521">
        <ele>151.19999694824</ele>
        <time>2021-05-08T08:10:16.000Z</time>
      </trkpt>
      <trkpt lat="43.96806" lon="5.05515">
        <ele>149.60000610352</ele>
        <time>2021-05-08T08:10:21.000Z</time>
      </trkpt>
      <trkpt lat="43.96804" lon="5.05512">
        <ele>149</ele>
        <time>2021-05-08T08:10:23.000Z</time>
      </trkpt>
      <trkpt lat="43.96795" lon="5.05499">
        <ele>148.39999389648</ele>
        <time>2021-05-08T08:10:28.000Z</time>
      </trkpt>
      <trkpt lat="43.96795" lon="5.05494">
        <ele>147.60000610352</ele>
        <time>2021-05-08T08:10:30.000Z</time>
      </trkpt>
      <trkpt lat="43.96795" lon="5.05491">
        <ele>147.19999694824</ele>
        <time>2021-05-08T08:10:31.000Z</time>
      </trkpt>
      <trkpt lat="43.96794" lon="5.05488">
        <ele>146.80000305176</ele>
        <time>2021-05-08T08:10:32.000Z</time>
      </trkpt>
      <trkpt lat="43.96792" lon="5.05484">
        <ele>146.19999694824</ele>
        <time>2021-05-08T08:10:34.000Z</time>
      </trkpt>
      <trkpt lat="43.9679" lon="5.05477">
        <ele>145</ele>
        <time>2021-05-08T08:10:37.000Z</time>
      </trkpt>
      <trkpt lat="43.96788" lon="5.05472">
        <ele>143.80000305176</ele>
        <time>2021-05-08T08:10:40.000Z</time>
      </trkpt>
      <trkpt lat="43.96785" lon="5.05466">
        <ele>142.60000610352</ele>
        <time>2021-05-08T08:10:43.000Z</time>
      </trkpt>
      <trkpt lat="43.96783" lon="5.05464">
        <ele>142</ele>
        <time>2021-05-08T08:10:45.000Z</time>
      </trkpt>
      <trkpt lat="43.96779" lon="5.05461">
        <ele>141.39999389648</ele>
        <time>2021-05-08T08:10:48.000Z</time>
      </trkpt>
      <trkpt lat="43.96772" lon="5.05462">
        <ele>140.80000305176</ele>
        <time>2021-05-08T08:10:54.000Z</time>
      </trkpt>
      <trkpt lat="43.9677" lon="5.05459">
        <ele>140.80000305176</ele>
        <time>2021-05-08T08:10:57.000Z</time>
      </trkpt>
      <trkpt lat="43.9677" lon="5.05455">
        <ele>140.39999389648</ele>
        <time>2021-05-08T08:10:59.000Z</time>
      </trkpt>
      <trkpt lat="43.9677" lon="5.05447">
        <ele>139</ele>
        <time>2021-05-08T08:11:03.000Z</time>
      </trkpt>
      <trkpt lat="43.9677" lon="5.05443">
        <ele>138.39999389648</ele>
        <time>2021-05-08T08:11:05.000Z</time>
      </trkpt>
      <trkpt lat="43.9677" lon="5.05439">
        <ele>137.80000305176</ele>
        <time>2021-05-08T08:11:07.000Z</time>
      </trkpt>
      <trkpt lat="43.96769" lon="5.05432">
        <ele>136.60000610352</ele>
        <time>2021-05-08T08:11:11.000Z</time>
      </trkpt>
      <trkpt lat="43.96768" lon="5.05428">
        <ele>135.39999389648</ele>
        <time>2021-05-08T08:11:14.000Z</time>
      </trkpt>
      <trkpt lat="43.96766" lon="5.05422">
        <ele>134.19999694824</ele>
        <time>2021-05-08T08:11:17.000Z</time>
      </trkpt>
      <trkpt lat="43.96766" lon="5.0542">
        <ele>133.80000305176</ele>
        <time>2021-05-08T08:11:18.000Z</time>
      </trkpt>
      <trkpt lat="43.96766" lon="5.05415">
        <ele>133.19999694824</ele>
        <time>2021-05-08T08:11:22.000Z</time>
      </trkpt>
      <trkpt lat="43.96766" lon="5.05414">
        <ele>133</ele>
        <time>2021-05-08T08:11:23.000Z</time>
      </trkpt>
      <trkpt lat="43.96764" lon="5.05409">
        <ele>132</ele>
        <time>2021-05-08T08:11:28.000Z</time>
      </trkpt>
      <trkpt lat="43.9676" lon="5.05406">
        <ele>130.60000610352</ele>
        <time>2021-05-08T08:11:32.000Z</time>
      </trkpt>
      <trkpt lat="43.96758" lon="5.05404">
        <ele>129.60000610352</ele>
        <time>2021-05-08T08:11:35.000Z</time>
      </trkpt>
      <trkpt lat="43.96753" lon="5.05399">
        <ele>128.19999694824</ele>
        <time>2021-05-08T08:11:40.000Z</time>
      </trkpt>
      <trkpt lat="43.96751" lon="5.05396">
        <ele>127.19999694824</ele>
        <time>2021-05-08T08:11:43.000Z</time>
      </trkpt>
      <trkpt lat="43.9675" lon="5.05395">
        <ele>127</ele>
        <time>2021-05-08T08:11:44.000Z</time>
      </trkpt>
      <trkpt lat="43.96747" lon="5.05388">
        <ele>126.40000152588</ele>
        <time>2021-05-08T08:11:49.000Z</time>
      </trkpt>
      <trkpt lat="43.96745" lon="5.05384">
        <ele>126</ele>
        <time>2021-05-08T08:11:51.000Z</time>
      </trkpt>
      <trkpt lat="43.96745" lon="5.05382">
        <ele>125.59999847412</ele>
        <time>2021-05-08T08:11:52.000Z</time>
      </trkpt>
      <trkpt lat="43.9674" lon="5.05377">
        <ele>124.59999847412</ele>
        <time>2021-05-08T08:11:56.000Z</time>
      </trkpt>
      <trkpt lat="43.96739" lon="5.05376">
        <ele>124.40000152588</ele>
        <time>2021-05-08T08:11:57.000Z</time>
      </trkpt>
      <trkpt lat="43.96736" lon="5.05372">
        <ele>123.40000152588</ele>
        <time>2021-05-08T08:12:00.000Z</time>
      </trkpt>
      <trkpt lat="43.96732" lon="5.05369">
        <ele>122.19999694824</ele>
        <time>2021-05-08T08:12:04.000Z</time>
      </trkpt>
      <trkpt lat="43.9673" lon="5.05368">
        <ele>121.59999847412</ele>
        <time>2021-05-08T08:12:06.000Z</time>
      </trkpt>
      <trkpt lat="43.96728" lon="5.05368">
        <ele>121.19999694824</ele>
        <time>2021-05-08T08:12:07.000Z</time>
      </trkpt>
      <trkpt lat="43.96724" lon="5.05365">
        <ele>120</ele>
        <time>2021-05-08T08:12:13.000Z</time>
      </trkpt>
      <trkpt lat="43.96721" lon="5.0536">
        <ele>119</ele>
        <time>2021-05-08T08:12:16.000Z</time>
      </trkpt>
      <trkpt lat="43.9672" lon="5.05357">
        <ele>118.40000152588</ele>
        <time>2021-05-08T08:12:18.000Z</time>
      </trkpt>
      <trkpt lat="43.96717" lon="5.05352">
        <ele>117.80000305176</ele>
        <time>2021-05-08T08:12:20.000Z</time>
      </trkpt>
      <trkpt lat="43.96716" lon="5.05344">
        <ele>116.80000305176</ele>
        <time>2021-05-08T08:12:24.000Z</time>
      </trkpt>
      <trkpt lat="43.96716" lon="5.05342">
        <ele>116.80000305176</ele>
        <time>2021-05-08T08:12:25.000Z</time>
      </trkpt>
      <trkpt lat="43.96718" lon="5.05339">
        <ele>116.59999847412</ele>
        <time>2021-05-08T08:12:27.000Z</time>
      </trkpt>
      <trkpt lat="43.96717" lon="5.05332">
        <ele>115.80000305176</ele>
        <time>2021-05-08T08:12:31.000Z</time>
      </trkpt>
      <trkpt lat="43.96715" lon="5.0533">
        <ele>115.40000152588</ele>
        <time>2021-05-08T08:12:32.000Z</time>
      </trkpt>
      <trkpt lat="43.96714" lon="5.05329">
        <ele>115</ele>
        <time>2021-05-08T08:12:33.000Z</time>
      </trkpt>
      <trkpt lat="43.96713" lon="5.05325">
        <ele>114.40000152588</ele>
        <time>2021-05-08T08:12:35.000Z</time>
      </trkpt>
      <trkpt lat="43.96713" lon="5.05322">
        <ele>114</ele>
        <time>2021-05-08T08:12:37.000Z</time>
      </trkpt>
      <trkpt lat="43.96709" lon="5.05315">
        <ele>113.19999694824</ele>
        <time>2021-05-08T08:12:41.000Z</time>
      </trkpt>
      <trkpt lat="43.96706" lon="5.05303">
        <ele>112</ele>
        <time>2021-05-08T08:12:47.000Z</time>
      </trkpt>
      <trkpt lat="43.96703" lon="5.05294">
        <ele>111</ele>
        <time>2021-05-08T08:12:53.000Z</time>
      </trkpt>
      <trkpt lat="43.967" lon="5.05289">
        <ele>110.19999694824</ele>
        <time>2021-05-08T08:12:56.000Z</time>
      </trkpt>
      <trkpt lat="43.967" lon="5.05285">
        <ele>110</ele>
        <time>2021-05-08T08:12:58.000Z</time>
      </trkpt>
      <trkpt lat="43.96699" lon="5.05281">
        <ele>109.80000305176</ele>
        <time>2021-05-08T08:13:00.000Z</time>
      </trkpt>
      <trkpt lat="43.96703" lon="5.05276">
        <ele>109.40000152588</ele>
        <time>2021-05-08T08:13:03.000Z</time>
      </trkpt>
      <trkpt lat="43.96705" lon="5.05272">
        <ele>109</ele>
        <time>2021-05-08T08:13:05.000Z</time>
      </trkpt>
      <trkpt lat="43.96704" lon="5.0527">
        <ele>108.80000305176</ele>
        <time>2021-05-08T08:13:06.000Z</time>
      </trkpt>
      <trkpt lat="43.96703" lon="5.05266">
        <ele>108.59999847412</ele>
        <time>2021-05-08T08:13:08.000Z</time>
      </trkpt>
      <trkpt lat="43.967" lon="5.05257">
        <ele>108.19999694824</ele>
        <time>2021-05-08T08:13:13.000Z</time>
      </trkpt>
      <trkpt lat="43.96699" lon="5.05252">
        <ele>108.19999694824</ele>
        <time>2021-05-08T08:13:15.000Z</time>
      </trkpt>
      <trkpt lat="43.96698" lon="5.05247">
        <ele>108.19999694824</ele>
        <time>2021-05-08T08:13:18.000Z</time>
      </trkpt>
      <trkpt lat="43.96698" lon="5.05237">
        <ele>107.80000305176</ele>
        <time>2021-05-08T08:13:23.000Z</time>
      </trkpt>
      <trkpt lat="43.96694" lon="5.05227">
        <ele>106.59999847412</ele>
        <time>2021-05-08T08:13:30.000Z</time>
      </trkpt>
      <trkpt lat="43.96692" lon="5.05218">
        <ele>106.19999694824</ele>
        <time>2021-05-08T08:13:35.000Z</time>
      </trkpt>
      <trkpt lat="43.96689" lon="5.05214">
        <ele>106</ele>
        <time>2021-05-08T08:13:37.000Z</time>
      </trkpt>
      <trkpt lat="43.96685" lon="5.0521">
        <ele>105.80000305176</ele>
        <time>2021-05-08T08:13:40.000Z</time>
      </trkpt>
      <trkpt lat="43.96684" lon="5.05209">
        <ele>105.59999847412</ele>
        <time>2021-05-08T08:13:43.000Z</time>
      </trkpt>
      <trkpt lat="43.9668" lon="5.05204">
        <ele>105.80000305176</ele>
        <time>2021-05-08T08:13:53.000Z</time>
      </trkpt>
      <trkpt lat="43.96677" lon="5.05203">
        <ele>105.80000305176</ele>
        <time>2021-05-08T08:13:56.000Z</time>
      </trkpt>
      <trkpt lat="43.96675" lon="5.052">
        <ele>105.80000305176</ele>
        <time>2021-05-08T08:13:59.000Z</time>
      </trkpt>
      <trkpt lat="43.9667" lon="5.05194">
        <ele>106</ele>
        <time>2021-05-08T08:14:03.000Z</time>
      </trkpt>
      <trkpt lat="43.96667" lon="5.0519">
        <ele>106</ele>
        <time>2021-05-08T08:14:05.000Z</time>
      </trkpt>
      <trkpt lat="43.96665" lon="5.05185">
        <ele>105.19999694824</ele>
        <time>2021-05-08T08:14:08.000Z</time>
      </trkpt>
      <trkpt lat="43.96663" lon="5.05181">
        <ele>104.80000305176</ele>
        <time>2021-05-08T08:14:11.000Z</time>
      </trkpt>
      <trkpt lat="43.96663" lon="5.0518">
        <ele>104.59999847412</ele>
        <time>2021-05-08T08:14:12.000Z</time>
      </trkpt>
      <trkpt lat="43.96661" lon="5.05176">
        <ele>104</ele>
        <time>2021-05-08T08:14:14.000Z</time>
      </trkpt>
      <trkpt lat="43.96657" lon="5.0517">
        <ele>103.59999847412</ele>
        <time>2021-05-08T08:14:17.000Z</time>
      </trkpt>
      <trkpt lat="43.96653" lon="5.05164">
        <ele>103.59999847412</ele>
        <time>2021-05-08T08:14:20.000Z</time>
      </trkpt>
      <trkpt lat="43.96652" lon="5.05162">
        <ele>103.59999847412</ele>
        <time>2021-05-08T08:14:21.000Z</time>
      </trkpt>
      <trkpt lat="43.96648" lon="5.05155">
        <ele>103</ele>
        <time>2021-05-08T08:14:27.000Z</time>
      </trkpt>
      <trkpt lat="43.96643" lon="5.05148">
        <ele>103</ele>
        <time>2021-05-08T08:14:33.000Z</time>
      </trkpt>
      <trkpt lat="43.96639" lon="5.05145">
        <ele>103.19999694824</ele>
        <time>2021-05-08T08:14:35.000Z</time>
      </trkpt>
      <trkpt lat="43.96628" lon="5.05137">
        <ele>102.80000305176</ele>
        <time>2021-05-08T08:14:43.000Z</time>
      </trkpt>
      <trkpt lat="43.96614" lon="5.05128">
        <ele>102.80000305176</ele>
        <time>2021-05-08T08:14:54.000Z</time>
      </trkpt>
      <trkpt lat="43.96611" lon="5.05126">
        <ele>102.40000152588</ele>
        <time>2021-05-08T08:14:56.000Z</time>
      </trkpt>
      <trkpt lat="43.9661" lon="5.05126">
        <ele>102.19999694824</ele>
        <time>2021-05-08T08:14:57.000Z</time>
      </trkpt>
      <trkpt lat="43.96602" lon="5.05122">
        <ele>102.19999694824</ele>
        <time>2021-05-08T08:15:02.000Z</time>
      </trkpt>
      <trkpt lat="43.96598" lon="5.05119">
        <ele>102.19999694824</ele>
        <time>2021-05-08T08:15:04.000Z</time>
      </trkpt>
      <trkpt lat="43.96592" lon="5.05116">
        <ele>102</ele>
        <time>2021-05-08T08:15:08.000Z</time>
      </trkpt>
      <trkpt lat="43.96588" lon="5.05114">
        <ele>101.80000305176</ele>
        <time>2021-05-08T08:15:10.000Z</time>
      </trkpt>
      <trkpt lat="43.96575" lon="5.05103">
        <ele>102.80000305176</ele>
        <time>2021-05-08T08:15:19.000Z</time>
      </trkpt>
      <trkpt lat="43.9657" lon="5.05099">
        <ele>102.80000305176</ele>
        <time>2021-05-08T08:15:23.000Z</time>
      </trkpt>
      <trkpt lat="43.96566" lon="5.05095">
        <ele>102.59999847412</ele>
        <time>2021-05-08T08:15:26.000Z</time>
      </trkpt>
      <trkpt lat="43.96556" lon="5.05089">
        <ele>102.40000152588</ele>
        <time>2021-05-08T08:15:31.000Z</time>
      </trkpt>
      <trkpt lat="43.96556" lon="5.05084">
        <ele>102.40000152588</ele>
        <time>2021-05-08T08:15:34.000Z</time>
      </trkpt>
      <trkpt lat="43.96557" lon="5.05079">
        <ele>102.40000152588</ele>
        <time>2021-05-08T08:15:37.000Z</time>
      </trkpt>
      <trkpt lat="43.96558" lon="5.05074">
        <ele>101.40000152588</ele>
        <time>2021-05-08T08:15:40.000Z</time>
      </trkpt>
      <trkpt lat="43.96558" lon="5.0507">
        <ele>100.59999847412</ele>
        <time>2021-05-08T08:15:42.000Z</time>
      </trkpt>
      <trkpt lat="43.96558" lon="5.05069">
        <ele>100.19999694824</ele>
        <time>2021-05-08T08:15:43.000Z</time>
      </trkpt>
      <trkpt lat="43.96557" lon="5.05067">
        <ele>100</ele>
        <time>2021-05-08T08:15:44.000Z</time>
      </trkpt>
      <trkpt lat="43.96557" lon="5.05066">
        <ele>99.800003051758</ele>
        <time>2021-05-08T08:15:46.000Z</time>
      </trkpt>
      <trkpt lat="43.96552" lon="5.05061">
        <ele>99.599998474121</ele>
        <time>2021-05-08T08:15:50.000Z</time>
      </trkpt>
      <trkpt lat="43.96549" lon="5.05054">
        <ele>99.400001525879</ele>
        <time>2021-05-08T08:15:54.000Z</time>
      </trkpt>
      <trkpt lat="43.96545" lon="5.05051">
        <ele>99.599998474121</ele>
        <time>2021-05-08T08:16:03.000Z</time>
      </trkpt>
      <trkpt lat="43.96543" lon="5.0505">
        <ele>99.800003051758</ele>
        <time>2021-05-08T08:16:07.000Z</time>
      </trkpt>
      <trkpt lat="43.96541" lon="5.05049">
        <ele>100</ele>
        <time>2021-05-08T08:16:09.000Z</time>
      </trkpt>
      <trkpt lat="43.96538" lon="5.05046">
        <ele>99.800003051758</ele>
        <time>2021-05-08T08:16:13.000Z</time>
      </trkpt>
      <trkpt lat="43.96534" lon="5.05042">
        <ele>100</ele>
        <time>2021-05-08T08:16:17.000Z</time>
      </trkpt>
      <trkpt lat="43.96522" lon="5.05028">
        <ele>99.199996948242</ele>
        <time>2021-05-08T08:16:26.000Z</time>
      </trkpt>
      <trkpt lat="43.96514" lon="5.05018">
        <ele>99.199996948242</ele>
        <time>2021-05-08T08:16:34.000Z</time>
      </trkpt>
      <trkpt lat="43.96502" lon="5.0501">
        <ele>99.199996948242</ele>
        <time>2021-05-08T08:16:44.000Z</time>
      </trkpt>
      <trkpt lat="43.96498" lon="5.0501">
        <ele>99.199996948242</ele>
        <time>2021-05-08T08:16:49.000Z</time>
      </trkpt>
      <trkpt lat="43.96494" lon="5.05013">
        <ele>100.19999694824</ele>
        <time>2021-05-08T08:16:56.000Z</time>
      </trkpt>
      <trkpt lat="43.96492" lon="5.05015">
        <ele>100.40000152588</ele>
        <time>2021-05-08T08:16:58.000Z</time>
      </trkpt>
      <trkpt lat="43.96485" lon="5.05016">
        <ele>100.40000152588</ele>
        <time>2021-05-08T08:17:06.000Z</time>
      </trkpt>
      <trkpt lat="43.96483" lon="5.05016">
        <ele>100.59999847412</ele>
        <time>2021-05-08T08:17:08.000Z</time>
      </trkpt>
      <trkpt lat="43.96466" lon="5.05015">
        <ele>100.80000305176</ele>
        <time>2021-05-08T08:17:21.000Z</time>
      </trkpt>
      <trkpt lat="43.9646" lon="5.05016">
        <ele>100.59999847412</ele>
        <time>2021-05-08T08:17:25.000Z</time>
      </trkpt>
      <trkpt lat="43.96453" lon="5.05019">
        <ele>100.19999694824</ele>
        <time>2021-05-08T08:17:31.000Z</time>
      </trkpt>
      <trkpt lat="43.9645" lon="5.0502">
        <ele>99.800003051758</ele>
        <time>2021-05-08T08:17:33.000Z</time>
      </trkpt>
      <trkpt lat="43.96448" lon="5.05022">
        <ele>99.400001525879</ele>
        <time>2021-05-08T08:17:35.000Z</time>
      </trkpt>
      <trkpt lat="43.96442" lon="5.05025">
        <ele>99.199996948242</ele>
        <time>2021-05-08T08:17:38.000Z</time>
      </trkpt>
      <trkpt lat="43.9643" lon="5.05036">
        <ele>100.80000305176</ele>
        <time>2021-05-08T08:17:48.000Z</time>
      </trkpt>
      <trkpt lat="43.96428" lon="5.05039">
        <ele>100.59999847412</ele>
        <time>2021-05-08T08:17:51.000Z</time>
      </trkpt>
      <trkpt lat="43.96425" lon="5.05041">
        <ele>100.40000152588</ele>
        <time>2021-05-08T08:17:54.000Z</time>
      </trkpt>
      <trkpt lat="43.9642" lon="5.05044">
        <ele>100.40000152588</ele>
        <time>2021-05-08T08:17:57.000Z</time>
      </trkpt>
      <trkpt lat="43.96419" lon="5.05046">
        <ele>100.40000152588</ele>
        <time>2021-05-08T08:17:59.000Z</time>
      </trkpt>
      <trkpt lat="43.96416" lon="5.05053">
        <ele>100.40000152588</ele>
        <time>2021-05-08T08:18:04.000Z</time>
      </trkpt>
      <trkpt lat="43.96415" lon="5.05055">
        <ele>100.40000152588</ele>
        <time>2021-05-08T08:18:07.000Z</time>
      </trkpt>
      <trkpt lat="43.96414" lon="5.05065">
        <ele>100.59999847412</ele>
        <time>2021-05-08T08:18:17.000Z</time>
      </trkpt>
      <trkpt lat="43.96414" lon="5.05068">
        <ele>101</ele>
        <time>2021-05-08T08:18:19.000Z</time>
      </trkpt>
      <trkpt lat="43.96413" lon="5.0507">
        <ele>101.19999694824</ele>
        <time>2021-05-08T08:18:20.000Z</time>
      </trkpt>
      <trkpt lat="43.96409" lon="5.0508">
        <ele>101</ele>
        <time>2021-05-08T08:18:26.000Z</time>
      </trkpt>
      <trkpt lat="43.96404" lon="5.051">
        <ele>100.19999694824</ele>
        <time>2021-05-08T08:18:35.000Z</time>
      </trkpt>
      <trkpt lat="43.96404" lon="5.05101">
        <ele>100.19999694824</ele>
        <time>2021-05-08T08:18:36.000Z</time>
      </trkpt>
      <trkpt lat="43.96401" lon="5.05125">
        <ele>99.800003051758</ele>
        <time>2021-05-08T08:18:48.000Z</time>
      </trkpt>
      <trkpt lat="43.96399" lon="5.05136">
        <ele>100</ele>
        <time>2021-05-08T08:18:53.000Z</time>
      </trkpt>
      <trkpt lat="43.96406" lon="5.05158">
        <ele>100.59999847412</ele>
        <time>2021-05-08T08:19:05.000Z</time>
      </trkpt>
      <trkpt lat="43.96405" lon="5.05162">
        <ele>101.40000152588</ele>
        <time>2021-05-08T08:19:08.000Z</time>
      </trkpt>
      <trkpt lat="43.96403" lon="5.05174">
        <ele>102.19999694824</ele>
        <time>2021-05-08T08:19:14.000Z</time>
      </trkpt>
      <trkpt lat="43.96402" lon="5.05178">
        <ele>102.40000152588</ele>
        <time>2021-05-08T08:19:16.000Z</time>
      </trkpt>
      <trkpt lat="43.96402" lon="5.05181">
        <ele>102.59999847412</ele>
        <time>2021-05-08T08:19:17.000Z</time>
      </trkpt>
      <trkpt lat="43.96402" lon="5.05184">
        <ele>103</ele>
        <time>2021-05-08T08:19:19.000Z</time>
      </trkpt>
      <trkpt lat="43.96399" lon="5.05192">
        <ele>103.80000305176</ele>
        <time>2021-05-08T08:19:24.000Z</time>
      </trkpt>
      <trkpt lat="43.96395" lon="5.05195">
        <ele>104</ele>
        <time>2021-05-08T08:19:27.000Z</time>
      </trkpt>
      <trkpt lat="43.96394" lon="5.05201">
        <ele>104.40000152588</ele>
        <time>2021-05-08T08:19:31.000Z</time>
      </trkpt>
      <trkpt lat="43.96395" lon="5.05211">
        <ele>105</ele>
        <time>2021-05-08T08:19:35.000Z</time>
      </trkpt>
      <trkpt lat="43.96394" lon="5.05215">
        <ele>105.40000152588</ele>
        <time>2021-05-08T08:19:38.000Z</time>
      </trkpt>
      <trkpt lat="43.96395" lon="5.05221">
        <ele>105.59999847412</ele>
        <time>2021-05-08T08:19:42.000Z</time>
      </trkpt>
      <trkpt lat="43.96398" lon="5.05228">
        <ele>106</ele>
        <time>2021-05-08T08:19:45.000Z</time>
      </trkpt>
      <trkpt lat="43.96399" lon="5.0523">
        <ele>106.19999694824</ele>
        <time>2021-05-08T08:19:46.000Z</time>
      </trkpt>
      <trkpt lat="43.96402" lon="5.05238">
        <ele>107.19999694824</ele>
        <time>2021-05-08T08:19:50.000Z</time>
      </trkpt>
      <trkpt lat="43.96402" lon="5.05239">
        <ele>107.40000152588</ele>
        <time>2021-05-08T08:19:51.000Z</time>
      </trkpt>
      <trkpt lat="43.96402" lon="5.05244">
        <ele>107.40000152588</ele>
        <time>2021-05-08T08:19:54.000Z</time>
      </trkpt>
      <trkpt lat="43.96404" lon="5.05255">
        <ele>108.19999694824</ele>
        <time>2021-05-08T08:19:59.000Z</time>
      </trkpt>
      <trkpt lat="43.96411" lon="5.05267">
        <ele>109.40000152588</ele>
        <time>2021-05-08T08:20:05.000Z</time>
      </trkpt>
      <trkpt lat="43.96408" lon="5.05286">
        <ele>110.40000152588</ele>
        <time>2021-05-08T08:20:14.000Z</time>
      </trkpt>
      <trkpt lat="43.9641" lon="5.05299">
        <ele>111</ele>
        <time>2021-05-08T08:20:20.000Z</time>
      </trkpt>
      <trkpt lat="43.96409" lon="5.05302">
        <ele>111.40000152588</ele>
        <time>2021-05-08T08:20:22.000Z</time>
      </trkpt>
      <trkpt lat="43.96414" lon="5.05312">
        <ele>112.40000152588</ele>
        <time>2021-05-08T08:20:28.000Z</time>
      </trkpt>
      <trkpt lat="43.96423" lon="5.05325">
        <ele>113.40000152588</ele>
        <time>2021-05-08T08:20:35.000Z</time>
      </trkpt>
      <trkpt lat="43.96423" lon="5.05327">
        <ele>113.40000152588</ele>
        <time>2021-05-08T08:20:36.000Z</time>
      </trkpt>
      <trkpt lat="43.96423" lon="5.05329">
        <ele>113.80000305176</ele>
        <time>2021-05-08T08:20:38.000Z</time>
      </trkpt>
      <trkpt lat="43.96423" lon="5.05339">
        <ele>114.40000152588</ele>
        <time>2021-05-08T08:20:43.000Z</time>
      </trkpt>
      <trkpt lat="43.96423" lon="5.05355">
        <ele>115.59999847412</ele>
        <time>2021-05-08T08:20:51.000Z</time>
      </trkpt>
      <trkpt lat="43.96423" lon="5.05357">
        <ele>115.59999847412</ele>
        <time>2021-05-08T08:20:52.000Z</time>
      </trkpt>
      <trkpt lat="43.96425" lon="5.05363">
        <ele>116.19999694824</ele>
        <time>2021-05-08T08:20:55.000Z</time>
      </trkpt>
      <trkpt lat="43.96427" lon="5.05364">
        <ele>116.59999847412</ele>
        <time>2021-05-08T08:20:56.000Z</time>
      </trkpt>
      <trkpt lat="43.96429" lon="5.05369">
        <ele>117.59999847412</ele>
        <time>2021-05-08T08:20:59.000Z</time>
      </trkpt>
      <trkpt lat="43.96435" lon="5.05377">
        <ele>118.80000305176</ele>
        <time>2021-05-08T08:21:05.000Z</time>
      </trkpt>
      <trkpt lat="43.96436" lon="5.05378">
        <ele>119</ele>
        <time>2021-05-08T08:21:06.000Z</time>
      </trkpt>
      <trkpt lat="43.96438" lon="5.05381">
        <ele>119.80000305176</ele>
        <time>2021-05-08T08:21:10.000Z</time>
      </trkpt>
      <trkpt lat="43.9644" lon="5.05382">
        <ele>120</ele>
        <time>2021-05-08T08:21:11.000Z</time>
      </trkpt>
      <trkpt lat="43.96448" lon="5.05386">
        <ele>121</ele>
        <time>2021-05-08T08:21:16.000Z</time>
      </trkpt>
      <trkpt lat="43.96456" lon="5.05392">
        <ele>122</ele>
        <time>2021-05-08T08:21:23.000Z</time>
      </trkpt>
      <trkpt lat="43.96459" lon="5.05393">
        <ele>122.40000152588</ele>
        <time>2021-05-08T08:21:25.000Z</time>
      </trkpt>
      <trkpt lat="43.96454" lon="5.05398">
        <ele>123</ele>
        <time>2021-05-08T08:21:37.000Z</time>
      </trkpt>
      <trkpt lat="43.96451" lon="5.05399">
        <ele>123.19999694824</ele>
        <time>2021-05-08T08:21:39.000Z</time>
      </trkpt>
      <trkpt lat="43.96449" lon="5.05402">
        <ele>123</ele>
        <time>2021-05-08T08:21:41.000Z</time>
      </trkpt>
      <trkpt lat="43.96447" lon="5.05407">
        <ele>122.80000305176</ele>
        <time>2021-05-08T08:21:45.000Z</time>
      </trkpt>
      <trkpt lat="43.96436" lon="5.05421">
        <ele>122</ele>
        <time>2021-05-08T08:21:54.000Z</time>
      </trkpt>
      <trkpt lat="43.96429" lon="5.0543">
        <ele>121.80000305176</ele>
        <time>2021-05-08T08:22:01.000Z</time>
      </trkpt>
      <trkpt lat="43.96426" lon="5.05434">
        <ele>121</ele>
        <time>2021-05-08T08:22:03.000Z</time>
      </trkpt>
      <trkpt lat="43.96426" lon="5.05436">
        <ele>120.40000152588</ele>
        <time>2021-05-08T08:22:04.000Z</time>
      </trkpt>
      <trkpt lat="43.96426" lon="5.05442">
        <ele>119.59999847412</ele>
        <time>2021-05-08T08:22:07.000Z</time>
      </trkpt>
      <trkpt lat="43.96425" lon="5.05443">
        <ele>119.40000152588</ele>
        <time>2021-05-08T08:22:08.000Z</time>
      </trkpt>
      <trkpt lat="43.96427" lon="5.05447">
        <ele>119.19999694824</ele>
        <time>2021-05-08T08:22:12.000Z</time>
      </trkpt>
      <trkpt lat="43.96429" lon="5.05451">
        <ele>119.19999694824</ele>
        <time>2021-05-08T08:22:15.000Z</time>
      </trkpt>
      <trkpt lat="43.9643" lon="5.05454">
        <ele>119.40000152588</ele>
        <time>2021-05-08T08:22:17.000Z</time>
      </trkpt>
      <trkpt lat="43.96432" lon="5.05458">
        <ele>119.40000152588</ele>
        <time>2021-05-08T08:22:19.000Z</time>
      </trkpt>
      <trkpt lat="43.96435" lon="5.05468">
        <ele>120.40000152588</ele>
        <time>2021-05-08T08:22:24.000Z</time>
      </trkpt>
      <trkpt lat="43.96435" lon="5.05469">
        <ele>120.40000152588</ele>
        <time>2021-05-08T08:22:25.000Z</time>
      </trkpt>
      <trkpt lat="43.96434" lon="5.05471">
        <ele>120.80000305176</ele>
        <time>2021-05-08T08:22:27.000Z</time>
      </trkpt>
      <trkpt lat="43.96434" lon="5.05476">
        <ele>121.40000152588</ele>
        <time>2021-05-08T08:22:29.000Z</time>
      </trkpt>
      <trkpt lat="43.96435" lon="5.05477">
        <ele>122</ele>
        <time>2021-05-08T08:22:31.000Z</time>
      </trkpt>
      <trkpt lat="43.96438" lon="5.05478">
        <ele>122.40000152588</ele>
        <time>2021-05-08T08:22:32.000Z</time>
      </trkpt>
      <trkpt lat="43.96438" lon="5.05479">
        <ele>123</ele>
        <time>2021-05-08T08:22:33.000Z</time>
      </trkpt>
      <trkpt lat="43.96439" lon="5.05482">
        <ele>123.59999847412</ele>
        <time>2021-05-08T08:22:35.000Z</time>
      </trkpt>
      <trkpt lat="43.9644" lon="5.05485">
        <ele>124</ele>
        <time>2021-05-08T08:22:37.000Z</time>
      </trkpt>
      <trkpt lat="43.9644" lon="5.05491">
        <ele>124.19999694824</ele>
        <time>2021-05-08T08:22:40.000Z</time>
      </trkpt>
      <trkpt lat="43.96441" lon="5.05494">
        <ele>124.40000152588</ele>
        <time>2021-05-08T08:22:42.000Z</time>
      </trkpt>
      <trkpt lat="43.96439" lon="5.05508">
        <ele>124.40000152588</ele>
        <time>2021-05-08T08:22:50.000Z</time>
      </trkpt>
      <trkpt lat="43.96438" lon="5.05511">
        <ele>124.40000152588</ele>
        <time>2021-05-08T08:22:52.000Z</time>
      </trkpt>
      <trkpt lat="43.96435" lon="5.05519">
        <ele>124.40000152588</ele>
        <time>2021-05-08T08:22:57.000Z</time>
      </trkpt>
      <trkpt lat="43.9643" lon="5.05524">
        <ele>123.80000305176</ele>
        <time>2021-05-08T08:23:02.000Z</time>
      </trkpt>
      <trkpt lat="43.96429" lon="5.05527">
        <ele>123.40000152588</ele>
        <time>2021-05-08T08:23:04.000Z</time>
      </trkpt>
      <trkpt lat="43.96429" lon="5.0553">
        <ele>123.40000152588</ele>
        <time>2021-05-08T08:23:06.000Z</time>
      </trkpt>
      <trkpt lat="43.9643" lon="5.05534">
        <ele>123</ele>
        <time>2021-05-08T08:23:09.000Z</time>
      </trkpt>
      <trkpt lat="43.96431" lon="5.05546">
        <ele>122.59999847412</ele>
        <time>2021-05-08T08:23:15.000Z</time>
      </trkpt>
      <trkpt lat="43.96431" lon="5.05548">
        <ele>122.59999847412</ele>
        <time>2021-05-08T08:23:16.000Z</time>
      </trkpt>
      <trkpt lat="43.9643" lon="5.0555">
        <ele>122.59999847412</ele>
        <time>2021-05-08T08:23:18.000Z</time>
      </trkpt>
      <trkpt lat="43.96425" lon="5.05562">
        <ele>122.80000305176</ele>
        <time>2021-05-08T08:23:24.000Z</time>
      </trkpt>
      <trkpt lat="43.96424" lon="5.0557">
        <ele>123.19999694824</ele>
        <time>2021-05-08T08:23:28.000Z</time>
      </trkpt>
      <trkpt lat="43.96423" lon="5.05577">
        <ele>123</ele>
        <time>2021-05-08T08:23:31.000Z</time>
      </trkpt>
      <trkpt lat="43.96424" lon="5.05597">
        <ele>123.19999694824</ele>
        <time>2021-05-08T08:23:39.000Z</time>
      </trkpt>
      <trkpt lat="43.96425" lon="5.05602">
        <ele>123.59999847412</ele>
        <time>2021-05-08T08:23:41.000Z</time>
      </trkpt>
      <trkpt lat="43.96425" lon="5.05608">
        <ele>124.19999694824</ele>
        <time>2021-05-08T08:23:44.000Z</time>
      </trkpt>
      <trkpt lat="43.96424" lon="5.05615">
        <ele>124.19999694824</ele>
        <time>2021-05-08T08:23:47.000Z</time>
      </trkpt>
      <trkpt lat="43.96424" lon="5.05619">
        <ele>124.40000152588</ele>
        <time>2021-05-08T08:23:49.000Z</time>
      </trkpt>
      <trkpt lat="43.96422" lon="5.05622">
        <ele>124.80000305176</ele>
        <time>2021-05-08T08:23:51.000Z</time>
      </trkpt>
      <trkpt lat="43.96419" lon="5.05628">
        <ele>125</ele>
        <time>2021-05-08T08:23:54.000Z</time>
      </trkpt>
      <trkpt lat="43.96422" lon="5.05643">
        <ele>126</ele>
        <time>2021-05-08T08:24:00.000Z</time>
      </trkpt>
      <trkpt lat="43.96422" lon="5.05646">
        <ele>126</ele>
        <time>2021-05-08T08:24:01.000Z</time>
      </trkpt>
      <trkpt lat="43.96423" lon="5.05652">
        <ele>126</ele>
        <time>2021-05-08T08:24:04.000Z</time>
      </trkpt>
      <trkpt lat="43.96422" lon="5.05663">
        <ele>126.19999694824</ele>
        <time>2021-05-08T08:24:11.000Z</time>
      </trkpt>
      <trkpt lat="43.96427" lon="5.05681">
        <ele>126.80000305176</ele>
        <time>2021-05-08T08:24:18.000Z</time>
      </trkpt>
      <trkpt lat="43.96425" lon="5.05693">
        <ele>127</ele>
        <time>2021-05-08T08:24:24.000Z</time>
      </trkpt>
      <trkpt lat="43.96425" lon="5.05701">
        <ele>127.19999694824</ele>
        <time>2021-05-08T08:24:28.000Z</time>
      </trkpt>
      <trkpt lat="43.96427" lon="5.05704">
        <ele>127.19999694824</ele>
        <time>2021-05-08T08:24:30.000Z</time>
      </trkpt>
      <trkpt lat="43.96431" lon="5.05709">
        <ele>128</ele>
        <time>2021-05-08T08:24:33.000Z</time>
      </trkpt>
      <trkpt lat="43.96432" lon="5.0571">
        <ele>128.19999694824</ele>
        <time>2021-05-08T08:24:34.000Z</time>
      </trkpt>
      <trkpt lat="43.96439" lon="5.05728">
        <ele>128.80000305176</ele>
        <time>2021-05-08T08:24:45.000Z</time>
      </trkpt>
      <trkpt lat="43.96441" lon="5.05733">
        <ele>129</ele>
        <time>2021-05-08T08:24:48.000Z</time>
      </trkpt>
      <trkpt lat="43.96444" lon="5.05736">
        <ele>129.19999694824</ele>
        <time>2021-05-08T08:24:51.000Z</time>
      </trkpt>
      <trkpt lat="43.9645" lon="5.05741">
        <ele>129.39999389648</ele>
        <time>2021-05-08T08:24:57.000Z</time>
      </trkpt>
      <trkpt lat="43.96452" lon="5.05741">
        <ele>129.60000610352</ele>
        <time>2021-05-08T08:25:00.000Z</time>
      </trkpt>
      <trkpt lat="43.96459" lon="5.05747">
        <ele>130</ele>
        <time>2021-05-08T08:25:05.000Z</time>
      </trkpt>
      <trkpt lat="43.96466" lon="5.05753">
        <ele>130.19999694824</ele>
        <time>2021-05-08T08:25:10.000Z</time>
      </trkpt>
      <trkpt lat="43.96466" lon="5.05755">
        <ele>130.39999389648</ele>
        <time>2021-05-08T08:25:11.000Z</time>
      </trkpt>
      <trkpt lat="43.96466" lon="5.05756">
        <ele>130.60000610352</ele>
        <time>2021-05-08T08:25:12.000Z</time>
      </trkpt>
      <trkpt lat="43.96467" lon="5.05759">
        <ele>130.60000610352</ele>
        <time>2021-05-08T08:25:14.000Z</time>
      </trkpt>
      <trkpt lat="43.96467" lon="5.05764">
        <ele>130.39999389648</ele>
        <time>2021-05-08T08:25:16.000Z</time>
      </trkpt>
      <trkpt lat="43.96468" lon="5.05767">
        <ele>130</ele>
        <time>2021-05-08T08:25:18.000Z</time>
      </trkpt>
      <trkpt lat="43.96471" lon="5.05775">
        <ele>129.60000610352</ele>
        <time>2021-05-08T08:25:22.000Z</time>
      </trkpt>
      <trkpt lat="43.96479" lon="5.05789">
        <ele>129.60000610352</ele>
        <time>2021-05-08T08:25:30.000Z</time>
      </trkpt>
      <trkpt lat="43.96482" lon="5.05792">
        <ele>129.39999389648</ele>
        <time>2021-05-08T08:25:32.000Z</time>
      </trkpt>
      <trkpt lat="43.9649" lon="5.05809">
        <ele>129.80000305176</ele>
        <time>2021-05-08T08:25:41.000Z</time>
      </trkpt>
      <trkpt lat="43.96493" lon="5.05816">
        <ele>129.39999389648</ele>
        <time>2021-05-08T08:25:45.000Z</time>
      </trkpt>
      <trkpt lat="43.96498" lon="5.05837">
        <ele>129.39999389648</ele>
        <time>2021-05-08T08:25:54.000Z</time>
      </trkpt>
      <trkpt lat="43.96498" lon="5.05848">
        <ele>129.60000610352</ele>
        <time>2021-05-08T08:25:58.000Z</time>
      </trkpt>
      <trkpt lat="43.96499" lon="5.05853">
        <ele>129.60000610352</ele>
        <time>2021-05-08T08:26:00.000Z</time>
      </trkpt>
      <trkpt lat="43.96505" lon="5.0586">
        <ele>130.39999389648</ele>
        <time>2021-05-08T08:26:04.000Z</time>
      </trkpt>
      <trkpt lat="43.96505" lon="5.05862">
        <ele>130.39999389648</ele>
        <time>2021-05-08T08:26:05.000Z</time>
      </trkpt>
      <trkpt lat="43.96506" lon="5.05868">
        <ele>130.39999389648</ele>
        <time>2021-05-08T08:26:09.000Z</time>
      </trkpt>
      <trkpt lat="43.96507" lon="5.0587">
        <ele>130.39999389648</ele>
        <time>2021-05-08T08:26:11.000Z</time>
      </trkpt>
      <trkpt lat="43.9651" lon="5.05875">
        <ele>130.60000610352</ele>
        <time>2021-05-08T08:26:15.000Z</time>
      </trkpt>
      <trkpt lat="43.96513" lon="5.0588">
        <ele>130.60000610352</ele>
        <time>2021-05-08T08:26:18.000Z</time>
      </trkpt>
      <trkpt lat="43.96521" lon="5.05885">
        <ele>131.60000610352</ele>
        <time>2021-05-08T08:26:22.000Z</time>
      </trkpt>
      <trkpt lat="43.96525" lon="5.05889">
        <ele>132</ele>
        <time>2021-05-08T08:26:26.000Z</time>
      </trkpt>
      <trkpt lat="43.96527" lon="5.05896">
        <ele>132</ele>
        <time>2021-05-08T08:26:33.000Z</time>
      </trkpt>
      <trkpt lat="43.96528" lon="5.05904">
        <ele>132.19999694824</ele>
        <time>2021-05-08T08:26:36.000Z</time>
      </trkpt>
      <trkpt lat="43.96532" lon="5.0591">
        <ele>132.60000610352</ele>
        <time>2021-05-08T08:26:39.000Z</time>
      </trkpt>
      <trkpt lat="43.96537" lon="5.05918">
        <ele>132.80000305176</ele>
        <time>2021-05-08T08:26:44.000Z</time>
      </trkpt>
      <trkpt lat="43.96536" lon="5.05921">
        <ele>132.80000305176</ele>
        <time>2021-05-08T08:26:46.000Z</time>
      </trkpt>
      <trkpt lat="43.96538" lon="5.05925">
        <ele>132.80000305176</ele>
        <time>2021-05-08T08:26:49.000Z</time>
      </trkpt>
      <trkpt lat="43.96542" lon="5.05929">
        <ele>132.80000305176</ele>
        <time>2021-05-08T08:26:52.000Z</time>
      </trkpt>
      <trkpt lat="43.96545" lon="5.05932">
        <ele>133</ele>
        <time>2021-05-08T08:26:54.000Z</time>
      </trkpt>
      <trkpt lat="43.9655" lon="5.05937">
        <ele>133.60000610352</ele>
        <time>2021-05-08T08:26:57.000Z</time>
      </trkpt>
      <trkpt lat="43.9655" lon="5.05938">
        <ele>133.80000305176</ele>
        <time>2021-05-08T08:26:58.000Z</time>
      </trkpt>
      <trkpt lat="43.96552" lon="5.05949">
        <ele>134.60000610352</ele>
        <time>2021-05-08T08:27:04.000Z</time>
      </trkpt>
      <trkpt lat="43.96552" lon="5.05953">
        <ele>134.80000305176</ele>
        <time>2021-05-08T08:27:06.000Z</time>
      </trkpt>
      <trkpt lat="43.96553" lon="5.05955">
        <ele>134.80000305176</ele>
        <time>2021-05-08T08:27:07.000Z</time>
      </trkpt>
      <trkpt lat="43.96554" lon="5.05959">
        <ele>135</ele>
        <time>2021-05-08T08:27:11.000Z</time>
      </trkpt>
      <trkpt lat="43.96556" lon="5.05958">
        <ele>135.19999694824</ele>
        <time>2021-05-08T08:27:16.000Z</time>
      </trkpt>
      <trkpt lat="43.96557" lon="5.05958">
        <ele>135.39999389648</ele>
        <time>2021-05-08T08:27:17.000Z</time>
      </trkpt>
      <trkpt lat="43.9656" lon="5.0596">
        <ele>135.80000305176</ele>
        <time>2021-05-08T08:27:21.000Z</time>
      </trkpt>
      <trkpt lat="43.96561" lon="5.05961">
        <ele>136</ele>
        <time>2021-05-08T08:27:22.000Z</time>
      </trkpt>
      <trkpt lat="43.96566" lon="5.05961">
        <ele>136.80000305176</ele>
        <time>2021-05-08T08:27:25.000Z</time>
      </trkpt>
      <trkpt lat="43.96574" lon="5.05953">
        <ele>137.80000305176</ele>
        <time>2021-05-08T08:27:31.000Z</time>
      </trkpt>
      <trkpt lat="43.96575" lon="5.05952">
        <ele>138</ele>
        <time>2021-05-08T08:27:32.000Z</time>
      </trkpt>
      <trkpt lat="43.9658" lon="5.05947">
        <ele>139</ele>
        <time>2021-05-08T08:27:36.000Z</time>
      </trkpt>
      <trkpt lat="43.96581" lon="5.05946">
        <ele>139.19999694824</ele>
        <time>2021-05-08T08:27:37.000Z</time>
      </trkpt>
      <trkpt lat="43.96582" lon="5.05946">
        <ele>139.39999389648</ele>
        <time>2021-05-08T08:27:38.000Z</time>
      </trkpt>
      <trkpt lat="43.96583" lon="5.05944">
        <ele>139.80000305176</ele>
        <time>2021-05-08T08:27:40.000Z</time>
      </trkpt>
      <trkpt lat="43.96583" lon="5.05944">
        <ele>140.19999694824</ele>
        <time>2021-05-08T08:27:42.000Z</time>
      </trkpt>
      <trkpt lat="43.96585" lon="5.05947">
        <ele>140.80000305176</ele>
        <time>2021-05-08T08:27:45.000Z</time>
      </trkpt>
      <trkpt lat="43.96588" lon="5.05949">
        <ele>141.39999389648</ele>
        <time>2021-05-08T08:27:47.000Z</time>
      </trkpt>
      <trkpt lat="43.96591" lon="5.05952">
        <ele>142.39999389648</ele>
        <time>2021-05-08T08:27:50.000Z</time>
      </trkpt>
      <trkpt lat="43.96592" lon="5.05953">
        <ele>142.80000305176</ele>
        <time>2021-05-08T08:27:51.000Z</time>
      </trkpt>
      <trkpt lat="43.96592" lon="5.05954">
        <ele>143.19999694824</ele>
        <time>2021-05-08T08:27:52.000Z</time>
      </trkpt>
      <trkpt lat="43.96592" lon="5.05958">
        <ele>143.80000305176</ele>
        <time>2021-05-08T08:27:54.000Z</time>
      </trkpt>
      <trkpt lat="43.96594" lon="5.05961">
        <ele>144.60000610352</ele>
        <time>2021-05-08T08:27:56.000Z</time>
      </trkpt>
      <trkpt lat="43.96594" lon="5.05963">
        <ele>144.80000305176</ele>
        <time>2021-05-08T08:27:57.000Z</time>
      </trkpt>
      <trkpt lat="43.96593" lon="5.05966">
        <ele>145.19999694824</ele>
        <time>2021-05-08T08:27:59.000Z</time>
      </trkpt>
      <trkpt lat="43.96592" lon="5.05974">
        <ele>145.19999694824</ele>
        <time>2021-05-08T08:28:03.000Z</time>
      </trkpt>
      <trkpt lat="43.96591" lon="5.05976">
        <ele>145</ele>
        <time>2021-05-08T08:28:05.000Z</time>
      </trkpt>
      <trkpt lat="43.96592" lon="5.05981">
        <ele>145.19999694824</ele>
        <time>2021-05-08T08:28:09.000Z</time>
      </trkpt>
      <trkpt lat="43.96594" lon="5.05986">
        <ele>145.19999694824</ele>
        <time>2021-05-08T08:28:12.000Z</time>
      </trkpt>
      <trkpt lat="43.96596" lon="5.05993">
        <ele>145.39999389648</ele>
        <time>2021-05-08T08:28:17.000Z</time>
      </trkpt>
      <trkpt lat="43.96598" lon="5.05995">
        <ele>145.60000610352</ele>
        <time>2021-05-08T08:28:19.000Z</time>
      </trkpt>
      <trkpt lat="43.966" lon="5.05996">
        <ele>146</ele>
        <time>2021-05-08T08:28:21.000Z</time>
      </trkpt>
      <trkpt lat="43.96601" lon="5.05998">
        <ele>146.19999694824</ele>
        <time>2021-05-08T08:28:22.000Z</time>
      </trkpt>
      <trkpt lat="43.96603" lon="5.06003">
        <ele>146.39999389648</ele>
        <time>2021-05-08T08:28:25.000Z</time>
      </trkpt>
      <trkpt lat="43.96603" lon="5.06007">
        <ele>146.60000610352</ele>
        <time>2021-05-08T08:28:28.000Z</time>
      </trkpt>
      <trkpt lat="43.96607" lon="5.06008">
        <ele>146.80000305176</ele>
        <time>2021-05-08T08:28:33.000Z</time>
      </trkpt>
      <trkpt lat="43.96612" lon="5.06007">
        <ele>146.80000305176</ele>
        <time>2021-05-08T08:28:35.000Z</time>
      </trkpt>
      <trkpt lat="43.96616" lon="5.06008">
        <ele>147</ele>
        <time>2021-05-08T08:28:37.000Z</time>
      </trkpt>
      <trkpt lat="43.96617" lon="5.06009">
        <ele>147.19999694824</ele>
        <time>2021-05-08T08:28:38.000Z</time>
      </trkpt>
      <trkpt lat="43.96623" lon="5.06014">
        <ele>147.19999694824</ele>
        <time>2021-05-08T08:28:42.000Z</time>
      </trkpt>
      <trkpt lat="43.96627" lon="5.06019">
        <ele>147</ele>
        <time>2021-05-08T08:28:46.000Z</time>
      </trkpt>
      <trkpt lat="43.96632" lon="5.06025">
        <ele>146.60000610352</ele>
        <time>2021-05-08T08:28:50.000Z</time>
      </trkpt>
      <trkpt lat="43.96646" lon="5.06044">
        <ele>146</ele>
        <time>2021-05-08T08:29:02.000Z</time>
      </trkpt>
      <trkpt lat="43.96656" lon="5.06052">
        <ele>145.39999389648</ele>
        <time>2021-05-08T08:29:11.000Z</time>
      </trkpt>
      <trkpt lat="43.96659" lon="5.06055">
        <ele>145.39999389648</ele>
        <time>2021-05-08T08:29:14.000Z</time>
      </trkpt>
      <trkpt lat="43.96664" lon="5.06058">
        <ele>145.60000610352</ele>
        <time>2021-05-08T08:29:17.000Z</time>
      </trkpt>
      <trkpt lat="43.96676" lon="5.06064">
        <ele>146</ele>
        <time>2021-05-08T08:29:23.000Z</time>
      </trkpt>
      <trkpt lat="43.96679" lon="5.06066">
        <ele>145.80000305176</ele>
        <time>2021-05-08T08:29:27.000Z</time>
      </trkpt>
      <trkpt lat="43.96682" lon="5.0607">
        <ele>146.19999694824</ele>
        <time>2021-05-08T08:29:31.000Z</time>
      </trkpt>
      <trkpt lat="43.96684" lon="5.06071">
        <ele>146.19999694824</ele>
        <time>2021-05-08T08:29:33.000Z</time>
      </trkpt>
      <trkpt lat="43.96702" lon="5.06076">
        <ele>147</ele>
        <time>2021-05-08T08:29:44.000Z</time>
      </trkpt>
      <trkpt lat="43.96706" lon="5.06077">
        <ele>147</ele>
        <time>2021-05-08T08:29:47.000Z</time>
      </trkpt>
      <trkpt lat="43.96708" lon="5.06078">
        <ele>147</ele>
        <time>2021-05-08T08:29:48.000Z</time>
      </trkpt>
      <trkpt lat="43.96713" lon="5.06079">
        <ele>147.19999694824</ele>
        <time>2021-05-08T08:29:52.000Z</time>
      </trkpt>
      <trkpt lat="43.96722" lon="5.06085">
        <ele>147.60000610352</ele>
        <time>2021-05-08T08:29:59.000Z</time>
      </trkpt>
      <trkpt lat="43.96724" lon="5.06087">
        <ele>148</ele>
        <time>2021-05-08T08:30:03.000Z</time>
      </trkpt>
      <trkpt lat="43.96727" lon="5.06088">
        <ele>148.19999694824</ele>
        <time>2021-05-08T08:30:05.000Z</time>
      </trkpt>
      <trkpt lat="43.96732" lon="5.06089">
        <ele>148.19999694824</ele>
        <time>2021-05-08T08:30:08.000Z</time>
      </trkpt>
      <trkpt lat="43.96737" lon="5.06092">
        <ele>148.39999389648</ele>
        <time>2021-05-08T08:30:11.000Z</time>
      </trkpt>
      <trkpt lat="43.96743" lon="5.06095">
        <ele>148.60000610352</ele>
        <time>2021-05-08T08:30:15.000Z</time>
      </trkpt>
      <trkpt lat="43.96747" lon="5.06099">
        <ele>149.19999694824</ele>
        <time>2021-05-08T08:30:20.000Z</time>
      </trkpt>
      <trkpt lat="43.96757" lon="5.06103">
        <ele>150.39999389648</ele>
        <time>2021-05-08T08:30:26.000Z</time>
      </trkpt>
      <trkpt lat="43.96771" lon="5.06115">
        <ele>150.80000305176</ele>
        <time>2021-05-08T08:30:36.000Z</time>
      </trkpt>
      <trkpt lat="43.96772" lon="5.06118">
        <ele>151</ele>
        <time>2021-05-08T08:30:39.000Z</time>
      </trkpt>
      <trkpt lat="43.96774" lon="5.0612">
        <ele>151.19999694824</ele>
        <time>2021-05-08T08:30:41.000Z</time>
      </trkpt>
      <trkpt lat="43.96776" lon="5.06122">
        <ele>151.60000610352</ele>
        <time>2021-05-08T08:30:44.000Z</time>
      </trkpt>
      <trkpt lat="43.96778" lon="5.0613">
        <ele>152</ele>
        <time>2021-05-08T08:30:48.000Z</time>
      </trkpt>
      <trkpt lat="43.9678" lon="5.06138">
        <ele>152.39999389648</ele>
        <time>2021-05-08T08:30:52.000Z</time>
      </trkpt>
      <trkpt lat="43.96779" lon="5.06145">
        <ele>152</ele>
        <time>2021-05-08T08:30:55.000Z</time>
      </trkpt>
      <trkpt lat="43.96786" lon="5.06161">
        <ele>152.19999694824</ele>
        <time>2021-05-08T08:31:04.000Z</time>
      </trkpt>
      <trkpt lat="43.96786" lon="5.06164">
        <ele>152.19999694824</ele>
        <time>2021-05-08T08:31:06.000Z</time>
      </trkpt>
      <trkpt lat="43.96785" lon="5.06173">
        <ele>152</ele>
        <time>2021-05-08T08:31:12.000Z</time>
      </trkpt>
      <trkpt lat="43.96785" lon="5.06184">
        <ele>152</ele>
        <time>2021-05-08T08:31:16.000Z</time>
      </trkpt>
      <trkpt lat="43.96792" lon="5.06196">
        <ele>152.60000610352</ele>
        <time>2021-05-08T08:31:21.000Z</time>
      </trkpt>
      <trkpt lat="43.96795" lon="5.06205">
        <ele>152.80000305176</ele>
        <time>2021-05-08T08:31:25.000Z</time>
      </trkpt>
      <trkpt lat="43.96786" lon="5.06228">
        <ele>153</ele>
        <time>2021-05-08T08:31:40.000Z</time>
      </trkpt>
      <trkpt lat="43.96786" lon="5.06232">
        <ele>153</ele>
        <time>2021-05-08T08:31:43.000Z</time>
      </trkpt>
      <trkpt lat="43.96782" lon="5.06235">
        <ele>153</ele>
        <time>2021-05-08T08:31:59.000Z</time>
      </trkpt>
      <trkpt lat="43.96779" lon="5.06239">
        <ele>153</ele>
        <time>2021-05-08T08:32:17.000Z</time>
      </trkpt>
      <trkpt lat="43.96777" lon="5.06246">
        <ele>153.60000610352</ele>
        <time>2021-05-08T08:32:22.000Z</time>
      </trkpt>
      <trkpt lat="43.96776" lon="5.06247">
        <ele>153.60000610352</ele>
        <time>2021-05-08T08:32:23.000Z</time>
      </trkpt>
      <trkpt lat="43.96772" lon="5.06254">
        <ele>154</ele>
        <time>2021-05-08T08:32:27.000Z</time>
      </trkpt>
      <trkpt lat="43.96769" lon="5.06255">
        <ele>154.19999694824</ele>
        <time>2021-05-08T08:32:30.000Z</time>
      </trkpt>
      <trkpt lat="43.96767" lon="5.06255">
        <ele>154.39999389648</ele>
        <time>2021-05-08T08:32:32.000Z</time>
      </trkpt>
      <trkpt lat="43.96766" lon="5.06255">
        <ele>154.80000305176</ele>
        <time>2021-05-08T08:32:33.000Z</time>
      </trkpt>
      <trkpt lat="43.96764" lon="5.06257">
        <ele>155.60000610352</ele>
        <time>2021-05-08T08:32:35.000Z</time>
      </trkpt>
      <trkpt lat="43.96764" lon="5.06259">
        <ele>156</ele>
        <time>2021-05-08T08:32:36.000Z</time>
      </trkpt>
      <trkpt lat="43.96763" lon="5.06261">
        <ele>156.60000610352</ele>
        <time>2021-05-08T08:32:37.000Z</time>
      </trkpt>
      <trkpt lat="43.96762" lon="5.06265">
        <ele>157.39999389648</ele>
        <time>2021-05-08T08:32:39.000Z</time>
      </trkpt>
      <trkpt lat="43.96761" lon="5.06267">
        <ele>157.80000305176</ele>
        <time>2021-05-08T08:32:40.000Z</time>
      </trkpt>
      <trkpt lat="43.96756" lon="5.06269">
        <ele>158.60000610352</ele>
        <time>2021-05-08T08:32:44.000Z</time>
      </trkpt>
      <trkpt lat="43.96756" lon="5.06268">
        <ele>159</ele>
        <time>2021-05-08T08:32:46.000Z</time>
      </trkpt>
      <trkpt lat="43.9674" lon="5.06257">
        <ele>158.60000610352</ele>
        <time>2021-05-08T08:33:09.000Z</time>
      </trkpt>
      <trkpt lat="43.96734" lon="5.06253">
        <ele>157.80000305176</ele>
        <time>2021-05-08T08:33:13.000Z</time>
      </trkpt>
      <trkpt lat="43.96732" lon="5.06252">
        <ele>157.39999389648</ele>
        <time>2021-05-08T08:33:15.000Z</time>
      </trkpt>
      <trkpt lat="43.96727" lon="5.0625">
        <ele>157</ele>
        <time>2021-05-08T08:33:19.000Z</time>
      </trkpt>
      <trkpt lat="43.96723" lon="5.06249">
        <ele>156.39999389648</ele>
        <time>2021-05-08T08:33:21.000Z</time>
      </trkpt>
      <trkpt lat="43.96722" lon="5.06248">
        <ele>156.19999694824</ele>
        <time>2021-05-08T08:33:22.000Z</time>
      </trkpt>
      <trkpt lat="43.96714" lon="5.06243">
        <ele>155</ele>
        <time>2021-05-08T08:33:28.000Z</time>
      </trkpt>
      <trkpt lat="43.96702" lon="5.06237">
        <ele>154</ele>
        <time>2021-05-08T08:33:34.000Z</time>
      </trkpt>
      <trkpt lat="43.96694" lon="5.06232">
        <ele>152.80000305176</ele>
        <time>2021-05-08T08:33:39.000Z</time>
      </trkpt>
      <trkpt lat="43.96678" lon="5.0622">
        <ele>151.80000305176</ele>
        <time>2021-05-08T08:33:51.000Z</time>
      </trkpt>
      <trkpt lat="43.96676" lon="5.06218">
        <ele>150.60000610352</ele>
        <time>2021-05-08T08:33:53.000Z</time>
      </trkpt>
      <trkpt lat="43.96673" lon="5.06215">
        <ele>149.39999389648</ele>
        <time>2021-05-08T08:33:55.000Z</time>
      </trkpt>
      <trkpt lat="43.96667" lon="5.06212">
        <ele>148.19999694824</ele>
        <time>2021-05-08T08:33:59.000Z</time>
      </trkpt>
      <trkpt lat="43.96659" lon="5.06207">
        <ele>147.19999694824</ele>
        <time>2021-05-08T08:34:05.000Z</time>
      </trkpt>
      <trkpt lat="43.96647" lon="5.06204">
        <ele>146</ele>
        <time>2021-05-08T08:34:12.000Z</time>
      </trkpt>
      <trkpt lat="43.96638" lon="5.06201">
        <ele>145</ele>
        <time>2021-05-08T08:34:16.000Z</time>
      </trkpt>
      <trkpt lat="43.9663" lon="5.06199">
        <ele>143.60000610352</ele>
        <time>2021-05-08T08:34:21.000Z</time>
      </trkpt>
      <trkpt lat="43.96622" lon="5.06198">
        <ele>142.60000610352</ele>
        <time>2021-05-08T08:34:26.000Z</time>
      </trkpt>
      <trkpt lat="43.96611" lon="5.06203">
        <ele>142.39999389648</ele>
        <time>2021-05-08T08:34:34.000Z</time>
      </trkpt>
      <trkpt lat="43.96611" lon="5.06203">
        <ele>142.60000610352</ele>
        <time>2021-05-08T08:34:36.000Z</time>
      </trkpt>
      <trkpt lat="43.9661" lon="5.06204">
        <ele>142.60000610352</ele>
        <time>2021-05-08T08:34:38.000Z</time>
      </trkpt>
      <trkpt lat="43.96608" lon="5.06205">
        <ele>142.60000610352</ele>
        <time>2021-05-08T08:34:40.000Z</time>
      </trkpt>
      <trkpt lat="43.96602" lon="5.06208">
        <ele>142.80000305176</ele>
        <time>2021-05-08T08:34:44.000Z</time>
      </trkpt>
      <trkpt lat="43.96597" lon="5.0622">
        <ele>143.19999694824</ele>
        <time>2021-05-08T08:34:51.000Z</time>
      </trkpt>
      <trkpt lat="43.96596" lon="5.06224">
        <ele>143.39999389648</ele>
        <time>2021-05-08T08:34:53.000Z</time>
      </trkpt>
      <trkpt lat="43.96596" lon="5.06227">
        <ele>143.60000610352</ele>
        <time>2021-05-08T08:34:54.000Z</time>
      </trkpt>
      <trkpt lat="43.96597" lon="5.0623">
        <ele>143.80000305176</ele>
        <time>2021-05-08T08:34:55.000Z</time>
      </trkpt>
      <trkpt lat="43.96599" lon="5.06236">
        <ele>144.39999389648</ele>
        <time>2021-05-08T08:34:58.000Z</time>
      </trkpt>
      <trkpt lat="43.96599" lon="5.06238">
        <ele>144.80000305176</ele>
        <time>2021-05-08T08:35:00.000Z</time>
      </trkpt>
      <trkpt lat="43.96599" lon="5.06244">
        <ele>145.19999694824</ele>
        <time>2021-05-08T08:35:03.000Z</time>
      </trkpt>
      <trkpt lat="43.96602" lon="5.06248">
        <ele>145.80000305176</ele>
        <time>2021-05-08T08:35:05.000Z</time>
      </trkpt>
      <trkpt lat="43.96604" lon="5.06252">
        <ele>146.39999389648</ele>
        <time>2021-05-08T08:35:07.000Z</time>
      </trkpt>
      <trkpt lat="43.96603" lon="5.06259">
        <ele>147</ele>
        <time>2021-05-08T08:35:11.000Z</time>
      </trkpt>
      <trkpt lat="43.96607" lon="5.06266">
        <ele>148.19999694824</ele>
        <time>2021-05-08T08:35:15.000Z</time>
      </trkpt>
      <trkpt lat="43.96606" lon="5.06267">
        <ele>148.39999389648</ele>
        <time>2021-05-08T08:35:16.000Z</time>
      </trkpt>
      <trkpt lat="43.96605" lon="5.06274">
        <ele>149</ele>
        <time>2021-05-08T08:35:20.000Z</time>
      </trkpt>
      <trkpt lat="43.96605" lon="5.06276">
        <ele>149.19999694824</ele>
        <time>2021-05-08T08:35:21.000Z</time>
      </trkpt>
      <trkpt lat="43.96606" lon="5.06279">
        <ele>149.39999389648</ele>
        <time>2021-05-08T08:35:22.000Z</time>
      </trkpt>
      <trkpt lat="43.96609" lon="5.06287">
        <ele>150.39999389648</ele>
        <time>2021-05-08T08:35:26.000Z</time>
      </trkpt>
      <trkpt lat="43.96609" lon="5.06291">
        <ele>150.80000305176</ele>
        <time>2021-05-08T08:35:28.000Z</time>
      </trkpt>
      <trkpt lat="43.96608" lon="5.063">
        <ele>151.39999389648</ele>
        <time>2021-05-08T08:35:32.000Z</time>
      </trkpt>
      <trkpt lat="43.96609" lon="5.06304">
        <ele>151.60000610352</ele>
        <time>2021-05-08T08:35:34.000Z</time>
      </trkpt>
      <trkpt lat="43.9661" lon="5.06309">
        <ele>151.80000305176</ele>
        <time>2021-05-08T08:35:36.000Z</time>
      </trkpt>
      <trkpt lat="43.96608" lon="5.0632">
        <ele>152.19999694824</ele>
        <time>2021-05-08T08:35:42.000Z</time>
      </trkpt>
      <trkpt lat="43.96609" lon="5.06325">
        <ele>152.60000610352</ele>
        <time>2021-05-08T08:35:45.000Z</time>
      </trkpt>
      <trkpt lat="43.96609" lon="5.06327">
        <ele>152.60000610352</ele>
        <time>2021-05-08T08:35:46.000Z</time>
      </trkpt>
      <trkpt lat="43.96609" lon="5.06328">
        <ele>152.80000305176</ele>
        <time>2021-05-08T08:35:47.000Z</time>
      </trkpt>
      <trkpt lat="43.96609" lon="5.0633">
        <ele>153</ele>
        <time>2021-05-08T08:35:49.000Z</time>
      </trkpt>
      <trkpt lat="43.96609" lon="5.06334">
        <ele>153.60000610352</ele>
        <time>2021-05-08T08:35:52.000Z</time>
      </trkpt>
      <trkpt lat="43.96608" lon="5.06339">
        <ele>153.80000305176</ele>
        <time>2021-05-08T08:35:54.000Z</time>
      </trkpt>
      <trkpt lat="43.96608" lon="5.06359">
        <ele>153</ele>
        <time>2021-05-08T08:36:06.000Z</time>
      </trkpt>
      <trkpt lat="43.96609" lon="5.06377">
        <ele>153.19999694824</ele>
        <time>2021-05-08T08:36:14.000Z</time>
      </trkpt>
      <trkpt lat="43.96617" lon="5.06384">
        <ele>154</ele>
        <time>2021-05-08T08:36:20.000Z</time>
      </trkpt>
      <trkpt lat="43.96619" lon="5.06385">
        <ele>154.19999694824</ele>
        <time>2021-05-08T08:36:22.000Z</time>
      </trkpt>
      <trkpt lat="43.9662" lon="5.06392">
        <ele>154.80000305176</ele>
        <time>2021-05-08T08:36:27.000Z</time>
      </trkpt>
      <trkpt lat="43.96623" lon="5.06394">
        <ele>155</ele>
        <time>2021-05-08T08:36:29.000Z</time>
      </trkpt>
      <trkpt lat="43.96625" lon="5.06397">
        <ele>155.19999694824</ele>
        <time>2021-05-08T08:36:31.000Z</time>
      </trkpt>
      <trkpt lat="43.96628" lon="5.06401">
        <ele>155.60000610352</ele>
        <time>2021-05-08T08:36:33.000Z</time>
      </trkpt>
      <trkpt lat="43.96628" lon="5.06404">
        <ele>155.80000305176</ele>
        <time>2021-05-08T08:36:35.000Z</time>
      </trkpt>
      <trkpt lat="43.96628" lon="5.06405">
        <ele>156</ele>
        <time>2021-05-08T08:36:36.000Z</time>
      </trkpt>
      <trkpt lat="43.96628" lon="5.06407">
        <ele>156.19999694824</ele>
        <time>2021-05-08T08:36:37.000Z</time>
      </trkpt>
      <trkpt lat="43.96631" lon="5.06409">
        <ele>157</ele>
        <time>2021-05-08T08:36:39.000Z</time>
      </trkpt>
      <trkpt lat="43.96634" lon="5.06411">
        <ele>157.60000610352</ele>
        <time>2021-05-08T08:36:41.000Z</time>
      </trkpt>
      <trkpt lat="43.96634" lon="5.06414">
        <ele>158</ele>
        <time>2021-05-08T08:36:43.000Z</time>
      </trkpt>
      <trkpt lat="43.96631" lon="5.06421">
        <ele>158.39999389648</ele>
        <time>2021-05-08T08:36:48.000Z</time>
      </trkpt>
      <trkpt lat="43.9663" lon="5.06429">
        <ele>158.60000610352</ele>
        <time>2021-05-08T08:36:51.000Z</time>
      </trkpt>
      <trkpt lat="43.96631" lon="5.06435">
        <ele>158.80000305176</ele>
        <time>2021-05-08T08:36:54.000Z</time>
      </trkpt>
      <trkpt lat="43.96634" lon="5.06446">
        <ele>158.39999389648</ele>
        <time>2021-05-08T08:37:01.000Z</time>
      </trkpt>
      <trkpt lat="43.96643" lon="5.0646">
        <ele>158.39999389648</ele>
        <time>2021-05-08T08:37:56.000Z</time>
      </trkpt>
      <trkpt lat="43.9663" lon="5.06458">
        <ele>158.39999389648</ele>
        <time>2021-05-08T08:39:03.000Z</time>
      </trkpt>
      <trkpt lat="43.96629" lon="5.06459">
        <ele>158.39999389648</ele>
        <time>2021-05-08T08:39:04.000Z</time>
      </trkpt>
      <trkpt lat="43.96629" lon="5.06466">
        <ele>158.80000305176</ele>
        <time>2021-05-08T08:39:08.000Z</time>
      </trkpt>
      <trkpt lat="43.96629" lon="5.06471">
        <ele>159.19999694824</ele>
        <time>2021-05-08T08:39:10.000Z</time>
      </trkpt>
      <trkpt lat="43.96628" lon="5.06476">
        <ele>159.19999694824</ele>
        <time>2021-05-08T08:39:12.000Z</time>
      </trkpt>
      <trkpt lat="43.96632" lon="5.0648">
        <ele>160</ele>
        <time>2021-05-08T08:39:16.000Z</time>
      </trkpt>
      <trkpt lat="43.96633" lon="5.06481">
        <ele>160.19999694824</ele>
        <time>2021-05-08T08:39:17.000Z</time>
      </trkpt>
      <trkpt lat="43.96633" lon="5.06485">
        <ele>160.60000610352</ele>
        <time>2021-05-08T08:39:19.000Z</time>
      </trkpt>
      <trkpt lat="43.96633" lon="5.06505">
        <ele>161</ele>
        <time>2021-05-08T08:39:29.000Z</time>
      </trkpt>
      <trkpt lat="43.96636" lon="5.0651">
        <ele>161.39999389648</ele>
        <time>2021-05-08T08:39:32.000Z</time>
      </trkpt>
      <trkpt lat="43.96637" lon="5.06519">
        <ele>162.19999694824</ele>
        <time>2021-05-08T08:39:38.000Z</time>
      </trkpt>
      <trkpt lat="43.96636" lon="5.06525">
        <ele>162.39999389648</ele>
        <time>2021-05-08T08:39:41.000Z</time>
      </trkpt>
      <trkpt lat="43.96637" lon="5.06527">
        <ele>162.80000305176</ele>
        <time>2021-05-08T08:39:43.000Z</time>
      </trkpt>
      <trkpt lat="43.96638" lon="5.06536">
        <ele>163.60000610352</ele>
        <time>2021-05-08T08:39:47.000Z</time>
      </trkpt>
      <trkpt lat="43.96643" lon="5.06543">
        <ele>165.19999694824</ele>
        <time>2021-05-08T08:39:51.000Z</time>
      </trkpt>
      <trkpt lat="43.96644" lon="5.06546">
        <ele>166.19999694824</ele>
        <time>2021-05-08T08:39:54.000Z</time>
      </trkpt>
      <trkpt lat="43.96646" lon="5.06556">
        <ele>167.19999694824</ele>
        <time>2021-05-08T08:40:01.000Z</time>
      </trkpt>
      <trkpt lat="43.96645" lon="5.06558">
        <ele>167.39999389648</ele>
        <time>2021-05-08T08:40:02.000Z</time>
      </trkpt>
      <trkpt lat="43.96644" lon="5.06563">
        <ele>168</ele>
        <time>2021-05-08T08:40:04.000Z</time>
      </trkpt>
      <trkpt lat="43.96644" lon="5.06565">
        <ele>168.39999389648</ele>
        <time>2021-05-08T08:40:05.000Z</time>
      </trkpt>
      <trkpt lat="43.96642" lon="5.06568">
        <ele>169.60000610352</ele>
        <time>2021-05-08T08:40:08.000Z</time>
      </trkpt>
      <trkpt lat="43.96641" lon="5.06572">
        <ele>170.19999694824</ele>
        <time>2021-05-08T08:40:10.000Z</time>
      </trkpt>
      <trkpt lat="43.96643" lon="5.06577">
        <ele>170.80000305176</ele>
        <time>2021-05-08T08:40:13.000Z</time>
      </trkpt>
      <trkpt lat="43.96646" lon="5.06585">
        <ele>172</ele>
        <time>2021-05-08T08:40:18.000Z</time>
      </trkpt>
      <trkpt lat="43.96649" lon="5.0659">
        <ele>173</ele>
        <time>2021-05-08T08:40:22.000Z</time>
      </trkpt>
      <trkpt lat="43.96651" lon="5.06593">
        <ele>174</ele>
        <time>2021-05-08T08:40:25.000Z</time>
      </trkpt>
      <trkpt lat="43.96652" lon="5.06594">
        <ele>174.19999694824</ele>
        <time>2021-05-08T08:40:26.000Z</time>
      </trkpt>
      <trkpt lat="43.96653" lon="5.06595">
        <ele>174.60000610352</ele>
        <time>2021-05-08T08:40:28.000Z</time>
      </trkpt>
      <trkpt lat="43.96655" lon="5.06597">
        <ele>175</ele>
        <time>2021-05-08T08:40:30.000Z</time>
      </trkpt>
      <trkpt lat="43.96656" lon="5.06597">
        <ele>175.39999389648</ele>
        <time>2021-05-08T08:40:31.000Z</time>
      </trkpt>
      <trkpt lat="43.96661" lon="5.06597">
        <ele>175.80000305176</ele>
        <time>2021-05-08T08:40:34.000Z</time>
      </trkpt>
      <trkpt lat="43.96671" lon="5.06597">
        <ele>176.39999389648</ele>
        <time>2021-05-08T08:40:43.000Z</time>
      </trkpt>
      <trkpt lat="43.96671" lon="5.06594">
        <ele>176.80000305176</ele>
        <time>2021-05-08T08:40:47.000Z</time>
      </trkpt>
      <trkpt lat="43.96671" lon="5.06593">
        <ele>176.80000305176</ele>
        <time>2021-05-08T08:40:49.000Z</time>
      </trkpt>
      <trkpt lat="43.96675" lon="5.06591">
        <ele>176.80000305176</ele>
        <time>2021-05-08T08:40:53.000Z</time>
      </trkpt>
      <trkpt lat="43.96676" lon="5.0659">
        <ele>176.80000305176</ele>
        <time>2021-05-08T08:40:55.000Z</time>
      </trkpt>
      <trkpt lat="43.96692" lon="5.06588">
        <ele>177</ele>
        <time>2021-05-08T08:41:07.000Z</time>
      </trkpt>
      <trkpt lat="43.96699" lon="5.06592">
        <ele>177.39999389648</ele>
        <time>2021-05-08T08:41:11.000Z</time>
      </trkpt>
      <trkpt lat="43.96703" lon="5.06591">
        <ele>177.39999389648</ele>
        <time>2021-05-08T08:41:14.000Z</time>
      </trkpt>
      <trkpt lat="43.96716" lon="5.06579">
        <ele>177.19999694824</ele>
        <time>2021-05-08T08:41:24.000Z</time>
      </trkpt>
      <trkpt lat="43.96731" lon="5.06563">
        <ele>177</ele>
        <time>2021-05-08T08:41:35.000Z</time>
      </trkpt>
      <trkpt lat="43.96738" lon="5.0655">
        <ele>176.19999694824</ele>
        <time>2021-05-08T08:41:43.000Z</time>
      </trkpt>
      <trkpt lat="43.96742" lon="5.06545">
        <ele>175.19999694824</ele>
        <time>2021-05-08T08:41:45.000Z</time>
      </trkpt>
      <trkpt lat="43.96742" lon="5.06545">
        <ele>174.80000305176</ele>
        <time>2021-05-08T08:41:46.000Z</time>
      </trkpt>
      <trkpt lat="43.96755" lon="5.06529">
        <ele>176</ele>
        <time>2021-05-08T08:41:59.000Z</time>
      </trkpt>
      <trkpt lat="43.96758" lon="5.06524">
        <ele>176.80000305176</ele>
        <time>2021-05-08T08:42:04.000Z</time>
      </trkpt>
      <trkpt lat="43.96766" lon="5.06501">
        <ele>175.80000305176</ele>
        <time>2021-05-08T08:42:15.000Z</time>
      </trkpt>
      <trkpt lat="43.96774" lon="5.06477">
        <ele>175.19999694824</ele>
        <time>2021-05-08T08:42:28.000Z</time>
      </trkpt>
      <trkpt lat="43.96774" lon="5.06472">
        <ele>175</ele>
        <time>2021-05-08T08:42:31.000Z</time>
      </trkpt>
      <trkpt lat="43.9678" lon="5.0646">
        <ele>175.60000610352</ele>
        <time>2021-05-08T08:42:39.000Z</time>
      </trkpt>
      <trkpt lat="43.96781" lon="5.06458">
        <ele>176</ele>
        <time>2021-05-08T08:42:40.000Z</time>
      </trkpt>
      <trkpt lat="43.96781" lon="5.06453">
        <ele>177.19999694824</ele>
        <time>2021-05-08T08:42:43.000Z</time>
      </trkpt>
      <trkpt lat="43.96781" lon="5.06445">
        <ele>177.80000305176</ele>
        <time>2021-05-08T08:42:47.000Z</time>
      </trkpt>
      <trkpt lat="43.96781" lon="5.06438">
        <ele>178.19999694824</ele>
        <time>2021-05-08T08:42:51.000Z</time>
      </trkpt>
      <trkpt lat="43.96782" lon="5.06428">
        <ele>179.19999694824</ele>
        <time>2021-05-08T08:42:58.000Z</time>
      </trkpt>
      <trkpt lat="43.96782" lon="5.06427">
        <ele>179.39999389648</ele>
        <time>2021-05-08T08:42:59.000Z</time>
      </trkpt>
      <trkpt lat="43.96782" lon="5.06425">
        <ele>179.60000610352</ele>
        <time>2021-05-08T08:43:00.000Z</time>
      </trkpt>
      <trkpt lat="43.96788" lon="5.06407">
        <ele>180.19999694824</ele>
        <time>2021-05-08T08:43:09.000Z</time>
      </trkpt>
      <trkpt lat="43.96789" lon="5.06405">
        <ele>180</ele>
        <time>2021-05-08T08:43:12.000Z</time>
      </trkpt>
      <trkpt lat="43.96792" lon="5.064">
        <ele>179.60000610352</ele>
        <time>2021-05-08T08:43:15.000Z</time>
      </trkpt>
      <trkpt lat="43.96793" lon="5.06392">
        <ele>179</ele>
        <time>2021-05-08T08:43:19.000Z</time>
      </trkpt>
      <trkpt lat="43.96793" lon="5.06388">
        <ele>178.39999389648</ele>
        <time>2021-05-08T08:43:21.000Z</time>
      </trkpt>
      <trkpt lat="43.96793" lon="5.0638">
        <ele>177</ele>
        <time>2021-05-08T08:43:24.000Z</time>
      </trkpt>
      <trkpt lat="43.96793" lon="5.06372">
        <ele>176.19999694824</ele>
        <time>2021-05-08T08:43:27.000Z</time>
      </trkpt>
      <trkpt lat="43.96793" lon="5.0637">
        <ele>176</ele>
        <time>2021-05-08T08:43:28.000Z</time>
      </trkpt>
      <trkpt lat="43.96795" lon="5.06368">
        <ele>175.60000610352</ele>
        <time>2021-05-08T08:43:30.000Z</time>
      </trkpt>
      <trkpt lat="43.96796" lon="5.06364">
        <ele>174.60000610352</ele>
        <time>2021-05-08T08:43:33.000Z</time>
      </trkpt>
      <trkpt lat="43.96798" lon="5.06359">
        <ele>173.60000610352</ele>
        <time>2021-05-08T08:43:36.000Z</time>
      </trkpt>
      <trkpt lat="43.96798" lon="5.06358">
        <ele>173.39999389648</ele>
        <time>2021-05-08T08:43:37.000Z</time>
      </trkpt>
      <trkpt lat="43.96801" lon="5.06356">
        <ele>172.39999389648</ele>
        <time>2021-05-08T08:43:41.000Z</time>
      </trkpt>
      <trkpt lat="43.96801" lon="5.06355">
        <ele>172.19999694824</ele>
        <time>2021-05-08T08:43:44.000Z</time>
      </trkpt>
      <trkpt lat="43.96801" lon="5.06353">
        <ele>172.19999694824</ele>
        <time>2021-05-08T08:43:46.000Z</time>
      </trkpt>
      <trkpt lat="43.96806" lon="5.06355">
        <ele>172</ele>
        <time>2021-05-08T08:45:27.000Z</time>
      </trkpt>
      <trkpt lat="43.9681" lon="5.06356">
        <ele>172</ele>
        <time>2021-05-08T08:45:48.000Z</time>
      </trkpt>
      <trkpt lat="43.96813" lon="5.06361">
        <ele>172.80000305176</ele>
        <time>2021-05-08T08:45:52.000Z</time>
      </trkpt>
      <trkpt lat="43.96814" lon="5.06365">
        <ele>173.60000610352</ele>
        <time>2021-05-08T08:45:55.000Z</time>
      </trkpt>
      <trkpt lat="43.96815" lon="5.06366">
        <ele>174</ele>
        <time>2021-05-08T08:45:56.000Z</time>
      </trkpt>
      <trkpt lat="43.96817" lon="5.06371">
        <ele>174.19999694824</ele>
        <time>2021-05-08T08:46:00.000Z</time>
      </trkpt>
      <trkpt lat="43.96818" lon="5.06373">
        <ele>174.80000305176</ele>
        <time>2021-05-08T08:46:03.000Z</time>
      </trkpt>
      <trkpt lat="43.96823" lon="5.06379">
        <ele>175.80000305176</ele>
        <time>2021-05-08T08:46:07.000Z</time>
      </trkpt>
      <trkpt lat="43.96823" lon="5.06381">
        <ele>176.19999694824</ele>
        <time>2021-05-08T08:46:08.000Z</time>
      </trkpt>
      <trkpt lat="43.96825" lon="5.06385">
        <ele>176.80000305176</ele>
        <time>2021-05-08T08:46:10.000Z</time>
      </trkpt>
      <trkpt lat="43.96826" lon="5.06388">
        <ele>177.39999389648</ele>
        <time>2021-05-08T08:46:12.000Z</time>
      </trkpt>
      <trkpt lat="43.96827" lon="5.06389">
        <ele>177.60000610352</ele>
        <time>2021-05-08T08:46:13.000Z</time>
      </trkpt>
      <trkpt lat="43.96828" lon="5.06391">
        <ele>177.80000305176</ele>
        <time>2021-05-08T08:46:15.000Z</time>
      </trkpt>
      <trkpt lat="43.96829" lon="5.06392">
        <ele>178</ele>
        <time>2021-05-08T08:46:17.000Z</time>
      </trkpt>
      <trkpt lat="43.9683" lon="5.06394">
        <ele>178.39999389648</ele>
        <time>2021-05-08T08:46:19.000Z</time>
      </trkpt>
      <trkpt lat="43.96835" lon="5.06398">
        <ele>179.19999694824</ele>
        <time>2021-05-08T08:46:23.000Z</time>
      </trkpt>
      <trkpt lat="43.96838" lon="5.06401">
        <ele>179.60000610352</ele>
        <time>2021-05-08T08:46:25.000Z</time>
      </trkpt>
      <trkpt lat="43.96839" lon="5.06402">
        <ele>179.80000305176</ele>
        <time>2021-05-08T08:46:26.000Z</time>
      </trkpt>
      <trkpt lat="43.96844" lon="5.06407">
        <ele>180.60000610352</ele>
        <time>2021-05-08T08:46:30.000Z</time>
      </trkpt>
      <trkpt lat="43.96845" lon="5.06408">
        <ele>180.80000305176</ele>
        <time>2021-05-08T08:46:32.000Z</time>
      </trkpt>
      <trkpt lat="43.96855" lon="5.06413">
        <ele>182</ele>
        <time>2021-05-08T08:46:38.000Z</time>
      </trkpt>
      <trkpt lat="43.96856" lon="5.06413">
        <ele>182.19999694824</ele>
        <time>2021-05-08T08:46:39.000Z</time>
      </trkpt>
      <trkpt lat="43.96861" lon="5.06415">
        <ele>183</ele>
        <time>2021-05-08T08:46:42.000Z</time>
      </trkpt>
      <trkpt lat="43.96862" lon="5.06414">
        <ele>183.19999694824</ele>
        <time>2021-05-08T08:46:43.000Z</time>
      </trkpt>
      <trkpt lat="43.96865" lon="5.06416">
        <ele>183.80000305176</ele>
        <time>2021-05-08T08:46:46.000Z</time>
      </trkpt>
      <trkpt lat="43.96866" lon="5.06417">
        <ele>184.19999694824</ele>
        <time>2021-05-08T08:46:48.000Z</time>
      </trkpt>
      <trkpt lat="43.9687" lon="5.0642">
        <ele>185</ele>
        <time>2021-05-08T08:46:52.000Z</time>
      </trkpt>
      <trkpt lat="43.96873" lon="5.06421">
        <ele>185.39999389648</ele>
        <time>2021-05-08T08:46:54.000Z</time>
      </trkpt>
      <trkpt lat="43.96876" lon="5.06422">
        <ele>185.60000610352</ele>
        <time>2021-05-08T08:46:56.000Z</time>
      </trkpt>
      <trkpt lat="43.96883" lon="5.06427">
        <ele>186.19999694824</ele>
        <time>2021-05-08T08:47:02.000Z</time>
      </trkpt>
      <trkpt lat="43.96884" lon="5.06427">
        <ele>186.39999389648</ele>
        <time>2021-05-08T08:47:03.000Z</time>
      </trkpt>
      <trkpt lat="43.96888" lon="5.06427">
        <ele>186.60000610352</ele>
        <time>2021-05-08T08:47:05.000Z</time>
      </trkpt>
      <trkpt lat="43.96893" lon="5.06427">
        <ele>187.19999694824</ele>
        <time>2021-05-08T08:47:09.000Z</time>
      </trkpt>
      <trkpt lat="43.96895" lon="5.06425">
        <ele>187.39999389648</ele>
        <time>2021-05-08T08:47:14.000Z</time>
      </trkpt>
      <trkpt lat="43.96898" lon="5.06426">
        <ele>187.60000610352</ele>
        <time>2021-05-08T08:47:16.000Z</time>
      </trkpt>
      <trkpt lat="43.96905" lon="5.06422">
        <ele>188</ele>
        <time>2021-05-08T08:47:19.000Z</time>
      </trkpt>
      <trkpt lat="43.9691" lon="5.06417">
        <ele>188.39999389648</ele>
        <time>2021-05-08T08:47:22.000Z</time>
      </trkpt>
      <trkpt lat="43.96913" lon="5.06414">
        <ele>188.39999389648</ele>
        <time>2021-05-08T08:47:24.000Z</time>
      </trkpt>
      <trkpt lat="43.96917" lon="5.06412">
        <ele>188.19999694824</ele>
        <time>2021-05-08T08:47:26.000Z</time>
      </trkpt>
      <trkpt lat="43.96924" lon="5.06403">
        <ele>188</ele>
        <time>2021-05-08T08:47:33.000Z</time>
      </trkpt>
      <trkpt lat="43.96927" lon="5.06401">
        <ele>188</ele>
        <time>2021-05-08T08:47:37.000Z</time>
      </trkpt>
      <trkpt lat="43.96932" lon="5.06399">
        <ele>188.80000305176</ele>
        <time>2021-05-08T08:47:40.000Z</time>
      </trkpt>
      <trkpt lat="43.96934" lon="5.06396">
        <ele>189</ele>
        <time>2021-05-08T08:47:42.000Z</time>
      </trkpt>
      <trkpt lat="43.96935" lon="5.0639">
        <ele>189.19999694824</ele>
        <time>2021-05-08T08:47:45.000Z</time>
      </trkpt>
      <trkpt lat="43.96943" lon="5.06378">
        <ele>189.19999694824</ele>
        <time>2021-05-08T08:47:51.000Z</time>
      </trkpt>
      <trkpt lat="43.96942" lon="5.06369">
        <ele>189.19999694824</ele>
        <time>2021-05-08T08:47:56.000Z</time>
      </trkpt>
      <trkpt lat="43.96946" lon="5.06362">
        <ele>189.39999389648</ele>
        <time>2021-05-08T08:48:01.000Z</time>
      </trkpt>
      <trkpt lat="43.96948" lon="5.06359">
        <ele>189.39999389648</ele>
        <time>2021-05-08T08:48:03.000Z</time>
      </trkpt>
      <trkpt lat="43.96956" lon="5.06351">
        <ele>189.80000305176</ele>
        <time>2021-05-08T08:48:10.000Z</time>
      </trkpt>
      <trkpt lat="43.96958" lon="5.06348">
        <ele>190</ele>
        <time>2021-05-08T08:48:12.000Z</time>
      </trkpt>
      <trkpt lat="43.96963" lon="5.06335">
        <ele>190.19999694824</ele>
        <time>2021-05-08T08:48:19.000Z</time>
      </trkpt>
      <trkpt lat="43.96964" lon="5.06335">
        <ele>190.39999389648</ele>
        <time>2021-05-08T08:48:20.000Z</time>
      </trkpt>
      <trkpt lat="43.96965" lon="5.06335">
        <ele>191</ele>
        <time>2021-05-08T08:48:24.000Z</time>
      </trkpt>
      <trkpt lat="43.96965" lon="5.06339">
        <ele>191.39999389648</ele>
        <time>2021-05-08T08:48:28.000Z</time>
      </trkpt>
      <trkpt lat="43.96966" lon="5.06341">
        <ele>191.60000610352</ele>
        <time>2021-05-08T08:48:29.000Z</time>
      </trkpt>
      <trkpt lat="43.96967" lon="5.06342">
        <ele>191.80000305176</ele>
        <time>2021-05-08T08:48:30.000Z</time>
      </trkpt>
      <trkpt lat="43.96976" lon="5.06343">
        <ele>192.80000305176</ele>
        <time>2021-05-08T08:48:36.000Z</time>
      </trkpt>
      <trkpt lat="43.96977" lon="5.06343">
        <ele>193</ele>
        <time>2021-05-08T08:48:37.000Z</time>
      </trkpt>
      <trkpt lat="43.9698" lon="5.06341">
        <ele>193.39999389648</ele>
        <time>2021-05-08T08:48:39.000Z</time>
      </trkpt>
      <trkpt lat="43.96985" lon="5.06335">
        <ele>194</ele>
        <time>2021-05-08T08:48:43.000Z</time>
      </trkpt>
      <trkpt lat="43.96995" lon="5.06329">
        <ele>195.19999694824</ele>
        <time>2021-05-08T08:48:49.000Z</time>
      </trkpt>
      <trkpt lat="43.96998" lon="5.06324">
        <ele>196</ele>
        <time>2021-05-08T08:48:53.000Z</time>
      </trkpt>
      <trkpt lat="43.96999" lon="5.06318">
        <ele>196.19999694824</ele>
        <time>2021-05-08T08:48:56.000Z</time>
      </trkpt>
      <trkpt lat="43.97001" lon="5.06307">
        <ele>197</ele>
        <time>2021-05-08T08:49:02.000Z</time>
      </trkpt>
      <trkpt lat="43.97002" lon="5.06303">
        <ele>197.39999389648</ele>
        <time>2021-05-08T08:49:04.000Z</time>
      </trkpt>
      <trkpt lat="43.97003" lon="5.06299">
        <ele>197.60000610352</ele>
        <time>2021-05-08T08:49:07.000Z</time>
      </trkpt>
      <trkpt lat="43.97004" lon="5.06295">
        <ele>197.80000305176</ele>
        <time>2021-05-08T08:49:09.000Z</time>
      </trkpt>
      <trkpt lat="43.97006" lon="5.06291">
        <ele>198.60000610352</ele>
        <time>2021-05-08T08:49:12.000Z</time>
      </trkpt>
      <trkpt lat="43.9701" lon="5.06279">
        <ele>199.60000610352</ele>
        <time>2021-05-08T08:49:18.000Z</time>
      </trkpt>
      <trkpt lat="43.97014" lon="5.06258">
        <ele>200.80000305176</ele>
        <time>2021-05-08T08:49:29.000Z</time>
      </trkpt>
      <trkpt lat="43.97014" lon="5.06254">
        <ele>201.39999389648</ele>
        <time>2021-05-08T08:49:31.000Z</time>
      </trkpt>
      <trkpt lat="43.97014" lon="5.06251">
        <ele>202.19999694824</ele>
        <time>2021-05-08T08:49:33.000Z</time>
      </trkpt>
      <trkpt lat="43.97011" lon="5.06245">
        <ele>203.39999389648</ele>
        <time>2021-05-08T08:49:37.000Z</time>
      </trkpt>
      <trkpt lat="43.97012" lon="5.06239">
        <ele>204.39999389648</ele>
        <time>2021-05-08T08:49:41.000Z</time>
      </trkpt>
      <trkpt lat="43.97012" lon="5.06238">
        <ele>204.60000610352</ele>
        <time>2021-05-08T08:49:42.000Z</time>
      </trkpt>
      <trkpt lat="43.97015" lon="5.06236">
        <ele>205.80000305176</ele>
        <time>2021-05-08T08:49:45.000Z</time>
      </trkpt>
      <trkpt lat="43.97016" lon="5.06233">
        <ele>206.60000610352</ele>
        <time>2021-05-08T08:49:48.000Z</time>
      </trkpt>
      <trkpt lat="43.97016" lon="5.06233">
        <ele>207</ele>
        <time>2021-05-08T08:49:49.000Z</time>
      </trkpt>
      <trkpt lat="43.97017" lon="5.06232">
        <ele>207.39999389648</ele>
        <time>2021-05-08T08:49:50.000Z</time>
      </trkpt>
      <trkpt lat="43.97017" lon="5.06232">
        <ele>208.39999389648</ele>
        <time>2021-05-08T08:49:52.000Z</time>
      </trkpt>
      <trkpt lat="43.97019" lon="5.06232">
        <ele>209.39999389648</ele>
        <time>2021-05-08T08:49:56.000Z</time>
      </trkpt>
      <trkpt lat="43.97025" lon="5.0623">
        <ele>210.80000305176</ele>
        <time>2021-05-08T08:50:01.000Z</time>
      </trkpt>
      <trkpt lat="43.97029" lon="5.06229">
        <ele>211.39999389648</ele>
        <time>2021-05-08T08:50:03.000Z</time>
      </trkpt>
      <trkpt lat="43.97031" lon="5.06228">
        <ele>211.80000305176</ele>
        <time>2021-05-08T08:50:06.000Z</time>
      </trkpt>
      <trkpt lat="43.97036" lon="5.06224">
        <ele>212.60000610352</ele>
        <time>2021-05-08T08:50:11.000Z</time>
      </trkpt>
      <trkpt lat="43.97037" lon="5.06223">
        <ele>212.80000305176</ele>
        <time>2021-05-08T08:50:13.000Z</time>
      </trkpt>
      <trkpt lat="43.97033" lon="5.06224">
        <ele>212.80000305176</ele>
        <time>2021-05-08T08:50:17.000Z</time>
      </trkpt>
      <trkpt lat="43.97022" lon="5.06234">
        <ele>210.60000610352</ele>
        <time>2021-05-08T08:50:29.000Z</time>
      </trkpt>
      <trkpt lat="43.97019" lon="5.06233">
        <ele>209.39999389648</ele>
        <time>2021-05-08T08:50:32.000Z</time>
      </trkpt>
      <trkpt lat="43.97029" lon="5.06234">
        <ele>209.60000610352</ele>
        <time>2021-05-08T08:51:14.000Z</time>
      </trkpt>
      <trkpt lat="43.9703" lon="5.06233">
        <ele>210.39999389648</ele>
        <time>2021-05-08T08:51:18.000Z</time>
      </trkpt>
      <trkpt lat="43.9703" lon="5.06228">
        <ele>211.39999389648</ele>
        <time>2021-05-08T08:51:23.000Z</time>
      </trkpt>
      <trkpt lat="43.9703" lon="5.06227">
        <ele>211.60000610352</ele>
        <time>2021-05-08T08:51:24.000Z</time>
      </trkpt>
      <trkpt lat="43.97032" lon="5.06223">
        <ele>212</ele>
        <time>2021-05-08T08:51:28.000Z</time>
      </trkpt>
      <trkpt lat="43.97033" lon="5.06224">
        <ele>212.39999389648</ele>
        <time>2021-05-08T08:51:31.000Z</time>
      </trkpt>
      <trkpt lat="43.97036" lon="5.06225">
        <ele>212.39999389648</ele>
        <time>2021-05-08T08:51:34.000Z</time>
      </trkpt>
      <trkpt lat="43.97039" lon="5.06225">
        <ele>212.60000610352</ele>
        <time>2021-05-08T08:51:36.000Z</time>
      </trkpt>
      <trkpt lat="43.97051" lon="5.06219">
        <ele>213.39999389648</ele>
        <time>2021-05-08T08:51:47.000Z</time>
      </trkpt>
      <trkpt lat="43.97052" lon="5.06217">
        <ele>213.39999389648</ele>
        <time>2021-05-08T08:51:52.000Z</time>
      </trkpt>
      <trkpt lat="43.97054" lon="5.06215">
        <ele>213.39999389648</ele>
        <time>2021-05-08T08:51:54.000Z</time>
      </trkpt>
      <trkpt lat="43.9706" lon="5.06207">
        <ele>213.19999694824</ele>
        <time>2021-05-08T08:52:00.000Z</time>
      </trkpt>
      <trkpt lat="43.97061" lon="5.06181">
        <ele>211.60000610352</ele>
        <time>2021-05-08T08:52:13.000Z</time>
      </trkpt>
      <trkpt lat="43.97061" lon="5.06179">
        <ele>211.60000610352</ele>
        <time>2021-05-08T08:52:14.000Z</time>
      </trkpt>
      <trkpt lat="43.97062" lon="5.06176">
        <ele>211.39999389648</ele>
        <time>2021-05-08T08:52:16.000Z</time>
      </trkpt>
      <trkpt lat="43.97065" lon="5.06167">
        <ele>210.39999389648</ele>
        <time>2021-05-08T08:52:22.000Z</time>
      </trkpt>
      <trkpt lat="43.97065" lon="5.06165">
        <ele>208.39999389648</ele>
        <time>2021-05-08T08:52:23.000Z</time>
      </trkpt>
      <trkpt lat="43.97068" lon="5.06159">
        <ele>207</ele>
        <time>2021-05-08T08:52:28.000Z</time>
      </trkpt>
      <trkpt lat="43.97072" lon="5.0615">
        <ele>206.39999389648</ele>
        <time>2021-05-08T08:52:35.000Z</time>
      </trkpt>
      <trkpt lat="43.97071" lon="5.06148">
        <ele>206.39999389648</ele>
        <time>2021-05-08T08:52:37.000Z</time>
      </trkpt>
      <trkpt lat="43.97072" lon="5.06148">
        <ele>206.19999694824</ele>
        <time>2021-05-08T08:52:39.000Z</time>
      </trkpt>
      <trkpt lat="43.97076" lon="5.06147">
        <ele>206</ele>
        <time>2021-05-08T08:52:42.000Z</time>
      </trkpt>
      <trkpt lat="43.97079" lon="5.06138">
        <ele>205.19999694824</ele>
        <time>2021-05-08T08:52:47.000Z</time>
      </trkpt>
      <trkpt lat="43.97079" lon="5.06136">
        <ele>204.80000305176</ele>
        <time>2021-05-08T08:52:48.000Z</time>
      </trkpt>
      <trkpt lat="43.97079" lon="5.06126">
        <ele>204</ele>
        <time>2021-05-08T08:52:52.000Z</time>
      </trkpt>
      <trkpt lat="43.97078" lon="5.06125">
        <ele>203.80000305176</ele>
        <time>2021-05-08T08:52:55.000Z</time>
      </trkpt>
      <trkpt lat="43.97079" lon="5.06121">
        <ele>203.39999389648</ele>
        <time>2021-05-08T08:52:58.000Z</time>
      </trkpt>
      <trkpt lat="43.9708" lon="5.06115">
        <ele>203.19999694824</ele>
        <time>2021-05-08T08:53:02.000Z</time>
      </trkpt>
      <trkpt lat="43.97082" lon="5.0611">
        <ele>202.80000305176</ele>
        <time>2021-05-08T08:53:05.000Z</time>
      </trkpt>
      <trkpt lat="43.97082" lon="5.06108">
        <ele>202.60000610352</ele>
        <time>2021-05-08T08:53:06.000Z</time>
      </trkpt>
      <trkpt lat="43.97087" lon="5.061">
        <ele>202</ele>
        <time>2021-05-08T08:53:11.000Z</time>
      </trkpt>
      <trkpt lat="43.97089" lon="5.06093">
        <ele>201.60000610352</ele>
        <time>2021-05-08T08:53:15.000Z</time>
      </trkpt>
      <trkpt lat="43.97093" lon="5.06072">
        <ele>200.39999389648</ele>
        <time>2021-05-08T08:53:25.000Z</time>
      </trkpt>
      <trkpt lat="43.97096" lon="5.06059">
        <ele>199.39999389648</ele>
        <time>2021-05-08T08:53:31.000Z</time>
      </trkpt>
      <trkpt lat="43.97103" lon="5.06042">
        <ele>198.19999694824</ele>
        <time>2021-05-08T08:53:40.000Z</time>
      </trkpt>
      <trkpt lat="43.97103" lon="5.06041">
        <ele>198</ele>
        <time>2021-05-08T08:53:41.000Z</time>
      </trkpt>
      <trkpt lat="43.97109" lon="5.06039">
        <ele>197</ele>
        <time>2021-05-08T08:53:46.000Z</time>
      </trkpt>
      <trkpt lat="43.97109" lon="5.06038">
        <ele>196.80000305176</ele>
        <time>2021-05-08T08:53:47.000Z</time>
      </trkpt>
      <trkpt lat="43.97109" lon="5.0604">
        <ele>196</ele>
        <time>2021-05-08T08:54:00.000Z</time>
      </trkpt>
      <trkpt lat="43.97111" lon="5.06037">
        <ele>196</ele>
        <time>2021-05-08T08:54:03.000Z</time>
      </trkpt>
      <trkpt lat="43.97122" lon="5.06023">
        <ele>194.80000305176</ele>
        <time>2021-05-08T08:54:12.000Z</time>
      </trkpt>
      <trkpt lat="43.97125" lon="5.06019">
        <ele>193.80000305176</ele>
        <time>2021-05-08T08:54:15.000Z</time>
      </trkpt>
      <trkpt lat="43.97127" lon="5.06018">
        <ele>193.60000610352</ele>
        <time>2021-05-08T08:54:17.000Z</time>
      </trkpt>
      <trkpt lat="43.9713" lon="5.06019">
        <ele>193.39999389648</ele>
        <time>2021-05-08T08:54:19.000Z</time>
      </trkpt>
      <trkpt lat="43.97133" lon="5.0602">
        <ele>193.60000610352</ele>
        <time>2021-05-08T08:54:21.000Z</time>
      </trkpt>
      <trkpt lat="43.97136" lon="5.06017">
        <ele>193.39999389648</ele>
        <time>2021-05-08T08:54:23.000Z</time>
      </trkpt>
      <trkpt lat="43.97137" lon="5.06009">
        <ele>192.60000610352</ele>
        <time>2021-05-08T08:54:28.000Z</time>
      </trkpt>
      <trkpt lat="43.97139" lon="5.06003">
        <ele>191.19999694824</ele>
        <time>2021-05-08T08:54:31.000Z</time>
      </trkpt>
      <trkpt lat="43.97143" lon="5.05979">
        <ele>190.19999694824</ele>
        <time>2021-05-08T08:54:43.000Z</time>
      </trkpt>
      <trkpt lat="43.97148" lon="5.05966">
        <ele>189.19999694824</ele>
        <time>2021-05-08T08:54:49.000Z</time>
      </trkpt>
      <trkpt lat="43.97153" lon="5.0596">
        <ele>189.19999694824</ele>
        <time>2021-05-08T08:54:54.000Z</time>
      </trkpt>
      <trkpt lat="43.97157" lon="5.05964">
        <ele>189</ele>
        <time>2021-05-08T08:54:56.000Z</time>
      </trkpt>
      <trkpt lat="43.97158" lon="5.05969">
        <ele>188.80000305176</ele>
        <time>2021-05-08T08:54:59.000Z</time>
      </trkpt>
      <trkpt lat="43.97158" lon="5.05971">
        <ele>188.60000610352</ele>
        <time>2021-05-08T08:55:01.000Z</time>
      </trkpt>
      <trkpt lat="43.97167" lon="5.05976">
        <ele>188.19999694824</ele>
        <time>2021-05-08T08:55:11.000Z</time>
      </trkpt>
      <trkpt lat="43.97175" lon="5.05975">
        <ele>188</ele>
        <time>2021-05-08T08:55:15.000Z</time>
      </trkpt>
      <trkpt lat="43.97183" lon="5.05976">
        <ele>188</ele>
        <time>2021-05-08T08:55:20.000Z</time>
      </trkpt>
      <trkpt lat="43.97187" lon="5.05975">
        <ele>188.19999694824</ele>
        <time>2021-05-08T08:55:22.000Z</time>
      </trkpt>
      <trkpt lat="43.97193" lon="5.0597">
        <ele>188.80000305176</ele>
        <time>2021-05-08T08:55:27.000Z</time>
      </trkpt>
      <trkpt lat="43.97204" lon="5.05949">
        <ele>187.39999389648</ele>
        <time>2021-05-08T08:55:40.000Z</time>
      </trkpt>
      <trkpt lat="43.9721" lon="5.05946">
        <ele>187.19999694824</ele>
        <time>2021-05-08T08:55:44.000Z</time>
      </trkpt>
      <trkpt lat="43.97221" lon="5.05932">
        <ele>187.39999389648</ele>
        <time>2021-05-08T08:55:56.000Z</time>
      </trkpt>
      <trkpt lat="43.97224" lon="5.05925">
        <ele>187</ele>
        <time>2021-05-08T08:56:00.000Z</time>
      </trkpt>
      <trkpt lat="43.97227" lon="5.05922">
        <ele>186.39999389648</ele>
        <time>2021-05-08T08:56:03.000Z</time>
      </trkpt>
      <trkpt lat="43.9723" lon="5.05915">
        <ele>186.19999694824</ele>
        <time>2021-05-08T08:56:07.000Z</time>
      </trkpt>
      <trkpt lat="43.97235" lon="5.0589">
        <ele>185.60000610352</ele>
        <time>2021-05-08T08:56:20.000Z</time>
      </trkpt>
      <trkpt lat="43.97235" lon="5.05883">
        <ele>185</ele>
        <time>2021-05-08T08:56:23.000Z</time>
      </trkpt>
      <trkpt lat="43.97235" lon="5.05875">
        <ele>185</ele>
        <time>2021-05-08T08:56:28.000Z</time>
      </trkpt>
      <trkpt lat="43.97236" lon="5.05872">
        <ele>185</ele>
        <time>2021-05-08T08:56:30.000Z</time>
      </trkpt>
      <trkpt lat="43.97238" lon="5.0587">
        <ele>184.19999694824</ele>
        <time>2021-05-08T08:56:37.000Z</time>
      </trkpt>
      <trkpt lat="43.97242" lon="5.05866">
        <ele>184</ele>
        <time>2021-05-08T08:56:41.000Z</time>
      </trkpt>
      <trkpt lat="43.97244" lon="5.05863">
        <ele>183.80000305176</ele>
        <time>2021-05-08T08:56:43.000Z</time>
      </trkpt>
      <trkpt lat="43.97252" lon="5.05847">
        <ele>183</ele>
        <time>2021-05-08T08:56:53.000Z</time>
      </trkpt>
      <trkpt lat="43.97252" lon="5.05844">
        <ele>182.39999389648</ele>
        <time>2021-05-08T08:56:58.000Z</time>
      </trkpt>
      <trkpt lat="43.97255" lon="5.05837">
        <ele>182.39999389648</ele>
        <time>2021-05-08T08:57:08.000Z</time>
      </trkpt>
      <trkpt lat="43.97258" lon="5.05824">
        <ele>182</ele>
        <time>2021-05-08T08:57:15.000Z</time>
      </trkpt>
      <trkpt lat="43.97259" lon="5.05822">
        <ele>181.80000305176</ele>
        <time>2021-05-08T08:57:16.000Z</time>
      </trkpt>
      <trkpt lat="43.97262" lon="5.05812">
        <ele>180.80000305176</ele>
        <time>2021-05-08T08:57:20.000Z</time>
      </trkpt>
      <trkpt lat="43.97263" lon="5.05804">
        <ele>180.39999389648</ele>
        <time>2021-05-08T08:57:23.000Z</time>
      </trkpt>
      <trkpt lat="43.97268" lon="5.05799">
        <ele>179.80000305176</ele>
        <time>2021-05-08T08:57:27.000Z</time>
      </trkpt>
      <trkpt lat="43.9727" lon="5.05773">
        <ele>179.19999694824</ele>
        <time>2021-05-08T08:57:38.000Z</time>
      </trkpt>
      <trkpt lat="43.97272" lon="5.05765">
        <ele>178.60000610352</ele>
        <time>2021-05-08T08:57:43.000Z</time>
      </trkpt>
      <trkpt lat="43.97271" lon="5.05764">
        <ele>178</ele>
        <time>2021-05-08T08:57:45.000Z</time>
      </trkpt>
      <trkpt lat="43.97267" lon="5.05763">
        <ele>177.80000305176</ele>
        <time>2021-05-08T08:57:48.000Z</time>
      </trkpt>
      <trkpt lat="43.97263" lon="5.05764">
        <ele>177.39999389648</ele>
        <time>2021-05-08T08:57:50.000Z</time>
      </trkpt>
      <trkpt lat="43.97258" lon="5.05764">
        <ele>176.19999694824</ele>
        <time>2021-05-08T08:57:53.000Z</time>
      </trkpt>
      <trkpt lat="43.97254" lon="5.05761">
        <ele>174.80000305176</ele>
        <time>2021-05-08T08:57:56.000Z</time>
      </trkpt>
      <trkpt lat="43.97253" lon="5.05758">
        <ele>173.80000305176</ele>
        <time>2021-05-08T08:57:58.000Z</time>
      </trkpt>
      <trkpt lat="43.97253" lon="5.05756">
        <ele>173.19999694824</ele>
        <time>2021-05-08T08:57:59.000Z</time>
      </trkpt>
      <trkpt lat="43.97251" lon="5.05753">
        <ele>172.19999694824</ele>
        <time>2021-05-08T08:58:02.000Z</time>
      </trkpt>
      <trkpt lat="43.97249" lon="5.05749">
        <ele>171</ele>
        <time>2021-05-08T08:58:05.000Z</time>
      </trkpt>
      <trkpt lat="43.97248" lon="5.05748">
        <ele>170.39999389648</ele>
        <time>2021-05-08T08:58:06.000Z</time>
      </trkpt>
      <trkpt lat="43.97247" lon="5.05745">
        <ele>169.80000305176</ele>
        <time>2021-05-08T08:58:08.000Z</time>
      </trkpt>
      <trkpt lat="43.97246" lon="5.05742">
        <ele>168.80000305176</ele>
        <time>2021-05-08T08:58:11.000Z</time>
      </trkpt>
      <trkpt lat="43.97246" lon="5.05739">
        <ele>168.60000610352</ele>
        <time>2021-05-08T08:58:12.000Z</time>
      </trkpt>
      <trkpt lat="43.97245" lon="5.05737">
        <ele>168</ele>
        <time>2021-05-08T08:58:14.000Z</time>
      </trkpt>
      <trkpt lat="43.97246" lon="5.05735">
        <ele>167.39999389648</ele>
        <time>2021-05-08T08:58:16.000Z</time>
      </trkpt>
      <trkpt lat="43.97245" lon="5.0573">
        <ele>166</ele>
        <time>2021-05-08T08:58:19.000Z</time>
      </trkpt>
      <trkpt lat="43.97244" lon="5.05728">
        <ele>165.19999694824</ele>
        <time>2021-05-08T08:58:21.000Z</time>
      </trkpt>
      <trkpt lat="43.97243" lon="5.05727">
        <ele>164.80000305176</ele>
        <time>2021-05-08T08:58:22.000Z</time>
      </trkpt>
      <trkpt lat="43.97242" lon="5.05726">
        <ele>164.39999389648</ele>
        <time>2021-05-08T08:58:23.000Z</time>
      </trkpt>
      <trkpt lat="43.9724" lon="5.05725">
        <ele>163.60000610352</ele>
        <time>2021-05-08T08:58:25.000Z</time>
      </trkpt>
      <trkpt lat="43.97238" lon="5.05722">
        <ele>162.39999389648</ele>
        <time>2021-05-08T08:58:28.000Z</time>
      </trkpt>
      <trkpt lat="43.97235" lon="5.05715">
        <ele>161.39999389648</ele>
        <time>2021-05-08T08:58:32.000Z</time>
      </trkpt>
      <trkpt lat="43.97231" lon="5.0571">
        <ele>160.19999694824</ele>
        <time>2021-05-08T08:58:36.000Z</time>
      </trkpt>
      <trkpt lat="43.9723" lon="5.0571">
        <ele>159.80000305176</ele>
        <time>2021-05-08T08:58:38.000Z</time>
      </trkpt>
      <trkpt lat="43.97229" lon="5.05713">
        <ele>159</ele>
        <time>2021-05-08T08:58:41.000Z</time>
      </trkpt>
      <trkpt lat="43.97229" lon="5.05717">
        <ele>158.39999389648</ele>
        <time>2021-05-08T08:58:44.000Z</time>
      </trkpt>
      <trkpt lat="43.97229" lon="5.05718">
        <ele>157.80000305176</ele>
        <time>2021-05-08T08:58:47.000Z</time>
      </trkpt>
      <trkpt lat="43.97227" lon="5.05715">
        <ele>156.80000305176</ele>
        <time>2021-05-08T08:58:52.000Z</time>
      </trkpt>
      <trkpt lat="43.97225" lon="5.05712">
        <ele>155.80000305176</ele>
        <time>2021-05-08T08:58:57.000Z</time>
      </trkpt>
      <trkpt lat="43.97219" lon="5.05698">
        <ele>154.80000305176</ele>
        <time>2021-05-08T08:59:14.000Z</time>
      </trkpt>
      <trkpt lat="43.97218" lon="5.05696">
        <ele>154.19999694824</ele>
        <time>2021-05-08T08:59:16.000Z</time>
      </trkpt>
      <trkpt lat="43.97216" lon="5.05694">
        <ele>153.60000610352</ele>
        <time>2021-05-08T08:59:18.000Z</time>
      </trkpt>
      <trkpt lat="43.97213" lon="5.0569">
        <ele>152.39999389648</ele>
        <time>2021-05-08T08:59:22.000Z</time>
      </trkpt>
      <trkpt lat="43.97214" lon="5.05688">
        <ele>152</ele>
        <time>2021-05-08T08:59:25.000Z</time>
      </trkpt>
      <trkpt lat="43.97215" lon="5.05687">
        <ele>151.80000305176</ele>
        <time>2021-05-08T08:59:27.000Z</time>
      </trkpt>
      <trkpt lat="43.97215" lon="5.05686">
        <ele>151.60000610352</ele>
        <time>2021-05-08T08:59:32.000Z</time>
      </trkpt>
      <trkpt lat="43.97213" lon="5.05683">
        <ele>151.39999389648</ele>
        <time>2021-05-08T08:59:38.000Z</time>
      </trkpt>
      <trkpt lat="43.97212" lon="5.05683">
        <ele>151.19999694824</ele>
        <time>2021-05-08T08:59:39.000Z</time>
      </trkpt>
      <trkpt lat="43.97209" lon="5.05683">
        <ele>150.39999389648</ele>
        <time>2021-05-08T08:59:52.000Z</time>
      </trkpt>
      <trkpt lat="43.97204" lon="5.05684">
        <ele>150.39999389648</ele>
        <time>2021-05-08T08:59:56.000Z</time>
      </trkpt>
      <trkpt lat="43.97203" lon="5.05681">
        <ele>150.80000305176</ele>
        <time>2021-05-08T08:59:59.000Z</time>
      </trkpt>
      <trkpt lat="43.97194" lon="5.05669">
        <ele>150</ele>
        <time>2021-05-08T09:00:15.000Z</time>
      </trkpt>
      <trkpt lat="43.97179" lon="5.05655">
        <ele>150.39999389648</ele>
        <time>2021-05-08T09:00:26.000Z</time>
      </trkpt>
      <trkpt lat="43.97168" lon="5.05654">
        <ele>151.60000610352</ele>
        <time>2021-05-08T09:00:34.000Z</time>
      </trkpt>
      <trkpt lat="43.97162" lon="5.05649">
        <ele>151.19999694824</ele>
        <time>2021-05-08T09:00:39.000Z</time>
      </trkpt>
      <trkpt lat="43.97157" lon="5.05645">
        <ele>150.39999389648</ele>
        <time>2021-05-08T09:00:43.000Z</time>
      </trkpt>
      <trkpt lat="43.97155" lon="5.05643">
        <ele>150</ele>
        <time>2021-05-08T09:00:45.000Z</time>
      </trkpt>
      <trkpt lat="43.97151" lon="5.0564">
        <ele>149.19999694824</ele>
        <time>2021-05-08T09:00:48.000Z</time>
      </trkpt>
      <trkpt lat="43.97147" lon="5.05636">
        <ele>148.80000305176</ele>
        <time>2021-05-08T09:00:51.000Z</time>
      </trkpt>
      <trkpt lat="43.97142" lon="5.05629">
        <ele>148.19999694824</ele>
        <time>2021-05-08T09:00:55.000Z</time>
      </trkpt>
      <trkpt lat="43.97139" lon="5.05616">
        <ele>147.19999694824</ele>
        <time>2021-05-08T09:01:01.000Z</time>
      </trkpt>
      <trkpt lat="43.97134" lon="5.05598">
        <ele>146</ele>
        <time>2021-05-08T09:01:09.000Z</time>
      </trkpt>
      <trkpt lat="43.9713" lon="5.05592">
        <ele>144.80000305176</ele>
        <time>2021-05-08T09:01:13.000Z</time>
      </trkpt>
      <trkpt lat="43.97123" lon="5.05582">
        <ele>143.80000305176</ele>
        <time>2021-05-08T09:01:19.000Z</time>
      </trkpt>
      <trkpt lat="43.97119" lon="5.05564">
        <ele>142.80000305176</ele>
        <time>2021-05-08T09:01:27.000Z</time>
      </trkpt>
      <trkpt lat="43.97115" lon="5.05552">
        <ele>141.60000610352</ele>
        <time>2021-05-08T09:01:33.000Z</time>
      </trkpt>
      <trkpt lat="43.9711" lon="5.05545">
        <ele>140.80000305176</ele>
        <time>2021-05-08T09:01:37.000Z</time>
      </trkpt>
      <trkpt lat="43.97109" lon="5.05544">
        <ele>140.60000610352</ele>
        <time>2021-05-08T09:01:38.000Z</time>
      </trkpt>
      <trkpt lat="43.97105" lon="5.05535">
        <ele>139.60000610352</ele>
        <time>2021-05-08T09:01:43.000Z</time>
      </trkpt>
      <trkpt lat="43.97105" lon="5.05533">
        <ele>139.39999389648</ele>
        <time>2021-05-08T09:01:44.000Z</time>
      </trkpt>
      <trkpt lat="43.97104" lon="5.05531">
        <ele>139</ele>
        <time>2021-05-08T09:01:45.000Z</time>
      </trkpt>
      <trkpt lat="43.971" lon="5.05522">
        <ele>138.39999389648</ele>
        <time>2021-05-08T09:01:50.000Z</time>
      </trkpt>
      <trkpt lat="43.97094" lon="5.05513">
        <ele>137.19999694824</ele>
        <time>2021-05-08T09:01:56.000Z</time>
      </trkpt>
      <trkpt lat="43.97089" lon="5.05507">
        <ele>136.19999694824</ele>
        <time>2021-05-08T09:02:00.000Z</time>
      </trkpt>
      <trkpt lat="43.97084" lon="5.05498">
        <ele>135.19999694824</ele>
        <time>2021-05-08T09:02:05.000Z</time>
      </trkpt>
      <trkpt lat="43.97079" lon="5.05493">
        <ele>134.19999694824</ele>
        <time>2021-05-08T09:02:10.000Z</time>
      </trkpt>
      <trkpt lat="43.97074" lon="5.05486">
        <ele>133</ele>
        <time>2021-05-08T09:02:16.000Z</time>
      </trkpt>
      <trkpt lat="43.97072" lon="5.05481">
        <ele>132.80000305176</ele>
        <time>2021-05-08T09:02:18.000Z</time>
      </trkpt>
      <trkpt lat="43.97068" lon="5.05476">
        <ele>131.80000305176</ele>
        <time>2021-05-08T09:02:21.000Z</time>
      </trkpt>
      <trkpt lat="43.97059" lon="5.05467">
        <ele>130.60000610352</ele>
        <time>2021-05-08T09:02:28.000Z</time>
      </trkpt>
      <trkpt lat="43.97059" lon="5.05467">
        <ele>130.60000610352</ele>
        <time>2021-05-08T09:02:29.000Z</time>
      </trkpt>
      <trkpt lat="43.97059" lon="5.05467">
        <ele>130.39999389648</ele>
        <time>2021-05-08T09:02:32.000Z</time>
      </trkpt>
      <trkpt lat="43.97053" lon="5.05463">
        <ele>130.19999694824</ele>
        <time>2021-05-08T09:02:59.000Z</time>
      </trkpt>
      <trkpt lat="43.97047" lon="5.05459">
        <ele>129.60000610352</ele>
        <time>2021-05-08T09:03:03.000Z</time>
      </trkpt>
      <trkpt lat="43.97036" lon="5.05438">
        <ele>128.39999389648</ele>
        <time>2021-05-08T09:03:15.000Z</time>
      </trkpt>
      <trkpt lat="43.97034" lon="5.05437">
        <ele>128.19999694824</ele>
        <time>2021-05-08T09:03:16.000Z</time>
      </trkpt>
      <trkpt lat="43.9703" lon="5.05428">
        <ele>127.19999694824</ele>
        <time>2021-05-08T09:03:21.000Z</time>
      </trkpt>
      <trkpt lat="43.9703" lon="5.05415">
        <ele>126.40000152588</ele>
        <time>2021-05-08T09:03:28.000Z</time>
      </trkpt>
      <trkpt lat="43.97031" lon="5.05413">
        <ele>125.80000305176</ele>
        <time>2021-05-08T09:03:29.000Z</time>
      </trkpt>
      <trkpt lat="43.97033" lon="5.05405">
        <ele>124.59999847412</ele>
        <time>2021-05-08T09:03:33.000Z</time>
      </trkpt>
      <trkpt lat="43.97033" lon="5.05403">
        <ele>124.19999694824</ele>
        <time>2021-05-08T09:03:34.000Z</time>
      </trkpt>
      <trkpt lat="43.97033" lon="5.05396">
        <ele>123.40000152588</ele>
        <time>2021-05-08T09:03:37.000Z</time>
      </trkpt>
      <trkpt lat="43.97034" lon="5.05379">
        <ele>122.19999694824</ele>
        <time>2021-05-08T09:03:44.000Z</time>
      </trkpt>
      <trkpt lat="43.97032" lon="5.0537">
        <ele>121.19999694824</ele>
        <time>2021-05-08T09:03:49.000Z</time>
      </trkpt>
      <trkpt lat="43.97032" lon="5.05368">
        <ele>121</ele>
        <time>2021-05-08T09:03:50.000Z</time>
      </trkpt>
      <trkpt lat="43.97034" lon="5.05353">
        <ele>121</ele>
        <time>2021-05-08T09:03:57.000Z</time>
      </trkpt>
      <trkpt lat="43.97033" lon="5.05348">
        <ele>120</ele>
        <time>2021-05-08T09:03:59.000Z</time>
      </trkpt>
      <trkpt lat="43.97031" lon="5.05343">
        <ele>118.80000305176</ele>
        <time>2021-05-08T09:04:02.000Z</time>
      </trkpt>
      <trkpt lat="43.97031" lon="5.05339">
        <ele>118</ele>
        <time>2021-05-08T09:04:04.000Z</time>
      </trkpt>
      <trkpt lat="43.97031" lon="5.05337">
        <ele>117.80000305176</ele>
        <time>2021-05-08T09:04:05.000Z</time>
      </trkpt>
      <trkpt lat="43.9703" lon="5.05332">
        <ele>117.19999694824</ele>
        <time>2021-05-08T09:04:08.000Z</time>
      </trkpt>
      <trkpt lat="43.9703" lon="5.05328">
        <ele>116.80000305176</ele>
        <time>2021-05-08T09:04:10.000Z</time>
      </trkpt>
      <trkpt lat="43.97029" lon="5.05321">
        <ele>116.19999694824</ele>
        <time>2021-05-08T09:04:13.000Z</time>
      </trkpt>
      <trkpt lat="43.97029" lon="5.05316">
        <ele>115.80000305176</ele>
        <time>2021-05-08T09:04:15.000Z</time>
      </trkpt>
      <trkpt lat="43.97029" lon="5.05305">
        <ele>115</ele>
        <time>2021-05-08T09:04:21.000Z</time>
      </trkpt>
      <trkpt lat="43.97029" lon="5.05297">
        <ele>114.80000305176</ele>
        <time>2021-05-08T09:04:25.000Z</time>
      </trkpt>
      <trkpt lat="43.9703" lon="5.05288">
        <ele>114.59999847412</ele>
        <time>2021-05-08T09:04:28.000Z</time>
      </trkpt>
      <trkpt lat="43.97027" lon="5.05264">
        <ele>113.59999847412</ele>
        <time>2021-05-08T09:04:39.000Z</time>
      </trkpt>
      <trkpt lat="43.97026" lon="5.05262">
        <ele>113.40000152588</ele>
        <time>2021-05-08T09:04:40.000Z</time>
      </trkpt>
      <trkpt lat="43.97026" lon="5.0526">
        <ele>113.40000152588</ele>
        <time>2021-05-08T09:04:41.000Z</time>
      </trkpt>
      <trkpt lat="43.97025" lon="5.05259">
        <ele>113.40000152588</ele>
        <time>2021-05-08T09:04:43.000Z</time>
      </trkpt>
      <trkpt lat="43.97016" lon="5.05261">
        <ele>114</ele>
        <time>2021-05-08T09:04:55.000Z</time>
      </trkpt>
      <trkpt lat="43.97014" lon="5.05263">
        <ele>114.59999847412</ele>
        <time>2021-05-08T09:04:58.000Z</time>
      </trkpt>
      <trkpt lat="43.97013" lon="5.05261">
        <ele>115.80000305176</ele>
        <time>2021-05-08T09:05:01.000Z</time>
      </trkpt>
      <trkpt lat="43.97011" lon="5.05259">
        <ele>116.19999694824</ele>
        <time>2021-05-08T09:05:03.000Z</time>
      </trkpt>
      <trkpt lat="43.97007" lon="5.05258">
        <ele>116.59999847412</ele>
        <time>2021-05-08T09:05:05.000Z</time>
      </trkpt>
      <trkpt lat="43.97005" lon="5.05257">
        <ele>117</ele>
        <time>2021-05-08T09:05:07.000Z</time>
      </trkpt>
      <trkpt lat="43.97002" lon="5.05254">
        <ele>117.40000152588</ele>
        <time>2021-05-08T09:05:10.000Z</time>
      </trkpt>
      <trkpt lat="43.97002" lon="5.05247">
        <ele>117.80000305176</ele>
        <time>2021-05-08T09:05:14.000Z</time>
      </trkpt>
      <trkpt lat="43.97003" lon="5.05244">
        <ele>117.59999847412</ele>
        <time>2021-05-08T09:05:16.000Z</time>
      </trkpt>
      <trkpt lat="43.97004" lon="5.05237">
        <ele>116.59999847412</ele>
        <time>2021-05-08T09:05:19.000Z</time>
      </trkpt>
      <trkpt lat="43.97007" lon="5.05232">
        <ele>115.80000305176</ele>
        <time>2021-05-08T09:05:23.000Z</time>
      </trkpt>
      <trkpt lat="43.97003" lon="5.05224">
        <ele>115.59999847412</ele>
        <time>2021-05-08T09:05:29.000Z</time>
      </trkpt>
      <trkpt lat="43.97001" lon="5.05218">
        <ele>116.19999694824</ele>
        <time>2021-05-08T09:05:33.000Z</time>
      </trkpt>
      <trkpt lat="43.96998" lon="5.05194">
        <ele>115</ele>
        <time>2021-05-08T09:05:46.000Z</time>
      </trkpt>
      <trkpt lat="43.96997" lon="5.0519">
        <ele>115</ele>
        <time>2021-05-08T09:05:48.000Z</time>
      </trkpt>
      <trkpt lat="43.96986" lon="5.05169">
        <ele>115.19999694824</ele>
        <time>2021-05-08T09:06:00.000Z</time>
      </trkpt>
      <trkpt lat="43.96981" lon="5.0516">
        <ele>115.40000152588</ele>
        <time>2021-05-08T09:06:06.000Z</time>
      </trkpt>
      <trkpt lat="43.96976" lon="5.05144">
        <ele>114.59999847412</ele>
        <time>2021-05-08T09:06:14.000Z</time>
      </trkpt>
      <trkpt lat="43.96972" lon="5.05136">
        <ele>113.59999847412</ele>
        <time>2021-05-08T09:06:19.000Z</time>
      </trkpt>
      <trkpt lat="43.96971" lon="5.05134">
        <ele>113.40000152588</ele>
        <time>2021-05-08T09:06:20.000Z</time>
      </trkpt>
      <trkpt lat="43.96969" lon="5.05127">
        <ele>112.40000152588</ele>
        <time>2021-05-08T09:06:24.000Z</time>
      </trkpt>
      <trkpt lat="43.96968" lon="5.05124">
        <ele>111.80000305176</ele>
        <time>2021-05-08T09:06:26.000Z</time>
      </trkpt>
      <trkpt lat="43.96967" lon="5.05117">
        <ele>111.19999694824</ele>
        <time>2021-05-08T09:06:29.000Z</time>
      </trkpt>
      <trkpt lat="43.96963" lon="5.05111">
        <ele>110.59999847412</ele>
        <time>2021-05-08T09:06:33.000Z</time>
      </trkpt>
      <trkpt lat="43.96962" lon="5.0511">
        <ele>110.40000152588</ele>
        <time>2021-05-08T09:06:35.000Z</time>
      </trkpt>
      <trkpt lat="43.96955" lon="5.0511">
        <ele>110.59999847412</ele>
        <time>2021-05-08T09:06:48.000Z</time>
      </trkpt>
      <trkpt lat="43.96937" lon="5.05108">
        <ele>111.40000152588</ele>
        <time>2021-05-08T09:07:01.000Z</time>
      </trkpt>
      <trkpt lat="43.96924" lon="5.05108">
        <ele>112.40000152588</ele>
        <time>2021-05-08T09:07:10.000Z</time>
      </trkpt>
      <trkpt lat="43.96916" lon="5.05108">
        <ele>113.59999847412</ele>
        <time>2021-05-08T09:07:18.000Z</time>
      </trkpt>
      <trkpt lat="43.96912" lon="5.05108">
        <ele>114</ele>
        <time>2021-05-08T09:07:21.000Z</time>
      </trkpt>
      <trkpt lat="43.96903" lon="5.05106">
        <ele>114.59999847412</ele>
        <time>2021-05-08T09:07:26.000Z</time>
      </trkpt>
      <trkpt lat="43.96894" lon="5.05101">
        <ele>115.59999847412</ele>
        <time>2021-05-08T09:07:32.000Z</time>
      </trkpt>
      <trkpt lat="43.96889" lon="5.05098">
        <ele>115.80000305176</ele>
        <time>2021-05-08T09:07:35.000Z</time>
      </trkpt>
      <trkpt lat="43.96879" lon="5.0509">
        <ele>115.80000305176</ele>
        <time>2021-05-08T09:07:42.000Z</time>
      </trkpt>
      <trkpt lat="43.96872" lon="5.05082">
        <ele>115.40000152588</ele>
        <time>2021-05-08T09:07:49.000Z</time>
      </trkpt>
      <trkpt lat="43.96864" lon="5.05074">
        <ele>114.59999847412</ele>
        <time>2021-05-08T09:07:57.000Z</time>
      </trkpt>
      <trkpt lat="43.96862" lon="5.05072">
        <ele>114.19999694824</ele>
        <time>2021-05-08T09:08:01.000Z</time>
      </trkpt>
      <trkpt lat="43.96857" lon="5.05074">
        <ele>114</ele>
        <time>2021-05-08T09:08:04.000Z</time>
      </trkpt>
      <trkpt lat="43.96839" lon="5.05067">
        <ele>115.19999694824</ele>
        <time>2021-05-08T09:08:18.000Z</time>
      </trkpt>
      <trkpt lat="43.96836" lon="5.05066">
        <ele>115.59999847412</ele>
        <time>2021-05-08T09:08:20.000Z</time>
      </trkpt>
      <trkpt lat="43.96823" lon="5.05055">
        <ele>116.19999694824</ele>
        <time>2021-05-08T09:08:33.000Z</time>
      </trkpt>
      <trkpt lat="43.96819" lon="5.0505">
        <ele>115.80000305176</ele>
        <time>2021-05-08T09:08:37.000Z</time>
      </trkpt>
      <trkpt lat="43.96817" lon="5.05045">
        <ele>115.40000152588</ele>
        <time>2021-05-08T09:08:40.000Z</time>
      </trkpt>
      <trkpt lat="43.968" lon="5.05033">
        <ele>114.80000305176</ele>
        <time>2021-05-08T09:08:51.000Z</time>
      </trkpt>
      <trkpt lat="43.96798" lon="5.05033">
        <ele>114.59999847412</ele>
        <time>2021-05-08T09:08:53.000Z</time>
      </trkpt>
      <trkpt lat="43.96795" lon="5.05032">
        <ele>114.40000152588</ele>
        <time>2021-05-08T09:08:55.000Z</time>
      </trkpt>
      <trkpt lat="43.96776" lon="5.05028">
        <ele>114.40000152588</ele>
        <time>2021-05-08T09:09:07.000Z</time>
      </trkpt>
      <trkpt lat="43.96775" lon="5.05027">
        <ele>114.40000152588</ele>
        <time>2021-05-08T09:09:08.000Z</time>
      </trkpt>
      <trkpt lat="43.96761" lon="5.05025">
        <ele>113.59999847412</ele>
        <time>2021-05-08T09:09:18.000Z</time>
      </trkpt>
      <trkpt lat="43.96758" lon="5.05027">
        <ele>113.59999847412</ele>
        <time>2021-05-08T09:09:22.000Z</time>
      </trkpt>
      <trkpt lat="43.96756" lon="5.05029">
        <ele>113.59999847412</ele>
        <time>2021-05-08T09:09:24.000Z</time>
      </trkpt>
      <trkpt lat="43.96752" lon="5.05032">
        <ele>113.40000152588</ele>
        <time>2021-05-08T09:09:28.000Z</time>
      </trkpt>
      <trkpt lat="43.9675" lon="5.05036">
        <ele>113.40000152588</ele>
        <time>2021-05-08T09:09:30.000Z</time>
      </trkpt>
      <trkpt lat="43.96739" lon="5.05026">
        <ele>113.59999847412</ele>
        <time>2021-05-08T09:10:04.000Z</time>
      </trkpt>
      <trkpt lat="43.96738" lon="5.05023">
        <ele>113.40000152588</ele>
        <time>2021-05-08T09:10:06.000Z</time>
      </trkpt>
      <trkpt lat="43.96735" lon="5.05018">
        <ele>113.19999694824</ele>
        <time>2021-05-08T09:10:11.000Z</time>
      </trkpt>
      <trkpt lat="43.96734" lon="5.05018">
        <ele>112.59999847412</ele>
        <time>2021-05-08T09:10:13.000Z</time>
      </trkpt>
      <trkpt lat="43.96733" lon="5.05018">
        <ele>112.40000152588</ele>
        <time>2021-05-08T09:10:14.000Z</time>
      </trkpt>
      <trkpt lat="43.96733" lon="5.05019">
        <ele>112.19999694824</ele>
        <time>2021-05-08T09:10:15.000Z</time>
      </trkpt>
      <trkpt lat="43.96725" lon="5.0502">
        <ele>111.59999847412</ele>
        <time>2021-05-08T09:10:21.000Z</time>
      </trkpt>
      <trkpt lat="43.96718" lon="5.05019">
        <ele>111.40000152588</ele>
        <time>2021-05-08T09:10:26.000Z</time>
      </trkpt>
      <trkpt lat="43.96714" lon="5.05025">
        <ele>110.40000152588</ele>
        <time>2021-05-08T09:10:31.000Z</time>
      </trkpt>
      <trkpt lat="43.96711" lon="5.0503">
        <ele>110.40000152588</ele>
        <time>2021-05-08T09:10:35.000Z</time>
      </trkpt>
      <trkpt lat="43.96709" lon="5.05034">
        <ele>110</ele>
        <time>2021-05-08T09:10:38.000Z</time>
      </trkpt>
      <trkpt lat="43.96709" lon="5.05035">
        <ele>109.19999694824</ele>
        <time>2021-05-08T09:10:41.000Z</time>
      </trkpt>
      <trkpt lat="43.96709" lon="5.05036">
        <ele>109.19999694824</ele>
        <time>2021-05-08T09:10:42.000Z</time>
      </trkpt>
      <trkpt lat="43.96706" lon="5.0503">
        <ele>108.80000305176</ele>
        <time>2021-05-08T09:10:46.000Z</time>
      </trkpt>
      <trkpt lat="43.96703" lon="5.05026">
        <ele>108.59999847412</ele>
        <time>2021-05-08T09:10:49.000Z</time>
      </trkpt>
      <trkpt lat="43.96701" lon="5.05022">
        <ele>108.40000152588</ele>
        <time>2021-05-08T09:10:51.000Z</time>
      </trkpt>
      <trkpt lat="43.967" lon="5.0502">
        <ele>108.19999694824</ele>
        <time>2021-05-08T09:10:52.000Z</time>
      </trkpt>
      <trkpt lat="43.96695" lon="5.05011">
        <ele>107</ele>
        <time>2021-05-08T09:10:58.000Z</time>
      </trkpt>
      <trkpt lat="43.96689" lon="5.05009">
        <ele>105.80000305176</ele>
        <time>2021-05-08T09:11:03.000Z</time>
      </trkpt>
      <trkpt lat="43.96685" lon="5.05005">
        <ele>104.59999847412</ele>
        <time>2021-05-08T09:11:07.000Z</time>
      </trkpt>
      <trkpt lat="43.9668" lon="5.04999">
        <ele>104</ele>
        <time>2021-05-08T09:11:11.000Z</time>
      </trkpt>
      <trkpt lat="43.96679" lon="5.05001">
        <ele>103.59999847412</ele>
        <time>2021-05-08T09:11:13.000Z</time>
      </trkpt>
      <trkpt lat="43.96679" lon="5.05005">
        <ele>102.80000305176</ele>
        <time>2021-05-08T09:11:15.000Z</time>
      </trkpt>
      <trkpt lat="43.96679" lon="5.05006">
        <ele>102.59999847412</ele>
        <time>2021-05-08T09:11:16.000Z</time>
      </trkpt>
      <trkpt lat="43.96678" lon="5.05009">
        <ele>101.80000305176</ele>
        <time>2021-05-08T09:11:20.000Z</time>
      </trkpt>
      <trkpt lat="43.96678" lon="5.0501">
        <ele>101.40000152588</ele>
        <time>2021-05-08T09:11:22.000Z</time>
      </trkpt>
      <trkpt lat="43.96676" lon="5.05014">
        <ele>100.19999694824</ele>
        <time>2021-05-08T09:11:25.000Z</time>
      </trkpt>
      <trkpt lat="43.96675" lon="5.05016">
        <ele>99.800003051758</ele>
        <time>2021-05-08T09:11:26.000Z</time>
      </trkpt>
      <trkpt lat="43.96674" lon="5.05017">
        <ele>99.599998474121</ele>
        <time>2021-05-08T09:11:27.000Z</time>
      </trkpt>
      <trkpt lat="43.96673" lon="5.05021">
        <ele>99.199996948242</ele>
        <time>2021-05-08T09:11:29.000Z</time>
      </trkpt>
      <trkpt lat="43.96672" lon="5.05023">
        <ele>98.800003051758</ele>
        <time>2021-05-08T09:11:31.000Z</time>
      </trkpt>
      <trkpt lat="43.9667" lon="5.05024">
        <ele>98.199996948242</ele>
        <time>2021-05-08T09:11:34.000Z</time>
      </trkpt>
      <trkpt lat="43.9667" lon="5.05024">
        <ele>98</ele>
        <time>2021-05-08T09:11:35.000Z</time>
      </trkpt>
      <trkpt lat="43.9667" lon="5.05027">
        <ele>97.599998474121</ele>
        <time>2021-05-08T09:11:51.000Z</time>
      </trkpt>
      <trkpt lat="43.96667" lon="5.05029">
        <ele>97.400001525879</ele>
        <time>2021-05-08T09:11:53.000Z</time>
      </trkpt>
      <trkpt lat="43.96658" lon="5.05036">
        <ele>97</ele>
        <time>2021-05-08T09:12:00.000Z</time>
      </trkpt>
      <trkpt lat="43.9665" lon="5.05042">
        <ele>95.800003051758</ele>
        <time>2021-05-08T09:12:06.000Z</time>
      </trkpt>
      <trkpt lat="43.96633" lon="5.05055">
        <ele>95.199996948242</ele>
        <time>2021-05-08T09:12:16.000Z</time>
      </trkpt>
      <trkpt lat="43.96627" lon="5.05059">
        <ele>95.599998474121</ele>
        <time>2021-05-08T09:12:20.000Z</time>
      </trkpt>
      <trkpt lat="43.96618" lon="5.05062">
        <ele>95.800003051758</ele>
        <time>2021-05-08T09:12:28.000Z</time>
      </trkpt>
      <trkpt lat="43.9661" lon="5.05064">
        <ele>96.199996948242</ele>
        <time>2021-05-08T09:12:34.000Z</time>
      </trkpt>
      <trkpt lat="43.96596" lon="5.05067">
        <ele>97</ele>
        <time>2021-05-08T09:12:43.000Z</time>
      </trkpt>
      <trkpt lat="43.96589" lon="5.05071">
        <ele>98</ele>
        <time>2021-05-08T09:12:48.000Z</time>
      </trkpt>
      <trkpt lat="43.96586" lon="5.05072">
        <ele>98.199996948242</ele>
        <time>2021-05-08T09:12:49.000Z</time>
      </trkpt>
      <trkpt lat="43.96583" lon="5.05074">
        <ele>98.400001525879</ele>
        <time>2021-05-08T09:12:51.000Z</time>
      </trkpt>
      <trkpt lat="43.96567" lon="5.05075">
        <ele>99.199996948242</ele>
        <time>2021-05-08T09:13:03.000Z</time>
      </trkpt>
      <trkpt lat="43.96564" lon="5.05071">
        <ele>100.19999694824</ele>
        <time>2021-05-08T09:13:06.000Z</time>
      </trkpt>
      <trkpt lat="43.96552" lon="5.05066">
        <ele>100.59999847412</ele>
        <time>2021-05-08T09:13:16.000Z</time>
      </trkpt>
      <trkpt lat="43.96548" lon="5.05061">
        <ele>100.80000305176</ele>
        <time>2021-05-08T09:13:20.000Z</time>
      </trkpt>
      <trkpt lat="43.96533" lon="5.05047">
        <ele>101.19999694824</ele>
        <time>2021-05-08T09:13:33.000Z</time>
      </trkpt>
      <trkpt lat="43.96528" lon="5.05041">
        <ele>101</ele>
        <time>2021-05-08T09:13:37.000Z</time>
      </trkpt>
      <trkpt lat="43.96528" lon="5.05037">
        <ele>100.80000305176</ele>
        <time>2021-05-08T09:13:39.000Z</time>
      </trkpt>
      <trkpt lat="43.96516" lon="5.05028">
        <ele>100.80000305176</ele>
        <time>2021-05-08T09:13:47.000Z</time>
      </trkpt>
      <trkpt lat="43.9651" lon="5.05025">
        <ele>101</ele>
        <time>2021-05-08T09:13:51.000Z</time>
      </trkpt>
      <trkpt lat="43.96506" lon="5.05019">
        <ele>100.40000152588</ele>
        <time>2021-05-08T09:13:55.000Z</time>
      </trkpt>
      <trkpt lat="43.96501" lon="5.05016">
        <ele>100.40000152588</ele>
        <time>2021-05-08T09:13:58.000Z</time>
      </trkpt>
      <trkpt lat="43.96498" lon="5.05016">
        <ele>100.80000305176</ele>
        <time>2021-05-08T09:14:01.000Z</time>
      </trkpt>
      <trkpt lat="43.96495" lon="5.05017">
        <ele>101.40000152588</ele>
        <time>2021-05-08T09:14:04.000Z</time>
      </trkpt>
      <trkpt lat="43.96494" lon="5.05017">
        <ele>101.59999847412</ele>
        <time>2021-05-08T09:14:05.000Z</time>
      </trkpt>
      <trkpt lat="43.96488" lon="5.0502">
        <ele>102.40000152588</ele>
        <time>2021-05-08T09:14:11.000Z</time>
      </trkpt>
      <trkpt lat="43.96469" lon="5.05022">
        <ele>102.59999847412</ele>
        <time>2021-05-08T09:14:24.000Z</time>
      </trkpt>
      <trkpt lat="43.96468" lon="5.05022">
        <ele>102.59999847412</ele>
        <time>2021-05-08T09:14:25.000Z</time>
      </trkpt>
      <trkpt lat="43.96465" lon="5.05024">
        <ele>102.59999847412</ele>
        <time>2021-05-08T09:14:28.000Z</time>
      </trkpt>
      <trkpt lat="43.96457" lon="5.05025">
        <ele>102</ele>
        <time>2021-05-08T09:14:34.000Z</time>
      </trkpt>
      <trkpt lat="43.96446" lon="5.05024">
        <ele>101.80000305176</ele>
        <time>2021-05-08T09:14:42.000Z</time>
      </trkpt>
      <trkpt lat="43.96443" lon="5.05027">
        <ele>101.59999847412</ele>
        <time>2021-05-08T09:14:46.000Z</time>
      </trkpt>
      <trkpt lat="43.96437" lon="5.0503">
        <ele>101.59999847412</ele>
        <time>2021-05-08T09:14:49.000Z</time>
      </trkpt>
      <trkpt lat="43.96425" lon="5.05034">
        <ele>101.80000305176</ele>
        <time>2021-05-08T09:14:57.000Z</time>
      </trkpt>
      <trkpt lat="43.96422" lon="5.05036">
        <ele>101.19999694824</ele>
        <time>2021-05-08T09:15:00.000Z</time>
      </trkpt>
      <trkpt lat="43.9642" lon="5.05037">
        <ele>100.80000305176</ele>
        <time>2021-05-08T09:15:02.000Z</time>
      </trkpt>
      <trkpt lat="43.96416" lon="5.05038">
        <ele>100.19999694824</ele>
        <time>2021-05-08T09:15:05.000Z</time>
      </trkpt>
      <trkpt lat="43.96409" lon="5.05044">
        <ele>99.599998474121</ele>
        <time>2021-05-08T09:15:10.000Z</time>
      </trkpt>
      <trkpt lat="43.96404" lon="5.05048">
        <ele>99.199996948242</ele>
        <time>2021-05-08T09:15:13.000Z</time>
      </trkpt>
      <trkpt lat="43.96396" lon="5.05053">
        <ele>98</ele>
        <time>2021-05-08T09:15:18.000Z</time>
      </trkpt>
      <trkpt lat="43.96389" lon="5.05058">
        <ele>97.599998474121</ele>
        <time>2021-05-08T09:15:23.000Z</time>
      </trkpt>
      <trkpt lat="43.96386" lon="5.05061">
        <ele>97.199996948242</ele>
        <time>2021-05-08T09:15:25.000Z</time>
      </trkpt>
      <trkpt lat="43.96385" lon="5.05063">
        <ele>97</ele>
        <time>2021-05-08T09:15:26.000Z</time>
      </trkpt>
      <trkpt lat="43.9638" lon="5.05065">
        <ele>96.400001525879</ele>
        <time>2021-05-08T09:15:28.000Z</time>
      </trkpt>
      <trkpt lat="43.96377" lon="5.05066">
        <ele>95.599998474121</ele>
        <time>2021-05-08T09:15:30.000Z</time>
      </trkpt>
      <trkpt lat="43.96372" lon="5.05066">
        <ele>94.599998474121</ele>
        <time>2021-05-08T09:15:33.000Z</time>
      </trkpt>
      <trkpt lat="43.96365" lon="5.05065">
        <ele>93.599998474121</ele>
        <time>2021-05-08T09:15:37.000Z</time>
      </trkpt>
      <trkpt lat="43.96357" lon="5.05066">
        <ele>92.599998474121</ele>
        <time>2021-05-08T09:15:42.000Z</time>
      </trkpt>
      <trkpt lat="43.9635" lon="5.05066">
        <ele>91.599998474121</ele>
        <time>2021-05-08T09:15:46.000Z</time>
      </trkpt>
      <trkpt lat="43.96337" lon="5.05065">
        <ele>90.400001525879</ele>
        <time>2021-05-08T09:15:54.000Z</time>
      </trkpt>
      <trkpt lat="43.96322" lon="5.05065">
        <ele>89.199996948242</ele>
        <time>2021-05-08T09:16:03.000Z</time>
      </trkpt>
      <trkpt lat="43.9631" lon="5.0506">
        <ele>88.199996948242</ele>
        <time>2021-05-08T09:16:10.000Z</time>
      </trkpt>
      <trkpt lat="43.96308" lon="5.05059">
        <ele>87.800003051758</ele>
        <time>2021-05-08T09:16:12.000Z</time>
      </trkpt>
      <trkpt lat="43.96307" lon="5.05058">
        <ele>87.800003051758</ele>
        <time>2021-05-08T09:16:13.000Z</time>
      </trkpt>
    </trkseg>
  </trk>
</gpx>